GFSWCAN_prec_cloud_027.txt.gz
Cloud_Cover
5 16 8 6 33 37 97 92 100 100 100 100 100 100 100 100 100 100 100 100 100 100 100 100 99 87 99 68 100 36 64 50 77 97 100 100 76 76 15 16 100 90 100 100 100 100 90 34 100 100 100 100 92 100
99 100 30 99 99 100 98 52 99 100 100 100 100 100 100 100 100 100 100 100 100 100 100 100 100 100 97 99 100 100 100 95 5 28 36 62 98 94 95 97 82 52 49 76 44 23 64 97 100 100 100 100 100 100
9 67 5 10 100 100 100 84 87 100 100 100 100 100 100 100 100 100 100 100 100 100 100 100 100 100 100 100 100 100 100 100 100 100 87 93 33 70 100 79 100 73 38 70 9 16 71 76 97 99 100 100 87 26
10 8 93 27 98 100 100 100 100 100 100 100 100 100 100 100 100 100 100 100 100 100 100 100 100 100 100 100 100 100 100 100 100 99 76 100 40 7 16 78 100 90 77 100 57 23 5 5 5 31 100 54 25 5
5 5 5 19 92 100 100 100 100 100 100 100 100 100 100 100 100 100 100 100 100 100 89 100 98 100 100 100 100 100 91 100 100 100 100 90 6 54 10 16 100 100 100 100 100 25 59 6 18 98 100 98 31 79
5 5 5 22 92 100 100 100 100 100 100 100 100 100 100 100 100 100 100 100 100 100 100 100 100 100 35 39 1 5 5 32 100 100 100 100 8 59 65 53 83 100 95 100 100 76 12 30 100 100 98 28 7 65
78 73 55 95 100 100 100 100 100 100 100 100 100 100 100 100 100 100 100 100 100 100 100 71 5 16 63 67 8 12 5 10 88 100 100 100 36 22 6 6 3 99 100 100 100 76 33 96 100 100 100 61 17 48
95 100 100 100 100 100 100 100 100 100 100 100 100 100 100 100 100 100 100 100 100 100 98 99 32 79 100 98 99 8 5 59 100 100 100 100 93 82 59 3 3 69 100 97 100 26 24 16 90 100 93 50 19 26
74 96 100 100 100 100 100 100 100 100 100 100 100 100 100 100 100 100 100 100 100 100 79 76 92 99 99 100 96 49 77 100 100 100 100 100 100 100 100 5 5 5 42 64 96 95 11 5 48 66 96 100 92 22
100 100 100 88 77 100 100 100 100 100 100 100 100 100 100 100 100 100 100 100 100 100 100 100 100 100 100 98 100 100 100 100 100 100 100 100 100 100 100 19 5 5 6 58 14 100 66 7 93 96 95 84 92 57
100 96 100 52 6 99 100 100 100 100 100 100 100 100 100 100 100 100 100 100 96 99 100 100 100 100 100 100 100 100 100 100 100 100 100 100 100 93 5 5 5 7 54 45 59 59 100 96 98 100 100 86 36 54
6 94 80 16 5 5 100 99 93 100 100 100 100 100 100 100 100 100 100 100 100 100 100 100 100 100 100 100 99 85 100 100 100 100 100 100 89 40 99 20 5 5 5 5 60 100 100 100 98 100 100 100 100 100
90 95 100 97 59 23 90 86 100 100 99 100 100 100 100 100 100 100 100 95 97 100 100 100 100 100 100 100 100 100 100 100 100 100 100 100 37 22 45 59 53 6 71 99 100 96 100 100 100 100 100 100 100 98
31 4 87 100 100 54 53 100 100 100 7 100 100 100 100 100 100 100 100 100 98 85 100 100 100 100 100 100 100 99 86 100 100 92 81 100 98 99 100 63 100 99 100 97 64 60 99 100 100 100 100 100 100 100
54 62 36 98 100 83 100 100 100 97 5 13 100 100 100 100 100 100 100 100 100 99 100 100 100 100 100 100 100 98 100 100 100 100 100 100 100 100 100 100 100 100 100 100 100 100 100 100 100 100 100 100 100 100
96 37 57 79 100 92 100 100 100 91 14 72 81 79 100 100 100 100 100 100 100 100 99 100 100 100 100 100 97 92 92 100 90 100 100 100 100 100 100 100 100 100 100 100 100 100 100 100 100 100 100 100 100 100
28 79 96 100 100 100 100 100 82 86 88 98 76 40 60 85 62 99 100 100 100 100 100 99 100 100 100 100 96 98 100 56 92 100 100 100 100 100 100 100 100 100 100 100 100 100 100 100 100 100 100 100 100 100
100 98 100 100 100 100 100 100 98 61 100 71 88 5 5 5 19 76 99 100 100 100 100 98 99 100 100 100 100 100 100 99 88 73 75 65 88 88 100 100 100 100 100 100 100 100 100 100 100 100 100 100 100 100
100 100 100 96 100 100 100 88 87 81 95 64 48 51 47 13 6 16 61 75 95 100 100 97 95 76 100 100 97 95 100 92 100 100 100 100 100 90 87 66 99 100 100 100 100 100 100 100 100 100 100 100 100 100
100 100 100 100 100 100 100 90 81 100 94 100 76 92 73 60 34 44 59 83 97 100 98 99 100 100 100 100 97 100 94 72 79 100 100 100 100 96 100 68 62 41 50 65 97 90 69 48 92 100 100 100 100 100
100 100 100 100 100 100 93 64 91 75 100 96 100 86 52 59 78 100 80 27 96 100 100 100 100 100 11 97 100 100 98 69 36 34 11 31 27 65 61 72 68 6 6 4 5 5 5 5 6 5 16 73 99 100
100 100 100 100 100 98 80 88 78 59 96 100 100 94 100 89 75 77 82 98 100 100 97 92 68 93 68 100 100 100 100 6 11 30 46 18 10 38 48 5 48 5 7 17 44 50 35 10 12 10 6 21 92 5
100 100 100 100 100 95 50 100 90 94 98 100 100 70 31 83 51 78 99 100 100 100 100 100 100 99 81 100 100 100 100 100 100 65 21 24 28 15 6 5 28 51 9 10 5 6 40 5 6 15 25 25 6 10
100 100 100 100 96 73 100 86 98 92 100 98 100 74 4 26 80 96 81 32 100 100 100 100 100 94 99 100 95 15 49 100 99 43 69 100 94 86 59 42 65 84 84 9 30 45 54 5 5 5 5 72 78 66
100 100 100 100 100 100 94 97 95 99 92 100 100 44 24 91 41 95 46 77 100 100 100 100 100 100 100 100 100 100 99 100 98 74 53 94 99 98 74 100 100 100 100 99 91 100 100 100 98 83 71 66 53 5
100 100 94 60 75 49 42 82 100 97 100 100 100 46 83 52 8 5 5 76 100 100 100 100 100 100 100 100 100 100 100 100 100 100 100 100 98 96 86 96 100 100 100 100 100 100 91 100 94 59 93 77 12 5
88 9 86 86 100 100 96 100 100 100 100 100 99 100 52 5 1 3 5 20 100 100 100 100 100 100 100 100 100 100 100 100 100 100 100 99 96 59 66 96 95 100 100 100 98 90 63 10 30 48 49 35 21 5
21 6 34 41 91 65 100 100 100 100 100 100 91 82 43 5 5 5 4 8 99 100 100 100 100 100 100 100 100 100 100 100 100 100 100 78 22 45 100 100 90 100 100 100 99 84 61 70 85 80 81 85 50 5
100 100 100 100 100 100 100 100 100 100 100 100 47 21 5 6 5 5 6 13 90 100 88 100 100 100 100 100 100 99 99 98 100 100 97 97 97 50 78 100 96 100 100 100 79 20 63 77 88 96 78 68 33 15
100 100 100 100 100 100 100 100 100 100 100 100 30 8 5 5 5 33 45 61 39 100 100 100 79 82 94 97 99 65 57 88 91 78 100 100 100 99 92 93 100 100 97 93 60 39 50 94 81 97 76 81 73 87
100 100 100 100 100 100 100 99 67 88 99 100 54 19 5 5 5 5 5 4 4 43 94 81 25 68 96 98 76 66 77 80 80 92 95 94 99 99 100 100 93 51 79 100 96 99 87 76 79 87 80 82 82 90
100 100 100 77 78 100 100 64 28 20 89 100 88 92 6 6 5 4 50 18 10 10 56 100 69 25 22 55 62 100 86 86 82 81 88 89 78 56 12 6 58 69 95 97 89 94 84 97 77 81 75 63 71 82
92 66 67 6 5 31 44 6 11 36 28 56 42 5 5 6 4 4 29 50 5 5 68 100 75 6 60 76 86 96 93 91 97 91 94 82 98 100 100 100 96 92 97 84 76 90 98 98 80 70 68 67 73 76

GFSWCAN_prec_cloud_030.txt.gz
Cloud_Cover
5 5 5 5 5 5 28 77 5 5 5 62 74 86 100 100 100 100 100 100 100 100 100 100 100 100 100 96 100 56 34 68 90 97 100 100 51 69 99 94 100 92 99 88 98 97 62 38 90 83 100 100 100 100
5 5 5 5 5 5 99 100 20 5 6 13 67 60 99 100 100 93 100 100 100 100 100 100 100 100 100 73 100 100 100 98 40 100 52 100 47 6 49 100 100 92 100 100 86 20 56 97 86 100 100 100 100 100
5 5 5 5 5 82 100 98 43 5 5 19 76 97 99 100 100 100 99 100 100 100 100 100 100 100 100 100 100 100 100 100 100 87 98 98 50 76 46 28 77 100 100 100 64 28 9 22 64 64 100 100 100 100
5 5 5 5 5 64 100 100 81 16 100 76 48 100 90 100 100 100 99 100 100 100 100 100 99 100 100 100 65 100 100 100 100 100 100 100 86 9 5 46 15 86 100 95 92 20 28 5 5 32 90 100 100 87
5 12 5 5 5 20 79 100 100 84 100 87 78 100 100 100 100 99 100 98 100 100 100 100 100 100 100 95 100 100 100 100 100 100 100 100 100 100 82 14 6 5 50 100 100 36 10 6 24 5 5 70 80 100
5 12 5 9 48 80 87 100 100 100 100 90 100 100 100 100 100 100 100 100 100 100 100 100 100 100 100 100 98 81 97 100 100 100 100 100 100 100 85 21 14 4 5 79 100 65 5 5 68 5 5 5 5 35
99 97 48 85 100 100 39 97 100 100 100 100 99 100 100 100 100 100 100 100 100 100 100 100 100 100 100 100 81 63 81 68 70 78 97 100 100 100 79 8 5 0 4 5 100 88 9 8 7 15 35 44 12 27
100 97 6 78 91 100 86 100 100 100 100 100 93 100 100 100 100 100 100 100 100 100 100 100 86 8 49 82 82 5 32 58 98 22 82 100 100 100 100 100 6 2 0 5 31 97 30 5 59 40 53 50 92 68
99 80 42 11 66 33 100 85 100 14 100 100 100 100 100 100 100 100 100 100 100 100 100 99 88 38 92 100 83 28 16 46 9 100 100 100 100 100 100 100 74 5 5 4 5 100 99 6 52 62 31 99 66 94
68 23 49 37 14 100 100 100 68 5 98 100 98 100 100 100 100 100 100 100 100 100 100 95 91 100 100 100 100 100 100 100 98 100 100 100 100 100 100 100 100 54 8 5 5 17 92 20 5 22 15 100 91 69
100 17 24 5 5 67 99 100 66 89 9 100 100 100 100 100 100 100 100 100 99 97 99 100 100 100 100 100 100 100 100 100 100 100 100 100 100 100 100 100 100 100 18 5 5 5 19 50 99 96 88 98 100 75
50 58 98 5 5 5 6 100 98 100 100 99 100 100 100 100 100 100 100 100 100 99 100 100 100 100 100 100 100 100 100 100 100 100 100 100 100 100 100 100 100 94 6 5 5 29 86 94 100 100 96 98 100 100
74 85 100 99 14 13 89 100 100 100 100 8 61 100 100 100 100 100 100 100 100 100 100 99 100 100 100 100 100 100 100 100 100 100 100 98 99 34 70 80 44 5 5 10 97 96 35 99 100 100 100 100 100 100
16 96 91 100 94 100 68 95 100 100 50 5 4 56 100 100 100 100 100 100 100 100 100 100 100 100 100 100 100 100 99 100 100 100 100 99 75 5 6 5 5 8 79 63 54 9 22 63 82 100 100 100 100 100
52 21 52 92 100 100 100 77 98 99 30 5 5 3 64 100 100 100 100 100 100 100 100 100 100 100 100 100 100 100 99 100 100 98 79 58 37 94 54 36 90 97 100 75 77 96 100 100 100 100 100 100 100 100
4 7 95 61 93 100 100 86 88 88 21 6 46 67 6 20 100 100 100 100 100 100 100 100 100 100 100 100 100 100 100 100 100 100 100 100 100 100 100 100 100 100 100 100 100 100 100 100 100 100 100 100 100 100
5 43 37 79 99 99 100 100 79 69 88 98 28 5 6 28 6 98 100 100 100 100 100 100 100 100 100 100 100 100 91 83 86 98 100 100 100 100 100 95 100 100 100 100 100 100 100 100 100 100 100 100 100 100
69 99 100 100 98 97 100 98 56 61 61 61 48 5 5 6 9 5 68 100 100 100 100 100 100 100 84 100 100 100 100 100 100 94 82 100 100 100 100 100 100 100 100 100 100 100 100 100 100 100 100 100 100 100
100 100 100 100 100 100 100 100 100 92 82 69 8 5 7 28 8 6 9 18 47 79 100 100 100 100 100 100 100 98 100 99 96 91 85 92 85 90 94 94 99 100 100 100 100 100 100 100 100 100 100 100 100 100
100 100 100 100 100 100 100 100 92 100 33 5 32 70 52 17 52 48 68 100 100 83 92 100 100 100 100 94 66 100 100 100 92 57 40 31 58 68 79 86 94 85 66 99 99 99 100 100 100 100 100 100 100 100
100 100 100 100 100 100 100 75 86 78 26 18 50 66 23 36 27 84 72 83 100 62 50 97 95 22 23 90 100 99 87 100 100 70 51 55 67 22 25 18 22 17 10 7 56 12 6 5 16 7 5 6 29 96
100 100 100 100 100 100 100 97 97 48 86 46 23 86 83 90 43 64 98 100 85 5 6 94 96 90 41 24 100 100 61 100 99 93 79 99 64 31 28 37 12 29 29 18 15 28 24 18 12 5 5 18 15 8
100 100 100 100 98 97 64 75 89 87 63 6 22 10 7 62 61 73 98 52 6 5 5 96 100 87 61 72 100 86 84 86 97 70 15 29 36 9 26 12 5 5 5 5 5 5 5 5 5 5 18 51 58 44
100 100 100 100 85 86 86 84 96 84 96 100 100 71 5 6 74 89 70 5 5 5 21 100 100 100 99 95 99 100 88 96 99 50 78 61 21 5 5 5 19 35 14 5 14 12 35 49 15 5 16 5 5 5
100 100 100 99 86 100 100 95 98 98 100 100 100 98 7 88 7 33 48 5 5 5 31 100 100 100 100 100 100 100 100 100 90 62 73 47 30 100 95 53 34 13 33 22 17 34 23 95 100 100 55 5 20 86
100 98 90 47 80 68 57 77 100 100 100 98 64 11 90 26 44 26 29 5 4 5 20 100 100 100 100 100 100 100 100 100 100 100 98 100 100 83 36 87 100 100 100 100 100 99 93 100 100 100 100 54 17 51
98 58 78 78 96 93 76 93 100 100 99 72 70 100 96 100 86 94 42 43 5 4 30 100 100 100 100 100 100 100 100 100 100 100 100 100 88 78 63 66 95 71 72 53 49 81 89 67 82 97 100 24 6 35
12 6 50 83 100 100 100 100 100 100 94 97 100 100 100 83 82 100 100 26 5 5 5 100 100 100 100 100 100 100 100 100 100 98 90 100 99 89 100 100 100 96 100 98 81 89 57 17 68 54 100 100 100 58
97 98 96 100 100 95 74 84 64 90 100 99 98 100 100 50 74 23 5 5 5 5 5 92 100 100 100 100 100 100 100 100 100 100 100 100 100 99 98 92 92 71 72 76 57 64 47 52 46 70 57 60 90 52
90 100 100 100 100 100 100 100 100 100 51 73 53 100 100 100 81 9 5 5 5 3 0 24 100 100 100 100 100 100 100 100 100 100 100 84 69 35 7 16 5 6 60 85 81 52 81 99 95 99 87 92 87 100
100 100 100 100 100 100 100 100 100 100 100 100 99 89 100 99 72 5 13 6 3 0 5 3 36 100 100 100 100 100 100 100 100 60 32 15 46 48 6 5 5 6 19 53 83 99 92 99 95 92 86 71 60 86
100 100 98 70 57 83 99 87 39 17 8 33 8 39 100 13 5 20 66 8 5 5 2 4 5 87 43 23 41 94 90 66 48 62 47 8 7 52 55 21 42 88 93 90 100 89 100 100 95 85 84 68 36 57
96 100 100 22 7 26 50 6 22 37 16 24 5 5 5 5 5 64 100 30 6 5 5 5 5 42 24 5 5 5 35 24 56 61 95 70 98 66 96 88 39 60 90 100 100 95 97 98 99 86 74 71 60 56

GFSWCAN_prec_cloud_033.txt.gz
Cloud_Cover
5 5 5 4 0 3 5 64 96 12 5 5 5 5 5 10 50 36 77 94 100 100 100 100 100 100 100 100 100 86 46 46 58 97 100 99 76 95 100 100 100 99 100 100 100 100 79 100 100 100 100 100 100 100
6 5 5 5 5 5 14 5 24 10 5 5 82 7 5 22 86 98 100 8 94 100 100 100 100 100 100 100 100 100 91 100 95 68 43 54 44 71 76 100 100 100 100 100 100 61 57 41 53 58 99 100 100 100
5 5 5 5 5 5 16 5 8 23 74 94 100 82 97 8 64 100 100 88 82 100 100 100 100 100 100 100 100 100 100 98 100 100 98 91 92 76 74 21 70 99 100 100 100 100 100 85 63 5 8 52 65 96
5 5 5 10 5 5 5 5 7 52 85 13 91 82 100 100 69 100 100 90 72 100 100 100 100 100 100 100 100 100 100 100 88 94 100 100 98 97 81 52 46 54 76 98 96 90 97 100 67 61 5 27 63 100
78 8 5 9 6 5 5 5 75 100 85 55 12 100 96 100 98 74 100 91 96 100 93 100 100 100 100 100 100 100 100 100 100 90 100 100 100 100 100 100 76 12 5 18 25 17 93 86 100 59 11 5 55 100
40 15 5 5 69 89 5 8 100 100 98 65 69 96 100 92 68 95 100 100 100 100 100 100 100 100 100 100 100 100 100 100 73 98 100 100 100 100 100 95 100 93 9 5 5 5 22 100 100 97 5 5 7 69
100 35 5 100 100 100 100 38 48 85 19 5 67 99 45 78 87 100 100 100 100 100 100 100 100 100 100 100 100 98 100 100 99 100 99 99 100 100 100 100 100 100 88 8 5 5 5 39 100 85 42 5 19 43
76 70 94 20 91 93 35 14 5 21 5 9 47 5 5 85 98 100 100 100 100 100 100 100 100 100 100 100 100 94 92 100 98 91 77 53 67 100 100 100 100 100 100 94 9 3 5 5 49 100 100 94 29 34
97 100 100 16 16 99 88 5 5 5 5 12 5 5 94 91 98 100 100 100 100 100 100 100 100 100 100 100 100 68 65 100 56 96 69 60 98 100 98 100 100 100 100 100 16 0 3 5 5 100 100 100 100 78
99 7 81 95 31 28 5 5 5 5 5 5 5 27 99 95 100 100 100 100 100 100 100 100 100 100 100 100 99 100 98 98 97 32 87 37 100 100 100 100 100 100 100 100 63 5 5 6 5 56 100 100 100 100
84 29 57 90 22 5 5 5 5 7 61 50 34 36 82 100 100 100 100 100 100 100 100 100 100 100 97 100 100 100 100 99 100 100 100 100 96 100 100 100 100 100 100 100 100 88 5 5 6 47 100 100 48 80
100 100 100 71 5 81 85 9 94 96 93 44 41 19 53 100 100 100 100 100 100 100 100 100 100 100 100 100 100 100 100 100 100 100 100 100 100 100 100 100 100 100 100 100 100 98 5 7 62 100 100 100 74 75
100 100 100 89 32 15 99 99 100 95 65 14 36 62 54 84 100 100 100 100 100 100 100 100 100 100 95 100 100 100 100 100 92 100 100 100 100 100 100 100 100 100 100 100 100 68 50 94 74 100 100 100 100 100
100 58 100 100 76 67 64 100 100 96 22 5 5 0 8 5 97 100 100 100 100 100 100 100 100 100 100 100 100 100 100 96 92 87 95 100 96 100 100 100 100 100 98 92 76 92 18 5 54 98 75 99 100 100
100 96 100 100 91 100 86 96 94 73 26 7 6 1 2 2 5 84 100 100 100 100 100 100 100 100 100 100 100 100 100 100 100 97 100 61 64 64 85 64 41 24 46 95 81 62 61 5 43 64 100 100 100 100
100 98 83 74 67 74 66 92 20 9 11 18 36 14 4 5 5 5 86 100 100 100 100 100 100 100 100 100 100 100 100 100 100 100 100 100 88 94 72 87 67 71 98 100 100 100 98 100 100 100 100 100 100 100
100 100 100 100 96 100 100 85 38 72 92 95 15 7 5 5 5 5 0 49 100 100 100 100 100 100 100 100 100 100 100 100 100 100 99 100 100 100 100 100 100 95 98 100 93 100 100 100 100 100 100 100 100 100
100 100 100 100 100 100 100 60 58 78 90 54 25 14 14 5 5 4 5 5 5 98 100 100 100 100 100 100 100 100 100 100 100 100 100 100 100 100 100 100 100 100 100 99 100 100 100 100 100 100 100 100 100 100
99 99 100 100 100 100 100 100 77 84 92 96 59 100 28 33 5 5 5 8 38 96 93 100 100 100 100 100 100 100 100 100 100 100 100 100 100 100 100 100 100 100 100 100 100 100 100 100 100 100 100 100 100 100
59 100 100 100 100 100 98 95 81 100 76 96 100 100 100 38 8 9 31 98 100 100 100 100 87 100 100 100 100 100 100 100 100 100 100 100 96 100 100 95 92 100 96 100 100 100 100 100 100 100 100 100 100 100
76 100 100 100 100 100 98 82 94 94 100 100 100 100 100 99 8 49 78 100 100 100 75 5 2 45 92 100 100 100 63 85 99 92 100 100 100 100 93 68 43 64 57 8 11 17 23 11 6 18 66 93 97 100
90 100 100 100 100 100 100 100 100 100 100 100 100 100 100 81 12 85 98 100 100 20 5 4 0 0 32 6 24 90 100 100 100 99 100 93 100 100 100 97 53 5 6 28 38 38 25 6 5 5 5 5 5 5
100 100 100 100 100 100 88 88 100 100 100 98 88 75 10 5 43 84 75 50 5 8 5 5 5 5 21 89 62 73 59 33 100 100 86 95 97 81 88 93 95 94 44 5 5 5 7 5 5 5 5 5 8 5
100 100 100 100 100 100 99 99 100 100 93 89 84 13 96 25 50 84 51 99 6 13 29 5 5 5 9 99 78 77 79 100 100 100 65 100 67 71 57 99 95 50 5 5 5 5 5 5 5 5 5 5 5 5
100 100 100 100 100 100 100 100 100 95 89 93 59 76 29 72 22 100 57 100 19 100 97 31 5 5 43 100 100 100 100 100 100 100 63 90 100 100 25 6 5 5 5 5 5 5 5 5 5 5 5 5 5 5
100 90 86 92 81 57 14 45 90 32 100 98 28 9 63 98 67 10 50 100 98 87 94 76 5 5 77 100 100 100 100 100 100 100 100 100 100 100 75 68 40 16 15 27 27 40 26 27 46 41 51 55 54 54
97 67 85 28 75 11 33 52 100 99 47 54 6 45 98 100 40 4 38 100 100 80 82 77 5 28 100 100 100 100 100 100 100 100 100 100 100 100 100 100 96 99 99 100 96 72 48 99 100 84 61 56 36 60
58 94 89 81 96 100 100 100 100 93 93 58 88 98 100 72 24 44 75 94 100 96 100 5 5 34 100 100 100 100 100 100 100 100 100 100 100 100 100 100 100 100 100 100 100 100 97 95 89 31 68 56 6 13
99 67 98 100 100 100 94 94 64 43 14 38 17 41 29 56 52 92 100 83 88 100 94 5 4 5 99 100 100 100 100 100 100 100 100 100 100 100 100 100 100 100 100 97 37 10 43 38 20 43 69 72 61 57
100 100 100 100 100 98 98 100 92 94 21 5 5 5 5 79 100 100 100 100 100 100 73 5 5 3 9 100 100 100 100 100 100 100 100 100 99 98 100 100 100 100 100 86 39 27 5 29 56 63 52 70 89 95
100 100 100 100 90 98 98 44 7 5 5 21 32 5 5 10 96 100 100 100 100 100 56 5 5 4 4 88 96 98 100 100 100 100 100 100 100 100 100 100 100 90 69 87 72 48 61 74 85 96 83 57 48 83
100 100 100 100 99 98 99 98 65 5 5 14 98 100 5 7 94 100 100 100 100 80 5 6 5 2 5 5 12 68 62 43 97 100 97 67 47 76 70 46 21 10 7 5 10 62 85 94 84 81 89 68 47 20
100 100 100 22 6 5 32 6 5 5 17 5 5 8 5 5 90 100 100 100 99 21 5 5 5 5 5 5 12 5 5 5 16 58 26 17 22 16 24 17 46 55 65 87 92 97 90 95 92 76 79 76 55 5

GFSWCAN_prec_cloud_036.txt.gz
Cloud_Cover
100 83 7 5 1 0 5 5 33 5 5 5 5 5 5 5 5 15 68 92 18 29 100 99 100 100 100 100 100 86 91 73 84 70 24 84 89 99 72 58 41 22 60 96 100 100 100 100 100 100 100 100 100 100
100 98 7 5 1 5 5 91 100 28 5 5 5 5 5 34 8 99 100 100 82 19 26 91 100 100 100 100 100 100 100 100 100 91 46 65 52 6 17 71 18 57 41 94 74 100 100 100 100 100 100 100 100 100
100 24 20 5 5 5 5 58 100 100 28 57 5 5 62 10 17 90 89 34 87 88 6 96 100 100 100 100 100 100 100 100 100 100 100 100 85 69 16 17 87 91 53 94 49 99 100 98 100 71 99 100 100 100
100 100 100 13 5 29 5 94 94 100 100 100 5 12 100 24 73 6 36 52 48 71 72 88 100 100 100 100 100 100 100 100 100 100 98 100 99 100 79 31 80 80 93 56 43 24 79 100 100 100 71 57 46 79
100 72 7 5 26 88 5 69 85 100 100 100 13 91 96 86 48 5 5 56 100 90 100 86 100 100 100 100 100 100 100 100 100 100 100 99 100 100 99 23 85 100 100 84 11 68 43 86 100 100 87 70 17 9
92 83 5 93 5 5 5 94 100 98 100 98 90 96 35 5 5 5 79 91 100 97 100 100 100 100 100 100 100 100 100 100 100 100 100 12 94 84 100 94 100 100 94 100 10 52 52 99 99 100 97 100 97 11
100 100 100 100 57 5 5 72 95 100 100 97 90 50 5 7 8 5 66 96 100 100 100 100 100 100 100 100 100 100 100 100 100 100 100 100 100 92 100 98 100 100 100 86 15 20 5 33 62 38 78 65 93 71
100 100 47 7 53 5 5 96 17 8 6 6 6 5 5 28 5 51 64 99 100 100 100 100 100 100 100 100 100 100 100 100 100 100 49 17 25 7 72 65 100 100 100 100 100 71 10 6 20 6 29 56 73 56
100 88 95 71 7 5 5 64 88 24 14 5 2 5 87 32 54 62 79 100 100 100 100 100 100 100 100 100 100 100 100 100 41 62 52 5 5 84 2 11 100 100 100 100 99 38 5 5 9 5 5 22 56 56
100 83 100 98 82 6 6 5 16 6 5 5 5 75 93 45 9 100 99 100 100 100 100 100 100 100 100 100 100 100 100 94 98 52 36 47 100 7 2 55 99 100 100 100 100 100 64 85 83 5 5 5 24 47
100 100 100 100 54 78 29 30 36 83 10 7 78 76 5 5 28 64 100 100 100 100 100 100 100 100 100 100 100 100 100 99 100 97 92 100 100 100 100 100 100 98 100 100 100 100 100 100 100 73 24 59 100 98
100 100 100 100 87 84 13 100 100 100 100 23 9 36 86 98 46 31 72 100 100 100 100 100 100 100 100 100 100 100 100 100 100 100 100 100 100 100 100 100 100 100 100 100 100 100 100 100 100 100 100 100 100 100
100 100 100 100 98 48 89 99 98 87 38 5 6 58 5 10 10 5 5 100 100 100 82 100 100 100 100 100 100 100 100 100 74 100 100 100 100 100 100 100 100 100 100 100 100 100 100 100 100 96 99 100 100 100
100 100 100 100 100 100 100 99 22 9 29 5 11 3 5 5 5 5 5 14 98 100 100 53 100 100 100 100 100 100 100 100 100 100 100 99 96 100 100 100 100 100 100 100 100 100 100 100 99 37 61 5 59 83
100 100 100 100 100 100 99 71 33 37 27 26 5 5 5 3 5 6 59 9 5 100 100 100 100 100 100 100 100 100 100 100 100 100 100 100 100 100 100 100 100 100 100 100 100 100 100 100 88 15 38 94 96 99
100 100 100 100 100 100 88 28 17 7 20 22 24 13 4 5 6 6 14 9 10 5 86 100 100 100 100 100 100 100 100 100 100 100 100 100 100 100 97 99 97 63 75 93 98 100 99 99 94 86 100 100 100 100
100 100 100 100 100 100 100 96 23 59 95 96 25 5 5 7 5 4 0 5 4 5 14 100 100 100 100 100 100 100 100 100 100 100 100 100 100 100 100 100 100 100 100 100 100 100 100 100 100 97 100 100 100 100
100 100 100 100 100 100 100 74 74 100 100 94 48 39 6 5 5 5 2 5 5 7 87 64 88 100 100 100 100 100 100 100 100 100 100 100 100 100 100 100 100 100 100 100 100 100 100 100 100 100 100 100 100 100
100 100 100 100 97 100 100 97 68 100 98 100 89 20 100 58 8 5 7 7 18 68 92 88 100 100 100 100 100 100 100 96 100 100 100 100 100 100 100 100 100 100 100 100 100 100 100 100 98 100 100 100 100 100
100 100 100 100 100 77 98 95 98 100 100 47 5 8 5 6 53 93 100 66 99 100 100 100 59 6 14 98 100 100 100 100 100 100 86 100 100 100 100 100 100 100 100 100 100 100 100 100 100 100 100 100 100 100
100 100 100 100 100 69 97 84 99 98 92 30 62 10 54 100 100 100 100 95 100 100 49 10 5 4 10 2 58 100 100 100 100 96 100 100 100 100 100 100 100 100 100 100 100 100 100 100 100 100 100 100 95 99
100 100 100 100 100 100 100 100 75 31 54 16 58 100 100 100 100 100 95 100 99 5 5 5 4 5 100 53 5 30 100 100 100 100 100 100 100 86 98 100 100 100 92 95 94 75 77 86 63 36 24 28 29 9
100 100 100 100 100 100 64 82 100 95 97 95 100 100 100 79 74 82 90 11 5 29 47 5 5 5 99 83 5 5 5 64 100 100 94 83 100 83 96 86 100 100 100 89 72 66 46 29 16 57 67 43 37 11
100 100 100 98 100 92 100 100 100 100 100 100 100 97 69 39 57 92 74 6 77 100 24 11 75 14 100 72 5 5 5 5 8 57 84 29 86 87 41 99 100 99 100 67 99 75 66 51 56 89 29 6 5 5
100 100 100 100 100 96 88 100 100 100 100 100 100 100 98 55 71 69 12 2 5 18 97 100 99 74 99 84 5 17 53 39 94 65 100 82 99 100 100 99 100 100 87 85 73 100 69 13 15 5 5 5 5 5
100 100 86 83 100 100 100 100 100 100 100 100 87 30 37 79 95 6 5 5 83 98 100 100 95 100 94 54 5 99 86 100 96 100 100 100 100 100 100 100 100 66 5 40 54 95 77 15 5 5 5 5 5 5
79 81 100 100 100 100 100 98 44 95 88 70 28 74 70 91 32 5 6 74 100 100 100 100 100 50 6 51 19 90 100 100 100 100 100 100 100 100 100 100 100 81 85 98 11 51 59 17 5 11 42 63 61 31
81 100 100 100 90 80 84 99 96 92 100 78 49 78 39 6 5 42 76 90 100 81 10 28 24 50 53 10 5 96 100 100 100 100 100 100 100 100 100 100 100 100 100 100 100 99 84 94 91 82 73 74 56 81
96 84 67 94 91 100 100 100 100 97 35 39 51 26 5 5 5 5 57 27 5 6 19 72 5 5 5 5 5 96 100 100 100 100 100 100 100 100 100 100 100 100 100 100 100 100 100 100 100 83 87 99 81 38
82 54 76 100 100 100 100 100 86 87 78 93 55 5 5 5 6 5 5 31 92 100 100 77 94 26 48 13 5 58 100 100 100 100 100 100 100 100 100 100 100 100 100 100 100 100 100 100 98 100 98 89 89 99
100 100 100 100 48 61 97 35 24 8 86 75 18 16 9 84 99 82 81 100 100 100 100 100 100 100 50 10 14 5 14 55 100 100 100 100 100 100 90 95 99 100 100 100 100 100 98 91 94 100 100 99 81 86
74 56 80 100 100 100 100 100 98 55 50 62 11 66 44 8 13 99 100 100 100 100 100 100 100 100 42 56 14 25 5 25 21 74 98 100 100 100 100 100 100 100 100 100 89 82 89 98 97 90 82 71 54 52
98 100 100 66 54 32 63 48 32 29 48 67 6 11 20 7 3 85 100 100 88 46 100 100 100 100 46 52 46 70 44 24 58 60 25 37 69 76 83 71 72 69 70 79 86 91 98 99 94 77 84 97 82 60

GFSWCAN_prec_cloud_039.txt.gz
Cloud_Cover
94 94 77 52 10 7 5 5 87 32 5 5 5 5 5 73 6 28 52 100 17 5 5 7 98 100 78 97 100 100 76 75 86 50 5 5 24 20 17 15 14 5 16 45 100 100 100 88 100 100 100 100 100 100
98 100 100 8 48 53 49 5 46 6 7 91 5 5 49 76 15 59 96 7 98 55 5 5 46 100 90 97 99 100 100 100 100 100 100 47 22 82 5 21 24 81 26 7 30 100 100 100 100 100 100 100 100 100
100 100 97 99 61 88 36 5 5 13 92 99 100 8 100 94 86 13 5 11 66 93 13 84 65 80 100 99 100 100 100 100 100 100 100 100 85 66 96 15 28 46 78 98 95 51 53 98 90 100 100 100 91 100
100 100 75 94 75 75 28 5 5 5 5 100 42 11 100 100 12 19 69 84 43 51 56 100 91 74 100 100 100 96 100 100 100 100 99 100 100 96 89 87 73 92 88 71 98 92 86 81 100 100 100 84 78 75
100 100 100 100 100 93 95 49 5 5 94 41 53 98 100 85 5 7 8 23 88 64 94 100 98 100 100 100 100 100 100 100 100 100 100 100 100 100 100 68 100 100 100 86 100 89 75 96 99 100 73 84 10 6
100 100 100 100 100 100 31 5 5 5 5 5 48 100 27 5 5 5 54 98 30 100 100 100 100 100 100 100 100 100 100 100 100 100 100 100 100 74 100 100 100 100 100 99 43 90 100 100 73 50 59 66 89 18
100 100 100 100 100 91 90 92 16 5 5 5 5 11 5 15 7 5 27 43 66 99 100 100 100 100 100 100 100 100 100 100 100 100 100 100 100 78 46 88 100 100 95 74 98 96 100 96 100 100 72 39 66 43
100 100 100 100 100 100 98 41 16 5 5 5 2 2 5 16 12 7 12 22 26 100 100 100 100 100 100 100 100 100 100 100 100 100 100 100 100 86 30 5 5 61 100 100 78 100 90 93 100 100 100 66 5 11
100 100 100 100 100 100 71 100 5 32 5 5 3 5 5 22 40 27 6 66 67 69 100 100 100 100 100 100 100 100 100 100 100 100 100 100 90 17 18 0 2 42 100 100 100 100 100 98 95 100 100 100 46 5
100 100 100 100 100 100 100 100 51 5 5 5 5 5 8 5 5 6 80 94 100 100 99 100 100 100 100 100 100 100 100 100 100 100 99 21 6 89 99 26 100 81 100 100 100 100 100 100 100 100 100 87 84 35
100 100 100 100 100 99 78 92 51 11 14 5 15 69 5 5 78 38 100 84 64 28 85 82 100 100 100 100 100 100 100 100 100 92 91 91 100 100 96 99 96 86 100 100 100 100 100 100 100 100 100 100 100 86
100 100 100 100 100 76 91 40 100 92 13 5 5 32 66 97 39 12 68 45 16 50 48 95 93 100 100 100 100 100 100 100 100 100 100 100 100 99 100 100 100 98 100 100 100 100 100 100 100 100 100 100 100 100
100 100 100 100 100 98 100 100 100 8 11 12 5 21 5 6 6 1 5 5 11 68 14 14 37 99 100 100 100 100 100 100 100 100 100 100 77 98 100 100 100 100 100 100 100 100 100 100 100 100 100 100 100 100
100 100 100 100 100 100 100 100 100 100 94 47 12 5 6 5 5 7 5 5 8 40 31 24 84 66 89 100 100 100 100 100 100 100 100 100 100 100 100 100 100 100 100 100 100 100 100 100 100 100 100 100 100 79
100 100 100 100 100 100 100 100 100 99 68 76 5 5 5 5 48 61 98 21 7 20 39 36 78 35 96 100 100 100 100 100 100 100 100 100 100 100 98 100 100 100 100 100 100 100 100 100 100 100 100 100 100 80
100 100 100 100 100 100 100 100 100 99 98 92 62 25 8 18 7 65 82 75 16 14 22 58 80 90 40 100 100 100 100 100 100 100 100 100 100 100 100 97 71 97 100 100 100 100 100 100 100 100 100 100 100 95
100 100 100 100 100 100 100 100 100 100 100 100 99 24 61 66 21 31 6 6 5 5 67 9 56 12 60 87 100 100 100 100 100 100 99 98 100 100 100 100 100 100 100 100 100 100 100 100 100 92 67 52 82 93
100 100 100 100 100 100 100 100 100 100 100 100 100 80 5 5 5 5 5 4 6 12 39 72 100 100 81 73 8 99 100 100 100 100 100 100 100 100 100 100 100 100 100 100 100 100 100 100 100 100 100 100 100 100
100 100 100 100 100 100 100 100 100 100 100 100 99 89 23 8 5 5 5 5 5 9 89 100 100 100 52 5 5 5 97 100 100 100 100 100 100 100 100 100 100 100 100 100 100 100 100 100 100 100 100 100 97 100
100 100 100 100 100 100 100 100 100 100 100 72 35 67 53 16 5 14 8 6 80 98 100 100 100 83 23 2 4 8 11 76 100 100 100 100 100 100 100 100 100 100 100 100 100 100 100 100 99 100 100 100 100 100
100 100 100 100 100 100 100 100 100 98 100 72 60 52 31 65 57 83 63 9 94 97 100 100 100 16 2 2 2 5 5 5 97 100 100 100 100 100 100 100 100 100 100 100 100 100 100 100 100 100 100 100 100 100
100 100 100 100 100 100 100 88 69 79 60 46 39 80 92 72 83 87 73 98 90 100 100 82 5 3 5 5 5 5 6 97 8 97 100 100 100 100 100 99 78 100 100 100 100 100 96 73 71 99 100 94 90 83
100 100 100 100 100 100 99 97 100 80 76 66 73 34 37 91 70 86 100 70 100 100 43 5 5 5 5 36 80 88 51 100 87 13 100 100 100 100 100 100 81 97 95 86 85 95 98 100 100 92 59 22 33 30
100 100 100 100 99 79 90 94 97 90 90 100 95 94 97 87 97 98 91 100 89 6 5 5 15 32 84 100 100 100 100 100 100 86 9 100 100 100 100 100 82 35 87 97 100 99 68 51 94 97 95 42 36 45
100 100 100 100 95 97 95 100 100 99 100 94 98 84 83 60 39 99 100 32 5 5 5 5 6 95 100 100 100 100 100 100 96 92 86 51 58 100 100 100 100 100 94 100 100 98 86 64 57 9 61 82 45 8
87 90 98 67 98 96 92 98 95 69 68 90 92 75 65 76 100 72 9 5 5 15 98 85 82 100 100 100 100 96 89 82 46 45 100 73 100 100 90 99 100 100 87 98 100 91 97 37 5 5 5 14 83 58
79 77 99 100 100 100 100 100 44 33 100 93 66 99 52 41 35 5 5 19 17 52 86 98 99 100 100 100 87 50 5 38 63 72 97 100 100 100 100 100 100 88 100 100 99 87 96 99 30 5 5 6 5 20
64 59 100 100 100 100 78 57 58 55 7 51 36 85 17 10 5 5 5 11 93 34 6 32 97 100 73 78 57 5 5 13 42 97 100 100 100 100 100 100 100 100 100 100 100 100 100 95 84 69 79 22 51 73
88 100 100 84 99 98 19 5 5 72 100 78 24 47 22 5 5 5 3 7 12 5 7 47 81 31 5 6 26 5 14 66 7 100 100 100 100 100 100 100 100 100 100 100 100 100 100 100 100 100 100 88 69 69
84 66 62 73 66 41 6 95 20 40 36 30 19 12 5 6 28 79 95 95 84 82 87 26 48 98 95 51 41 78 30 10 5 100 100 100 100 100 100 100 100 100 100 100 100 100 100 100 100 100 100 100 92 98
10 96 100 93 32 16 78 78 60 5 28 6 36 20 2 4 5 7 95 100 100 100 88 9 93 100 100 100 100 100 8 34 69 95 100 100 100 100 100 100 100 100 100 100 100 100 100 100 100 96 97 98 96 87
90 85 74 95 42 20 32 50 58 41 55 80 10 35 8 6 5 5 33 100 100 99 24 21 100 100 100 100 100 93 32 53 50 26 23 99 100 100 100 100 100 100 100 100 100 100 100 100 100 100 100 99 89 71
99 100 100 98 57 69 35 6 37 43 36 72 44 8 22 8 1 4 6 39 28 32 5 27 100 100 100 100 100 74 62 64 92 98 95 51 17 38 70 64 64 61 57 69 78 85 100 100 100 99 97 94 79 68

GFSWCAN_prec_cloud_042.txt.gz
Cloud_Cover
100 100 100 100 8 45 46 6 62 5 5 65 31 12 37 5 5 5 5 5 8 5 4 5 75 100 78 100 100 56 75 41 83 37 52 52 5 5 12 60 58 80 67 46 100 100 85 93 100 64 53 100 87 100
100 100 98 37 100 100 5 5 5 5 28 100 100 96 100 48 7 5 5 5 95 6 5 5 61 91 88 84 100 80 80 100 100 100 97 95 75 88 5 7 5 54 96 89 97 100 100 93 98 84 98 97 100 100
100 100 100 100 100 80 20 5 5 5 5 5 5 5 98 21 5 5 8 53 19 6 5 5 65 99 93 82 99 100 100 99 100 100 100 100 100 73 63 5 8 5 6 98 100 100 99 100 100 92 100 100 100 100
100 99 100 100 100 100 42 5 48 11 5 5 5 5 6 11 5 5 54 6 6 37 44 25 30 95 72 100 76 100 100 100 100 100 100 100 100 100 100 100 100 97 92 84 54 95 86 100 85 100 100 100 100 100
100 65 100 100 100 100 100 92 99 80 73 5 5 6 6 5 5 4 0 5 5 4 5 10 25 84 100 100 85 93 100 100 100 100 100 100 100 92 100 100 100 99 96 18 99 32 100 100 100 100 86 74 81 86
100 100 100 100 100 100 100 100 100 100 87 40 5 5 5 0 5 5 70 6 5 5 32 5 28 100 90 100 100 98 100 100 100 100 100 100 100 100 100 100 100 100 100 99 99 98 74 100 100 71 90 100 96 73
100 100 100 100 100 100 96 92 100 100 100 98 7 5 2 4 0 2 5 10 5 5 6 8 11 69 99 100 100 100 100 100 100 100 100 100 100 100 100 100 100 95 99 84 100 100 95 100 100 100 100 91 86 89
100 100 100 100 100 100 78 100 100 100 100 93 96 26 5 2 0 5 5 23 6 13 13 30 6 45 73 100 100 100 100 100 100 100 100 100 97 100 100 81 63 2 3 4 93 83 100 100 98 89 100 99 100 98
100 100 100 100 100 100 100 100 100 100 100 100 100 9 5 3 2 2 7 100 90 7 48 10 77 67 94 79 94 100 100 100 100 100 100 100 100 100 100 100 98 16 93 89 43 100 91 100 100 100 100 100 64 100
100 100 100 100 100 100 100 100 99 100 100 100 79 50 5 5 5 5 14 93 98 99 27 10 51 44 25 98 100 100 100 100 100 100 100 100 100 100 100 100 42 7 98 100 100 100 100 100 100 100 100 100 100 100
100 100 100 100 100 100 100 94 99 100 100 99 96 25 6 5 5 15 90 92 69 10 60 88 51 96 13 81 85 100 100 100 100 100 100 100 100 100 100 100 100 96 100 98 100 100 100 100 100 100 100 100 100 100
100 100 100 100 100 100 100 96 100 100 97 83 75 28 9 28 28 22 78 30 18 13 39 84 10 20 12 90 100 100 100 100 100 100 100 100 100 100 100 94 100 100 100 100 100 100 100 100 100 100 100 100 100 100
100 100 100 100 100 100 100 100 100 25 74 42 86 33 6 6 9 5 5 4 12 44 33 37 50 10 8 96 100 100 100 100 100 100 100 100 100 100 100 100 100 100 100 100 100 100 100 100 100 100 100 100 100 100
100 100 100 100 100 100 98 66 98 13 80 96 93 85 87 20 13 21 9 6 5 97 23 54 98 50 6 65 74 100 99 100 100 100 100 100 100 100 100 96 100 100 100 100 100 100 100 100 100 100 100 100 100 100
100 100 100 100 100 100 36 38 94 91 29 76 76 98 62 20 57 71 99 41 8 34 34 32 95 49 64 87 48 93 100 100 100 100 100 100 100 100 100 100 74 97 84 100 100 100 100 100 100 100 100 100 100 100
100 100 100 100 100 100 88 100 100 66 100 100 100 100 83 75 40 73 94 55 16 16 25 92 99 100 99 100 100 100 100 90 100 100 100 100 100 100 100 100 97 82 100 100 100 100 100 100 100 100 100 100 100 100
100 100 100 100 100 100 100 96 51 76 100 100 100 100 100 73 83 42 44 46 5 5 23 61 72 7 94 95 100 65 79 5 42 100 100 100 100 100 100 100 100 100 100 100 100 100 100 100 100 100 100 100 100 100
100 100 100 100 100 100 100 100 95 100 100 100 100 100 100 100 99 49 15 13 6 13 11 32 50 99 72 77 13 5 66 69 97 80 100 100 98 100 100 100 100 100 100 100 100 100 100 100 100 100 100 100 98 89
100 100 100 100 100 100 100 100 98 100 100 100 100 100 100 100 99 92 72 52 5 5 5 96 100 86 5 5 5 48 58 43 58 5 64 100 98 97 100 100 100 100 100 100 100 100 100 100 100 100 100 100 90 68
100 100 100 100 100 100 100 100 100 100 100 100 100 100 99 52 53 33 40 8 26 63 86 98 27 5 5 5 66 96 17 6 5 5 4 40 86 57 100 100 100 100 100 100 100 100 100 100 100 100 100 100 95 88
100 100 100 100 100 100 100 100 100 100 100 100 100 100 99 94 72 90 87 49 100 80 57 63 5 12 6 17 11 5 5 5 5 5 5 4 60 10 100 100 100 100 100 100 100 100 100 100 100 92 100 100 100 100
100 100 100 100 100 100 100 100 100 100 100 98 97 97 100 67 80 88 82 100 82 21 76 5 42 100 95 93 5 5 13 98 83 85 68 22 5 92 74 100 100 100 100 100 100 100 100 100 100 100 100 91 69 82
100 100 100 100 100 100 100 100 100 100 98 92 90 37 33 92 91 92 100 90 21 38 5 20 9 5 4 4 5 8 81 100 100 100 100 94 53 8 100 100 100 100 100 100 78 95 100 100 100 100 100 100 99 97
100 100 100 100 100 100 100 100 100 100 96 96 100 91 20 54 97 100 96 5 4 5 6 5 7 9 8 9 30 100 100 27 95 100 100 83 100 78 76 100 100 100 100 100 92 100 89 70 55 78 65 72 54 35
100 100 100 100 100 100 100 100 97 99 98 95 100 81 65 90 54 99 49 5 5 5 5 34 57 46 16 11 33 77 98 88 100 100 100 91 100 85 87 96 100 97 100 100 100 100 100 80 97 90 62 47 34 50
100 100 100 100 100 100 100 98 98 82 89 100 74 57 76 80 99 54 5 5 5 5 5 62 98 90 95 100 100 100 100 100 100 100 100 100 100 71 96 38 80 100 100 100 100 100 96 88 68 59 37 9 9 5
100 100 100 100 100 99 61 41 10 39 100 83 62 99 85 95 8 5 5 5 5 5 12 6 40 83 49 91 100 97 58 98 93 95 100 100 40 79 25 93 96 92 100 100 97 98 76 94 82 70 64 7 5 5
99 100 100 100 93 82 32 67 68 59 5 14 36 88 14 5 5 5 5 5 5 12 6 5 5 5 5 1 24 100 100 66 62 94 96 100 13 28 6 99 100 100 97 89 100 100 95 89 86 88 78 32 6 40
100 100 100 100 100 100 92 100 61 5 21 5 5 5 5 5 5 5 5 9 47 6 5 1 2 16 5 5 6 5 6 69 57 52 51 88 22 5 92 100 100 100 100 100 100 100 99 100 100 100 97 84 78 89
100 100 100 100 78 54 69 28 80 26 39 9 5 12 15 6 5 22 5 5 5 4 2 2 5 5 38 95 100 100 81 5 16 10 68 70 50 43 90 100 100 100 100 100 100 100 100 89 84 95 98 98 79 81
95 70 54 40 28 34 100 98 78 5 42 5 44 30 2 5 5 5 3 1 0 5 5 2 5 15 13 95 100 100 100 59 68 54 95 78 53 81 70 100 100 100 100 100 100 100 100 100 100 100 100 100 100 100
91 68 76 100 81 10 6 40 65 63 52 84 28 61 8 6 5 5 5 5 5 5 1 2 5 5 6 88 100 100 100 85 99 99 88 39 5 55 68 86 93 100 100 100 100 100 100 100 100 100 100 100 100 100
100 100 100 97 75 14 32 13 18 29 22 73 44 23 6 8 1 4 6 39 0 1 3 5 5 5 5 100 100 100 100 90 98 100 97 98 99 53 85 61 65 64 60 58 63 68 95 100 100 100 99 97 88 80

GFSWCAN_prec_cloud_045.txt.gz
Cloud_Cover
100 100 100 96 100 52 71 16 93 5 5 5 5 5 5 5 5 4 4 5 5 5 5 5 5 22 24 22 97 100 48 17 35 14 24 82 25 17 17 41 99 100 82 53 72 96 98 69 68 13 49 11 28 71
100 100 100 99 83 96 97 100 33 5 5 5 5 5 5 5 5 5 4 5 10 4 5 5 1 5 11 65 97 100 100 92 94 100 91 64 79 87 5 5 5 50 80 99 99 99 83 96 93 66 100 100 99 100
100 100 100 98 99 100 100 100 22 92 5 80 10 5 14 5 5 5 0 10 1 4 5 5 5 4 25 12 31 100 100 100 93 93 78 79 100 45 11 5 5 5 12 87 69 94 80 37 43 68 100 100 100 100
100 100 100 100 100 100 99 86 85 100 86 100 76 5 8 5 5 5 3 20 4 5 5 29 5 5 5 34 26 90 100 100 96 100 100 100 100 100 100 100 77 80 8 5 12 5 5 5 42 88 82 92 100 100
100 100 100 100 100 100 100 100 62 99 100 89 7 3 4 2 12 3 4 20 5 3 5 5 5 5 5 5 11 97 100 100 100 100 100 100 100 100 100 100 100 100 31 5 80 8 70 99 93 99 100 100 100 100
100 100 100 100 100 100 100 94 97 100 100 100 6 0 0 0 0 0 5 5 6 5 5 5 5 5 30 40 31 24 65 99 100 100 100 100 100 100 100 100 98 100 100 100 100 100 31 100 82 100 100 100 100 100
100 100 100 100 100 100 100 100 100 100 100 32 5 5 0 0 1 0 4 32 18 5 5 5 5 5 5 8 96 53 50 78 99 100 100 100 100 100 100 100 100 100 100 60 59 99 100 100 89 100 90 86 64 76
100 100 100 100 100 100 100 100 100 100 100 66 9 8 3 1 0 0 5 7 2 5 5 14 5 5 5 8 78 100 100 82 100 100 100 100 100 100 100 100 100 100 100 57 62 70 82 99 100 96 100 100 100 63
100 100 100 100 100 100 100 100 100 100 100 100 74 16 5 4 3 3 5 9 5 4 47 19 98 52 5 5 91 100 97 98 46 84 100 100 100 100 100 100 100 100 100 71 63 100 78 50 100 98 100 98 99 100
100 100 100 100 100 100 100 100 100 100 100 100 100 88 23 8 5 5 17 5 11 80 8 10 84 63 64 17 81 97 85 100 100 98 98 100 100 100 100 100 100 100 100 100 100 100 100 100 100 100 100 100 100 100
100 100 100 100 100 100 100 100 100 100 100 100 100 94 40 9 13 5 15 16 27 5 27 70 32 51 27 92 99 95 100 100 99 100 100 100 100 100 100 100 100 100 100 100 100 100 100 100 100 100 100 100 100 100
100 100 100 100 100 100 100 100 100 96 100 100 100 76 23 83 48 22 68 12 5 5 10 22 10 22 9 97 100 100 97 92 100 100 100 100 100 100 100 100 100 94 100 100 100 100 100 100 100 100 100 100 100 100
100 100 100 100 100 100 100 100 100 100 100 100 100 100 90 79 100 85 5 5 12 7 47 68 32 16 5 81 67 100 100 100 100 100 100 100 100 100 100 100 100 100 95 100 100 100 100 100 100 100 100 100 100 100
100 100 100 100 100 100 100 100 100 100 100 100 96 78 98 96 100 8 5 5 5 99 55 75 85 82 10 64 97 100 99 99 100 100 100 100 100 100 100 100 100 100 100 100 100 100 100 100 100 100 100 84 100 100
100 100 100 100 100 100 100 100 100 100 98 87 100 100 100 100 98 69 86 78 23 59 23 19 56 57 86 99 92 100 99 99 20 6 79 98 100 100 100 100 100 100 100 100 100 89 100 100 100 100 100 100 100 100
100 100 100 100 100 100 100 100 100 100 100 100 100 94 100 30 7 99 100 76 20 14 65 61 52 94 95 100 100 100 100 95 5 24 5 9 3 56 100 100 100 100 100 100 100 100 100 100 100 100 100 100 100 100
100 100 100 100 100 100 100 100 100 100 100 100 100 100 81 57 35 38 12 7 5 5 15 46 6 6 77 100 93 100 99 5 5 3 10 8 1 2 38 88 100 100 100 100 100 100 100 100 100 100 100 100 100 100
100 100 100 100 100 100 100 100 100 100 100 92 100 75 5 14 9 22 26 83 35 10 5 20 26 86 79 67 5 5 52 75 89 100 48 4 5 5 5 32 58 100 100 100 100 100 100 100 100 100 100 100 100 100
100 100 100 100 100 100 100 100 100 100 100 100 72 37 24 50 100 82 55 64 9 14 8 22 77 76 5 5 5 5 29 21 5 4 5 5 5 5 5 5 30 100 100 100 100 100 100 100 100 100 100 100 100 100
100 100 100 100 100 100 100 100 100 100 100 100 81 78 74 100 100 49 93 46 95 56 65 88 25 5 5 4 5 5 5 5 5 5 2 0 4 5 32 5 5 97 100 100 100 100 100 100 100 100 100 100 100 100
100 100 100 100 100 100 100 100 100 100 100 97 96 97 100 100 92 92 84 84 91 96 71 5 5 5 5 5 5 5 5 5 5 5 5 4 94 83 100 69 5 5 100 100 100 100 100 100 100 100 100 100 100 100
100 100 100 100 100 100 100 100 100 100 100 100 92 100 99 89 78 98 97 100 100 38 16 5 5 2 0 3 5 5 5 5 5 71 99 87 98 100 100 99 19 9 65 100 100 100 100 100 100 100 100 100 100 100
100 100 100 100 100 84 100 100 100 100 97 88 100 100 100 97 100 96 99 100 98 6 8 5 5 8 5 4 5 5 5 5 48 97 100 100 100 100 100 98 20 30 40 98 100 100 100 100 100 100 100 92 91 87
100 100 100 100 100 100 100 100 100 100 100 100 100 100 100 99 94 100 98 49 5 5 22 5 5 5 5 11 18 6 37 76 85 89 100 83 72 100 100 98 75 95 57 100 100 100 100 100 100 100 100 97 86 84
100 100 98 100 100 100 100 100 100 100 100 100 100 100 100 99 100 100 86 5 10 5 5 6 66 17 5 61 99 99 100 100 100 100 100 100 48 61 100 97 100 100 100 96 100 100 100 100 100 100 98 100 89 78
100 100 100 100 100 100 100 100 100 100 100 100 98 100 100 100 100 56 10 5 5 5 5 5 5 28 5 8 11 66 99 98 74 46 99 98 30 17 100 100 100 100 100 54 99 100 100 100 100 100 100 50 45 45
100 100 100 100 100 100 100 100 100 100 99 100 100 100 89 66 44 5 5 5 5 5 5 72 71 5 0 0 0 1 5 5 5 7 100 100 98 5 86 100 100 97 67 100 99 100 100 100 100 100 100 96 91 47
100 100 100 100 100 100 100 100 100 100 100 76 58 95 18 6 5 5 5 5 5 5 5 5 5 5 5 0 0 4 5 7 36 5 100 100 100 34 69 100 100 99 99 100 100 100 100 100 100 100 100 100 100 99
100 100 100 100 100 100 100 100 98 86 16 5 5 5 5 5 5 5 3 5 59 7 5 1 0 5 5 5 7 7 19 60 31 16 74 100 100 9 53 100 98 63 95 100 100 100 100 100 100 86 90 91 98 89
100 100 98 100 100 100 67 6 5 10 42 10 10 5 14 8 5 6 5 5 5 3 0 0 1 5 4 2 7 100 100 35 5 5 33 100 20 42 45 100 100 100 100 100 100 100 100 100 100 100 96 88 91 85
100 100 100 100 97 49 6 52 55 5 56 30 54 40 2 5 5 5 2 1 0 0 4 5 2 4 5 5 15 30 74 99 82 57 88 80 65 46 12 60 73 100 100 100 100 100 100 100 100 100 100 100 99 100
100 100 100 100 89 44 11 75 71 68 79 99 78 68 33 6 8 5 5 14 5 8 2 2 4 0 4 44 54 60 9 95 100 100 74 80 65 41 77 68 95 94 99 100 100 100 100 100 100 93 82 63 49 50
100 100 100 96 75 49 43 6 18 10 31 58 39 51 37 20 5 4 7 22 0 1 1 4 5 5 5 5 5 32 34 100 100 100 96 95 100 96 98 87 57 51 43 71 68 67 77 79 99 100 100 99 100 98

GFSWCAN_prec_cloud_048.txt.gz
Cloud_Cover
100 100 100 100 100 100 100 99 86 100 56 11 62 100 100 100 100 7 4 4 2 5 5 5 5 5 5 5 38 98 96 84 97 35 14 5 6 41 58 20 26 78 71 46 34 74 60 10 30 20 44 24 13 37
100 100 100 100 100 100 100 97 100 85 100 100 31 100 100 100 100 74 0 0 0 2 5 0 4 5 5 5 5 20 9 100 100 98 91 62 23 80 5 5 5 10 73 99 84 17 5 24 5 28 46 7 34 13
100 100 100 100 100 99 98 95 100 94 80 100 100 100 100 100 100 8 8 40 0 5 5 5 5 0 1 5 5 56 98 100 67 71 66 75 99 66 26 5 5 5 5 84 74 34 10 6 19 69 100 100 97 79
100 100 100 100 100 100 100 100 100 100 100 100 100 100 100 97 12 96 18 44 2 5 5 5 5 5 5 5 12 67 34 95 100 100 71 41 55 79 84 62 41 19 32 5 5 2 5 14 22 69 100 100 100 84
100 100 100 100 100 100 100 100 100 100 100 100 100 100 100 100 91 83 19 31 0 3 5 5 5 5 5 5 5 5 34 71 100 100 100 100 100 82 100 100 100 100 74 28 36 5 15 51 4 4 6 78 97 100
100 100 100 100 100 100 100 100 100 100 100 100 100 100 100 100 88 35 5 5 4 0 5 5 5 5 5 5 88 5 5 86 100 100 100 100 100 100 100 100 100 100 100 100 100 100 58 100 98 5 64 99 90 70
100 100 100 100 100 100 100 100 100 100 100 100 100 50 85 100 98 23 11 4 0 0 5 5 5 4 5 5 23 46 36 95 86 99 100 100 100 100 100 100 100 100 100 100 100 100 100 100 100 73 80 37 99 99
100 100 100 100 100 100 100 100 100 100 100 100 100 97 100 100 97 14 52 5 2 4 5 24 5 5 5 5 62 100 100 95 70 95 100 100 100 100 100 100 100 100 100 100 100 95 100 100 100 100 100 97 91 100
100 100 100 100 100 100 100 100 100 100 100 100 100 100 83 36 99 37 5 5 5 3 33 48 83 42 5 5 66 100 92 17 5 43 97 100 100 100 100 100 100 100 100 100 100 100 100 100 100 100 100 100 100 100
100 100 100 100 100 100 100 100 100 100 100 100 100 100 68 100 46 6 5 5 22 5 6 47 97 64 5 7 77 52 93 89 60 60 100 100 100 100 100 100 100 100 100 100 100 100 100 100 100 100 100 100 100 95
100 100 100 100 100 100 100 100 100 100 100 100 100 100 100 61 42 95 29 7 15 5 15 7 16 11 24 29 54 41 95 93 85 100 100 98 100 100 100 100 100 100 100 100 100 100 100 100 100 100 100 100 100 100
100 100 100 100 100 100 100 100 100 100 100 100 100 100 100 100 100 83 73 99 68 5 17 31 11 22 6 35 96 71 73 78 80 96 95 100 100 100 100 100 100 100 100 100 100 100 100 100 100 100 100 100 100 100
100 100 100 100 100 100 100 100 100 100 100 100 100 100 100 88 90 100 100 100 11 11 52 71 5 17 5 10 24 93 93 71 100 100 88 84 97 96 100 100 100 100 100 100 100 100 100 100 100 100 100 100 100 100
100 100 100 100 100 100 100 100 100 100 100 100 100 100 93 69 100 100 100 70 53 94 96 77 54 84 39 79 98 95 39 96 100 70 14 5 2 2 5 23 71 99 99 100 100 100 100 100 100 100 100 100 100 100
100 100 100 100 100 100 100 100 100 100 100 100 100 97 82 100 100 100 100 100 69 98 50 62 28 44 55 100 99 96 97 98 57 7 74 5 3 0 0 3 5 6 24 82 100 100 100 100 100 100 100 100 100 98
100 100 100 100 100 100 100 100 100 100 100 100 100 100 100 100 100 100 100 100 81 70 72 11 37 45 88 100 98 85 59 60 48 14 22 5 3 0 1 5 5 5 5 7 92 100 100 100 100 100 100 100 100 100
100 100 100 100 100 100 100 100 100 100 100 100 100 100 100 100 100 99 30 85 40 22 14 54 4 6 58 100 86 98 93 9 100 7 7 7 5 5 5 5 5 5 5 5 5 80 100 100 100 100 100 100 100 100
100 100 100 100 100 100 100 100 100 100 100 100 99 100 100 100 100 100 92 47 69 72 5 9 20 78 84 58 5 5 26 74 85 50 32 5 5 5 5 5 5 5 5 5 5 77 100 100 100 100 100 100 100 100
100 100 100 100 100 100 100 100 100 100 100 100 100 100 100 100 100 95 94 96 100 90 15 74 84 86 11 5 5 5 10 28 4 5 5 5 5 5 5 5 5 5 5 5 6 46 100 100 100 100 100 100 100 100
100 100 100 100 100 100 100 100 100 100 100 100 100 93 89 75 63 47 34 100 100 50 82 92 46 63 44 8 5 5 5 4 5 5 1 0 1 4 5 31 16 5 18 90 47 5 100 100 100 100 100 100 100 100
100 100 100 100 100 100 100 100 100 100 100 100 99 69 80 100 99 100 98 96 94 68 66 5 99 42 5 5 5 5 5 5 5 5 4 5 3 5 33 96 99 100 100 84 40 49 100 100 100 100 100 100 100 100
100 100 100 100 100 100 100 100 100 100 66 99 100 96 97 98 98 98 92 100 81 5 7 100 40 5 5 16 5 5 5 5 5 5 5 5 5 24 100 93 84 100 100 96 41 90 100 100 100 100 100 100 100 100
100 100 100 100 100 100 100 100 100 100 100 100 85 89 100 87 86 89 99 99 44 85 100 82 9 25 32 5 5 5 5 5 5 5 5 5 5 9 78 100 100 45 66 100 64 95 100 100 100 100 100 100 100 100
100 100 100 100 100 100 100 100 100 100 100 75 98 100 85 58 86 99 98 40 51 100 60 9 55 24 21 22 36 5 80 18 5 5 48 5 5 42 75 97 91 94 100 100 100 100 100 100 100 100 100 100 100 100
100 100 100 100 100 100 100 100 100 100 96 100 99 100 78 96 91 100 86 58 71 11 55 6 57 21 5 5 5 5 5 5 5 5 16 33 32 82 16 80 98 100 100 98 100 100 100 100 100 100 100 100 100 100
100 100 100 100 100 98 100 100 96 84 94 100 81 89 100 82 98 94 99 69 28 5 35 23 1 5 4 5 5 1 0 5 7 35 1 5 13 5 6 100 100 100 71 100 100 100 100 100 100 100 100 100 100 100
96 100 100 100 100 100 100 80 34 23 100 100 87 100 96 69 69 100 77 14 5 5 5 5 5 4 0 0 2 5 5 5 4 0 1 5 5 5 4 98 100 100 100 100 100 100 100 100 100 100 100 100 100 100
100 100 100 100 100 100 39 81 100 100 89 45 35 91 32 99 100 80 49 45 8 5 5 5 5 5 5 4 3 2 4 28 52 74 54 98 100 19 5 97 100 100 100 100 100 100 100 100 100 100 100 100 100 100
100 100 100 99 94 98 94 24 18 16 5 44 63 40 89 99 100 100 100 70 47 6 4 0 0 5 5 34 8 5 5 77 55 17 6 33 100 64 64 96 100 100 100 96 84 100 100 100 100 100 99 100 100 100
100 100 99 79 95 94 89 36 30 66 35 26 55 55 90 100 100 100 91 16 5 0 0 4 2 14 5 5 5 4 7 6 5 5 5 33 100 94 36 56 73 78 99 71 80 100 100 100 100 100 100 100 90 92
100 100 100 98 100 92 60 77 97 68 57 60 95 100 99 98 89 53 8 3 0 4 5 5 5 8 5 6 43 23 5 22 57 24 60 86 100 95 83 49 64 85 100 100 100 100 100 100 100 100 100 100 100 100
84 99 100 100 93 73 38 85 79 73 91 100 80 98 33 6 8 5 5 16 5 5 4 2 5 2 4 5 5 6 6 53 59 57 12 94 100 100 99 94 80 62 65 74 68 80 100 100 100 100 100 100 100 100
100 99 100 93 85 53 52 36 7 26 25 54 37 53 50 31 5 5 6 41 10 4 6 5 5 12 5 5 5 37 36 39 92 86 98 100 100 97 99 100 90 78 70 61 56 61 77 90 94 100 100 97 98 97

GFSWCAN_prec_cloud_051.txt.gz
Cloud_Cover
100 100 100 100 100 100 100 100 100 100 100 100 100 100 98 99 58 100 100 7 30 5 5 5 5 5 3 5 10 50 21 26 81 58 74 22 10 39 50 36 93 95 93 77 98 99 76 42 62 74 59 21 63 5
100 100 100 100 100 100 100 100 100 100 100 100 100 100 100 91 100 100 100 61 4 5 81 5 5 5 5 5 5 5 32 100 41 94 96 57 69 77 27 5 26 28 84 98 69 77 92 68 89 99 94 98 71 68
100 100 100 100 100 100 100 100 100 100 100 100 100 100 100 100 100 100 90 57 2 32 54 5 5 2 0 2 5 0 5 5 40 97 100 100 37 73 14 6 7 21 56 69 42 17 10 78 98 38 50 91 53 94
100 100 100 100 100 100 100 100 100 100 100 80 100 100 100 100 100 100 99 90 12 100 5 5 5 5 5 5 5 4 1 5 5 97 100 100 98 26 96 82 46 72 39 16 5 5 41 29 5 5 58 99 99 100
100 100 100 100 100 100 100 100 100 100 100 100 100 100 100 100 100 100 100 100 100 100 5 5 5 5 5 5 5 5 5 5 5 40 100 100 100 100 96 78 53 96 100 78 69 20 65 96 92 84 32 19 99 93
100 100 100 100 100 100 100 100 100 100 100 100 100 100 100 100 100 100 98 100 100 100 8 5 5 6 5 5 5 5 5 54 5 6 58 92 100 100 100 100 100 100 100 100 100 100 100 100 100 100 100 100 83 100
100 100 100 100 100 100 100 100 100 100 100 100 100 100 100 100 100 100 100 100 100 14 18 87 5 5 5 5 5 37 20 5 5 5 20 97 100 98 100 100 100 100 100 100 100 100 100 100 100 100 100 100 100 100
100 100 100 100 100 100 100 100 100 100 100 100 100 100 100 100 100 100 100 100 92 98 98 78 16 5 5 5 88 24 5 16 18 7 43 68 74 100 100 100 100 100 100 100 100 100 100 100 100 100 100 100 100 100
100 100 100 100 100 100 100 100 100 100 100 100 100 100 100 100 100 100 100 95 36 100 61 72 20 2 5 5 45 100 5 19 8 6 5 10 27 46 98 100 100 100 100 100 100 100 100 100 100 100 100 100 100 100
100 100 100 100 100 100 100 100 100 100 100 100 100 100 100 100 100 100 100 21 96 5 14 51 73 46 5 5 62 61 42 33 75 40 32 24 76 5 5 59 100 100 100 100 100 100 100 100 100 100 100 100 100 100
100 100 100 100 100 100 100 100 100 100 100 100 100 100 100 100 100 100 23 11 8 53 90 58 22 5 5 14 34 58 98 72 60 5 66 74 50 6 5 5 5 22 69 99 100 100 100 100 100 100 100 100 100 100
100 100 100 100 100 100 100 100 100 100 100 100 100 100 100 100 100 100 38 100 84 100 100 94 17 24 9 24 100 96 84 91 76 74 90 88 9 5 5 14 5 4 5 5 5 67 100 100 100 100 100 100 99 100
100 100 100 100 100 100 100 100 100 100 100 100 100 100 100 95 94 100 100 47 95 100 76 100 53 12 18 16 56 98 100 99 97 100 34 5 4 20 0 4 3 0 4 5 5 5 9 100 100 100 100 100 89 100
100 100 100 100 100 100 100 100 100 100 100 100 100 100 95 92 100 100 100 100 97 98 100 99 53 82 72 75 67 92 74 98 100 98 60 31 6 4 1 0 4 5 5 5 5 5 5 5 74 100 100 100 89 100
100 100 100 100 100 100 100 100 100 100 100 100 100 100 100 87 99 100 100 100 95 100 100 86 48 31 47 98 99 92 89 97 100 83 22 48 5 16 0 5 5 5 5 5 5 5 5 5 17 90 100 100 100 88
100 100 100 100 100 100 100 100 100 100 100 100 100 100 100 100 100 100 100 100 100 100 100 77 60 98 72 95 97 100 76 100 56 47 83 100 28 6 5 5 5 5 5 5 5 5 5 5 6 70 100 100 100 100
100 100 100 100 100 100 100 100 100 100 100 100 100 100 100 100 100 100 100 100 100 100 100 26 53 63 55 99 82 88 100 100 90 100 100 100 97 5 5 5 5 5 5 5 5 5 5 5 68 99 100 100 100 100
100 100 100 100 100 100 100 100 100 100 100 100 100 100 100 100 100 100 100 100 100 100 81 6 32 78 59 76 85 34 52 71 64 100 100 100 7 5 5 5 5 5 5 5 5 5 6 9 61 100 100 100 100 100
100 100 100 100 100 100 100 100 100 100 100 100 100 100 100 100 100 100 100 100 100 100 72 82 84 100 22 5 5 5 54 96 100 100 100 46 5 5 5 5 5 5 58 98 98 72 65 97 66 82 100 100 100 100
100 100 100 100 100 100 100 100 100 100 100 100 100 100 100 100 100 100 100 100 100 82 86 91 81 70 33 5 5 10 100 100 100 83 13 15 5 4 5 5 5 9 96 100 100 100 100 100 100 95 99 100 100 100
100 100 100 100 100 100 100 100 100 100 100 100 100 100 100 100 100 100 100 100 92 86 71 73 5 16 5 5 5 7 54 22 7 7 5 4 3 5 5 5 5 43 51 46 100 57 100 100 100 100 100 100 100 100
100 100 100 100 100 100 100 100 100 100 100 100 100 99 100 100 100 100 97 100 99 13 5 5 5 5 3 5 5 25 47 68 6 6 5 5 5 5 5 5 10 5 99 72 18 16 100 100 100 100 100 100 100 100
100 100 100 100 100 100 100 100 100 100 100 100 81 44 84 100 100 87 99 99 21 6 18 54 20 8 5 5 56 93 70 10 5 5 5 5 5 5 5 88 100 36 5 91 5 86 100 100 97 93 100 100 100 100
100 100 100 100 100 100 100 100 100 100 88 99 100 100 100 100 91 96 94 49 10 24 74 98 62 5 23 64 88 7 5 8 5 5 5 5 5 0 4 20 96 100 42 5 98 100 100 30 5 44 100 100 100 100
100 100 100 100 100 100 100 100 100 100 100 100 100 100 98 96 81 100 86 5 18 57 24 7 8 5 12 5 5 11 5 5 5 4 3 5 5 5 3 5 5 100 17 13 100 100 96 46 62 63 100 100 100 100
100 100 100 100 100 100 100 100 100 100 100 100 100 93 98 89 100 100 50 5 5 5 5 5 5 15 17 7 5 42 44 5 9 18 0 5 5 5 5 5 5 100 56 94 100 100 100 65 96 100 100 100 100 100
100 100 100 100 100 100 100 100 100 100 100 100 97 100 98 48 53 74 13 5 5 5 5 4 6 26 5 5 52 22 5 13 5 0 3 5 5 5 5 5 8 96 100 100 100 100 100 97 98 100 100 100 100 100
100 100 100 100 100 100 100 100 100 100 100 37 31 98 38 45 8 21 5 5 5 5 5 5 5 5 5 5 3 3 5 26 52 22 5 5 45 59 53 70 63 100 100 48 82 100 100 100 100 83 95 83 100 100
100 100 100 100 100 100 100 100 99 56 6 5 5 5 5 5 5 5 4 5 43 6 4 1 4 15 20 5 5 5 5 73 24 5 4 3 5 5 66 61 41 100 100 81 30 91 100 100 100 100 100 100 83 96
100 100 100 99 98 90 74 59 9 34 39 10 10 5 14 8 5 26 5 5 3 0 1 5 5 9 5 5 5 5 16 6 5 5 5 2 4 17 67 56 57 75 100 100 82 83 87 100 100 100 99 100 99 92
100 100 99 100 100 93 55 56 63 5 64 73 68 28 5 35 23 5 5 5 5 5 5 5 5 42 5 7 40 5 3 19 32 16 17 69 71 63 58 60 65 75 90 75 73 73 78 76 98 100 100 100 100 99
100 100 99 100 99 100 90 88 83 69 85 100 92 98 33 57 9 5 37 23 5 5 4 4 38 5 5 34 50 26 9 58 72 53 56 48 56 6 58 90 100 98 74 59 64 58 54 64 75 86 96 96 98 98
98 93 100 100 100 100 90 58 26 30 38 30 37 56 44 35 5 5 30 42 10 13 15 9 5 5 5 5 24 42 42 29 96 76 97 90 99 91 98 98 100 99 100 88 84 94 92 100 96 93 91 94 96 94

GFSWCAN_prec_cloud_054.txt.gz
Cloud_Cover
100 100 100 100 100 100 100 100 100 100 100 100 100 100 100 100 100 84 82 60 100 99 36 100 23 5 5 5 5 6 10 6 16 39 14 9 21 5 26 39 64 80 77 89 90 89 73 99 84 70 19 59 50 18
100 100 100 100 100 100 100 100 100 100 100 100 100 100 100 100 100 77 75 62 100 100 8 100 70 5 65 2 5 5 6 75 13 55 47 92 100 69 5 86 60 92 65 77 40 99 100 80 100 96 95 100 100 89
100 100 100 100 100 100 100 100 100 100 100 100 100 100 100 100 100 100 99 73 100 9 19 35 100 95 49 28 4 5 5 5 5 9 91 83 90 100 68 16 22 97 78 86 5 5 5 56 56 68 100 100 74 82
100 100 100 100 100 100 100 100 100 100 100 100 100 100 100 100 100 96 99 100 92 35 89 100 100 22 63 5 98 5 0 5 5 13 67 100 100 100 100 65 12 79 92 36 9 5 5 5 5 5 33 55 100 87
100 100 100 100 100 100 100 100 100 100 100 100 100 100 100 100 100 94 55 100 91 59 88 100 95 100 56 38 100 24 5 3 5 5 5 41 86 42 66 80 99 96 100 100 84 53 54 65 85 76 71 23 77 100
100 100 100 100 100 100 100 100 100 100 100 100 100 100 100 100 99 80 100 45 69 9 100 100 98 85 5 42 100 6 5 5 5 5 5 8 95 90 93 89 46 98 100 100 100 100 100 100 100 100 100 100 100 100
100 100 100 100 100 100 100 100 100 100 100 100 100 100 100 100 100 88 100 42 64 33 99 50 100 21 6 15 26 6 5 5 5 70 5 5 5 5 21 5 5 76 71 100 100 100 100 100 100 100 100 100 100 100
100 100 100 100 100 100 100 100 100 100 100 100 100 100 100 100 100 100 100 90 18 100 82 100 100 85 5 19 96 40 6 5 6 26 62 8 5 6 17 69 90 99 48 100 100 100 100 100 100 100 100 100 100 100
100 100 100 100 100 100 100 100 100 100 100 100 100 100 100 100 100 100 98 89 100 54 100 100 100 98 77 28 99 79 8 7 5 8 40 7 22 27 4 5 5 6 42 98 90 65 25 90 100 100 100 100 100 100
100 100 100 100 100 100 100 100 100 100 100 100 100 100 100 100 100 100 100 98 67 100 100 100 100 70 33 6 41 99 70 60 22 21 46 37 6 2 5 7 20 30 5 71 100 53 70 100 100 100 100 100 100 100
100 100 100 100 100 100 100 100 100 100 100 100 100 100 100 100 100 100 100 82 24 98 98 100 98 88 55 8 31 46 98 94 44 65 58 65 10 0 1 4 4 5 5 5 29 40 44 5 5 74 96 100 100 100
100 100 100 100 100 100 100 100 100 100 100 100 100 100 100 100 100 100 100 8 93 50 82 98 100 100 24 33 100 88 93 79 85 90 82 99 11 25 3 2 2 1 5 5 5 5 5 5 5 8 80 100 100 100
100 100 100 100 100 100 100 100 100 100 100 100 100 100 100 100 100 100 90 5 5 81 100 98 58 14 28 37 92 98 96 97 85 94 100 99 99 99 97 98 54 6 5 5 26 5 5 5 5 5 5 27 85 79
100 100 100 100 100 100 100 100 100 100 100 100 100 100 100 100 100 100 79 78 36 41 98 34 98 86 94 62 42 16 71 91 97 97 100 100 100 100 100 98 65 100 100 100 100 65 5 5 5 5 5 5 94 76
100 100 100 100 100 100 100 100 100 100 100 100 100 100 100 100 97 68 100 100 81 65 95 89 60 13 33 68 86 65 85 94 89 90 100 100 100 100 73 98 100 100 100 100 100 30 5 5 5 5 5 5 38 100
100 100 100 100 100 100 100 100 100 100 100 100 100 100 100 100 94 100 98 99 96 40 79 100 100 83 86 100 75 90 68 50 47 87 88 90 93 100 100 100 100 100 100 82 23 0 0 1 4 5 29 93 96 100
100 100 100 100 100 100 100 100 100 100 100 100 100 100 100 100 100 100 100 91 52 83 55 100 51 9 77 100 100 100 40 40 46 27 36 38 100 100 100 100 100 97 7 5 0 5 25 61 5 5 5 5 99 100
100 100 100 100 100 100 100 100 100 100 100 100 100 100 100 100 100 100 100 100 50 16 93 91 42 97 100 95 25 26 12 33 26 45 67 82 96 95 100 75 46 4 5 5 5 6 7 81 100 83 100 100 100 100
100 100 100 100 100 100 100 100 100 100 100 100 100 100 100 100 100 100 100 100 100 100 100 100 99 100 100 43 21 5 70 66 91 49 54 89 98 84 11 5 5 5 5 5 7 68 86 100 100 97 100 100 100 100
100 100 100 100 100 100 100 100 100 100 100 100 100 100 100 100 100 100 100 100 100 78 100 100 99 100 78 25 6 82 24 79 21 5 66 78 15 5 5 4 1 1 5 6 28 100 77 100 100 100 100 100 100 100
100 100 100 100 100 100 100 100 100 100 100 100 98 51 100 100 100 100 100 100 100 87 100 100 100 100 93 70 72 19 65 15 2 5 5 5 5 5 5 5 2 5 5 8 5 63 100 53 98 100 100 100 100 100
100 100 100 100 100 100 100 100 100 100 100 100 100 100 100 100 100 100 100 100 100 100 100 100 100 96 45 31 5 5 5 3 4 5 5 4 5 0 1 0 0 2 17 99 98 32 88 90 98 100 100 100 100 100
100 100 100 100 100 100 100 100 100 100 100 100 100 100 100 100 100 100 100 100 100 100 100 100 53 12 5 5 5 5 5 5 5 5 3 0 0 1 5 2 0 5 5 14 100 100 100 93 5 43 98 44 100 100
100 100 100 100 100 100 100 100 100 100 100 100 100 100 100 100 100 100 100 100 85 75 72 13 5 5 27 8 19 5 0 4 1 5 5 0 0 0 0 0 0 0 2 1 4 84 100 97 50 100 100 14 100 52
100 100 100 100 100 100 100 100 100 100 100 100 100 100 100 100 100 100 100 40 78 93 5 5 5 5 5 5 5 0 1 5 5 5 0 0 0 0 0 0 0 4 5 5 5 14 100 96 100 100 97 83 85 78
100 100 100 100 100 100 100 100 100 100 100 100 100 100 100 100 100 100 100 100 83 6 4 1 4 5 18 7 0 2 5 5 4 3 0 0 0 2 5 5 5 2 6 6 66 71 100 99 100 100 100 100 100 95
100 100 100 100 100 100 100 100 100 100 100 100 100 100 100 100 100 80 91 78 14 4 0 3 5 4 0 0 2 5 5 5 4 0 1 5 5 5 5 5 5 3 5 29 94 91 100 100 100 100 100 100 100 100
100 100 100 100 100 100 100 100 100 100 100 100 100 100 100 85 47 8 6 5 4 5 5 5 5 5 1 4 5 5 5 5 5 5 5 5 5 5 5 5 13 8 5 7 74 100 100 100 100 100 100 100 100 100
100 100 100 100 100 100 100 100 100 100 100 100 100 100 97 75 23 5 5 5 5 5 4 0 4 5 5 5 5 5 5 5 5 5 0 0 2 4 16 5 5 5 38 55 22 96 100 98 100 100 99 100 100 100
100 100 100 100 100 100 100 100 100 100 100 99 96 66 61 88 22 5 5 5 3 1 4 4 5 5 5 5 5 5 5 5 5 5 4 1 3 5 5 5 5 6 54 70 87 72 100 32 100 100 92 94 100 97
100 100 100 100 100 100 100 100 100 97 100 92 72 38 16 25 69 10 5 4 5 5 5 5 5 6 5 5 6 5 1 5 5 5 6 6 8 50 5 5 53 89 90 94 100 92 65 22 67 74 81 92 98 95
100 100 100 100 100 100 95 84 92 71 79 79 97 92 9 6 8 5 8 13 5 5 18 4 5 5 5 5 5 5 5 33 8 5 41 6 6 15 29 78 100 100 97 94 85 90 91 96 93 89 82 79 88 88
100 100 100 100 100 99 92 98 58 30 42 19 19 53 51 41 5 5 6 5 5 5 5 5 5 5 5 5 18 25 30 31 96 90 96 91 95 97 99 100 100 100 100 98 76 86 90 99 96 93 90 87 80 75

GFSWCAN_prec_cloud_057.txt.gz
Cloud_Cover
100 100 100 100 100 100 100 100 100 100 100 100 100 100 100 100 100 100 30 97 5 99 6 5 74 100 19 5 47 6 5 6 10 50 61 86 96 73 42 26 62 87 97 100 100 100 97 100 58 63 44 8 53 24
100 100 100 100 100 100 100 100 100 100 100 100 100 100 100 100 100 95 95 88 45 86 10 14 96 100 77 16 38 5 10 5 6 56 5 5 12 8 27 82 5 53 19 81 37 86 5 26 94 83 91 100 98 32
100 100 100 100 100 100 100 100 100 100 100 100 100 100 100 100 100 100 28 62 50 76 8 28 100 80 8 39 94 91 5 5 5 5 14 53 59 25 52 75 44 93 71 55 34 14 31 38 79 84 100 100 96 93
100 100 100 100 100 100 100 100 100 100 100 100 100 100 100 100 100 100 96 98 98 89 46 11 6 82 100 100 100 100 22 4 2 5 7 49 23 8 7 17 12 92 100 100 24 5 5 6 16 71 66 72 100 100
100 100 100 100 100 100 100 100 100 100 100 100 100 100 100 100 100 100 99 93 100 43 14 7 5 5 46 100 100 100 42 5 5 4 4 5 5 23 81 99 96 100 92 100 100 75 32 5 15 100 100 100 100 100
100 100 100 100 100 100 100 100 100 100 100 100 100 100 100 100 100 100 100 49 6 46 45 20 6 36 100 72 100 69 66 38 7 5 5 5 5 5 4 5 31 68 79 98 100 96 100 100 72 100 100 100 100 100
100 100 100 100 100 100 100 100 100 100 100 100 100 100 100 100 100 100 100 73 26 89 72 25 16 76 100 93 100 100 99 57 5 4 5 5 9 5 5 5 3 5 14 30 95 100 100 100 100 100 100 100 100 100
100 100 100 100 100 100 100 100 100 100 100 100 100 100 100 100 100 100 100 100 100 87 10 29 62 66 92 92 100 100 99 26 15 29 5 10 83 73 6 5 5 5 5 5 21 71 99 100 77 99 100 100 100 100
100 100 100 100 100 100 100 100 100 100 100 100 100 100 100 100 100 100 100 100 49 30 38 99 6 58 52 100 100 100 91 64 10 60 19 16 59 46 11 91 0 5 5 5 5 5 5 5 10 86 100 99 100 100
100 100 100 100 100 100 100 100 100 100 100 100 100 100 100 100 100 100 100 100 100 84 78 52 5 44 100 52 100 95 100 98 98 54 11 6 90 17 17 78 3 1 0 2 5 5 5 5 5 5 5 32 98 100
100 100 100 100 100 100 100 100 100 100 100 100 100 100 100 100 100 100 100 100 100 100 44 5 5 27 100 100 70 96 100 100 100 98 99 93 20 7 5 85 60 2 0 1 0 3 5 5 5 5 5 5 5 25
100 100 100 100 100 100 100 100 100 100 100 100 100 100 100 100 100 100 100 100 100 97 41 14 9 100 100 100 85 83 96 96 100 81 98 100 71 5 5 32 23 94 85 67 12 52 84 59 19 5 6 5 5 5
100 100 100 100 100 100 100 100 100 100 100 100 100 100 100 100 100 100 100 100 98 50 50 5 73 100 100 98 100 92 78 89 58 86 79 97 28 29 75 37 5 30 100 100 100 100 100 100 100 100 53 64 61 5
100 100 100 100 100 100 100 100 100 100 100 100 100 100 100 100 100 100 100 100 68 9 10 6 18 100 96 84 97 79 43 84 92 93 82 52 38 14 5 50 6 5 5 49 100 100 100 100 100 100 99 42 5 5
100 100 100 100 100 100 100 100 100 100 100 100 100 100 100 100 100 100 100 99 63 38 5 55 86 43 57 21 10 13 45 94 66 82 31 87 46 5 5 5 17 5 35 34 100 100 100 89 41 2 0 3 5 5
100 100 100 100 100 100 100 100 100 100 100 100 100 100 100 100 100 100 100 100 95 52 63 91 83 96 100 59 14 16 51 49 89 100 77 78 50 48 7 5 5 4 23 96 75 73 8 0 0 1 0 15 41 68
100 100 100 100 100 100 100 100 100 100 100 100 100 100 100 100 100 100 100 97 51 23 10 94 100 100 26 28 22 6 99 97 98 100 86 37 80 5 24 75 5 5 3 5 5 0 0 5 5 38 5 96 100 100
100 100 100 100 100 100 100 100 100 100 100 100 100 100 100 100 100 100 100 93 94 43 100 98 100 100 100 100 66 100 75 63 99 41 48 13 10 5 5 6 0 0 0 1 5 5 5 5 6 98 72 100 100 100
100 100 100 100 100 100 100 100 100 100 100 100 100 100 100 100 100 100 93 82 64 88 84 99 100 100 100 100 100 75 82 97 11 17 5 5 5 5 5 3 5 4 5 5 2 0 0 1 78 14 37 76 100 100
100 100 100 100 100 100 100 100 100 100 100 100 100 100 100 100 97 99 100 100 77 100 100 100 100 100 100 73 10 48 92 85 17 5 5 2 5 4 2 3 0 1 1 0 0 1 49 25 98 97 52 33 81 98
100 100 100 100 100 100 100 100 100 100 100 100 100 100 100 100 100 100 100 100 92 100 100 100 100 100 85 72 97 100 40 44 19 5 5 5 5 1 3 2 2 0 0 0 0 0 0 95 100 100 100 97 5 44
100 100 100 100 100 100 100 100 100 100 100 100 100 100 100 91 83 96 100 100 100 98 100 98 100 100 97 100 100 96 34 5 5 0 1 0 0 0 0 0 0 2 4 5 5 5 5 5 5 73 100 100 6 15
100 100 100 100 100 100 100 100 100 100 100 100 100 100 100 83 91 100 100 100 100 100 100 100 100 100 98 88 40 65 5 5 2 0 2 4 0 0 0 0 0 2 1 0 0 4 5 5 6 40 100 99 88 100
100 100 100 100 100 100 100 100 100 100 100 100 100 100 100 100 100 100 100 100 100 100 100 100 100 99 28 12 6 5 4 0 0 2 0 0 0 0 0 0 0 0 0 0 2 5 5 5 22 32 100 100 100 100
100 100 100 100 100 100 100 100 100 100 100 100 100 100 100 100 100 100 100 100 100 100 100 100 26 6 9 5 8 5 1 0 4 1 0 0 0 0 0 0 0 0 0 4 5 5 5 5 11 71 100 100 100 100
100 100 100 100 100 100 100 100 100 100 100 100 100 100 100 100 100 100 100 100 100 100 100 94 100 100 88 47 6 4 0 1 5 4 1 0 0 0 5 4 3 2 1 5 5 19 71 65 84 62 95 100 100 100
100 100 100 100 100 100 100 100 100 100 100 100 100 100 100 100 100 92 91 100 100 100 100 100 98 59 27 5 5 5 5 4 5 0 0 0 0 1 5 5 5 5 5 5 20 78 93 92 100 100 100 100 100 100
100 100 100 100 100 100 100 100 100 100 100 100 100 100 100 100 100 100 100 100 92 82 76 5 5 5 5 5 0 2 5 5 5 5 5 5 5 5 5 5 5 5 5 5 15 97 100 100 100 100 100 100 100 100
100 100 100 100 100 100 100 100 100 100 100 100 100 100 100 98 52 99 100 96 82 7 5 5 4 5 5 5 5 5 5 5 5 5 0 0 0 4 5 5 5 5 6 16 16 81 94 100 100 100 99 100 100 100
100 100 100 100 100 100 100 100 100 100 100 100 100 78 96 91 58 38 34 36 30 5 5 5 5 5 5 5 5 5 5 5 5 5 5 3 4 5 5 5 5 5 53 89 85 55 30 34 15 21 53 100 100 100
100 100 100 100 100 100 100 100 100 100 100 100 95 100 100 97 81 51 58 14 5 5 5 5 5 5 5 5 5 5 2 13 44 5 13 5 5 5 5 5 35 86 99 93 99 89 80 71 100 93 59 92 99 100
100 100 100 100 100 100 100 100 100 100 100 100 100 100 97 53 25 5 5 5 5 5 5 5 5 5 5 5 5 5 5 5 5 5 12 54 78 29 81 94 100 100 100 100 100 86 75 80 92 86 86 71 65 72
100 100 100 100 100 100 100 100 100 100 100 100 100 97 60 25 6 5 5 5 5 5 5 5 5 5 5 5 5 5 24 19 70 92 96 96 100 100 100 100 100 100 100 100 96 74 62 64 67 69 71 75 69 63

GFSWCAN_prec_cloud_060.txt.gz
Cloud_Cover
100 100 100 100 100 100 100 100 100 100 100 100 100 100 100 100 100 100 100 99 100 38 44 5 5 5 5 5 98 5 5 5 5 53 20 25 46 9 30 27 61 6 5 5 5 56 48 60 74 76 36 66 5 26
100 100 100 100 100 100 100 100 100 100 100 100 100 100 100 100 100 100 100 100 100 92 57 5 5 5 5 21 82 5 5 5 5 80 5 5 5 5 16 83 5 8 6 33 37 23 5 57 15 20 94 100 58 29
100 100 100 100 100 100 100 100 100 100 100 100 100 100 100 100 100 78 100 100 53 72 5 5 5 5 5 36 58 5 12 23 4 4 5 5 5 5 5 5 5 5 63 5 2 5 5 5 5 6 6 5 8 22
100 100 100 100 100 100 100 100 100 100 100 100 100 100 100 100 84 100 100 100 54 58 73 17 6 5 5 5 5 5 60 5 5 0 5 5 5 1 5 4 3 5 24 4 4 33 100 89 56 60 66 77 100 100
100 100 100 100 100 100 100 100 100 100 100 100 100 100 100 100 100 100 100 100 68 80 6 14 5 5 8 1 5 30 5 4 5 0 3 4 4 0 0 1 1 15 5 46 94 99 100 100 100 100 100 100 99 100
100 100 100 100 100 100 100 100 100 100 100 100 100 100 100 100 100 100 98 96 100 100 13 46 36 22 82 5 12 100 5 63 5 5 5 5 4 3 2 1 0 0 3 4 5 5 20 77 100 100 100 100 100 100
100 100 100 100 100 100 100 100 100 100 100 100 100 100 100 100 100 100 85 100 100 100 76 90 86 5 75 7 10 92 85 100 18 5 5 5 24 5 5 1 0 0 5 5 3 5 12 39 85 69 84 100 100 100
100 100 100 100 100 100 100 100 100 100 100 100 100 100 100 100 100 99 100 100 100 100 100 96 19 6 22 98 88 100 100 100 6 6 74 5 28 57 26 5 4 4 8 2 5 4 5 5 4 2 0 0 3 15
100 100 100 100 100 100 100 100 100 100 100 100 100 100 100 100 100 98 100 92 100 100 100 100 74 8 68 90 98 100 100 89 6 6 14 20 26 59 15 6 5 6 47 5 5 34 3 0 0 2 3 5 13 4
100 100 100 100 100 100 100 100 100 100 100 100 100 100 100 100 100 100 100 99 91 100 100 58 100 100 82 83 100 100 100 100 97 67 74 99 5 10 5 5 26 8 8 5 5 44 5 4 0 5 5 1 2 5
100 100 100 100 100 100 100 100 100 100 100 100 100 100 100 100 100 100 100 86 100 97 96 13 100 100 100 88 98 100 100 100 100 100 100 94 64 6 5 5 1 5 5 5 4 36 7 5 5 5 5 36 6 2
100 100 100 100 100 100 100 100 100 100 100 100 100 100 100 100 100 100 93 100 100 40 58 98 100 100 100 21 97 100 100 100 94 99 100 100 88 83 15 5 3 5 5 5 5 18 77 79 6 5 3 4 5 3
100 100 100 100 100 100 100 100 100 100 100 100 100 100 100 100 100 100 100 100 100 100 93 100 100 82 83 92 100 100 100 100 58 100 100 93 76 5 5 5 5 7 25 5 4 2 0 0 1 4 5 5 5 5
100 100 100 100 100 100 100 100 100 99 53 100 100 100 100 100 100 100 99 100 100 100 100 100 84 74 100 83 84 100 100 97 97 77 56 20 20 6 24 17 21 7 4 4 4 4 5 5 5 5 22 6 5 5
100 100 100 100 100 100 100 100 100 78 95 100 100 100 100 100 100 100 100 100 100 100 100 100 100 96 100 35 32 54 68 100 100 85 22 5 5 51 70 52 5 4 4 1 5 2 1 4 5 5 3 3 0 0
100 100 100 100 100 100 100 100 100 100 100 100 100 100 100 100 100 100 100 100 100 100 98 98 79 97 96 14 48 94 100 94 52 6 6 29 72 46 85 5 5 2 5 0 0 0 0 0 1 0 0 0 4 5
100 100 100 100 100 100 100 100 100 100 100 100 100 100 100 100 100 100 100 100 95 100 100 100 100 100 80 100 92 99 27 7 7 90 9 15 94 89 51 8 5 4 2 2 2 5 5 2 5 5 5 0 4 9
100 100 100 100 100 100 100 100 100 100 100 100 100 100 100 100 100 100 100 100 100 100 100 100 100 81 66 97 100 100 100 98 46 5 6 80 61 89 11 5 5 3 5 5 5 5 5 5 5 5 4 3 5 8
100 100 100 100 100 100 96 100 100 100 100 100 100 100 100 100 100 100 100 100 100 100 100 100 98 53 100 63 100 31 7 5 5 5 23 90 100 36 36 5 35 5 5 5 5 5 4 5 4 2 2 67 26 99
100 100 100 100 100 100 100 100 100 100 100 100 100 100 100 100 100 100 100 100 100 100 100 88 54 83 97 100 53 28 43 10 5 5 87 86 34 5 5 10 5 5 5 5 5 1 0 1 0 0 4 13 18 100
100 100 100 100 100 100 100 100 100 100 100 100 100 100 100 100 100 100 100 100 100 95 80 33 56 63 100 98 35 100 15 16 5 8 100 58 5 5 5 5 5 5 5 5 0 0 3 5 2 5 5 5 24 98
100 100 100 100 100 100 100 100 100 100 100 100 100 100 100 100 100 100 100 99 98 82 5 21 75 100 94 27 5 5 18 6 9 98 66 6 5 5 5 5 5 5 5 5 5 5 5 5 4 5 5 5 19 100
100 100 100 100 100 100 100 100 100 100 100 100 100 100 100 100 100 100 98 82 100 30 40 100 100 97 54 17 19 40 58 64 63 95 24 5 5 5 5 5 5 5 5 3 5 5 5 3 5 5 5 5 64 100
100 100 100 100 100 100 100 100 100 100 100 100 100 100 100 100 100 100 100 92 52 97 100 77 98 71 16 84 67 86 72 86 90 71 5 5 5 0 0 2 0 2 5 0 5 5 5 5 5 5 5 6 100 100
100 100 100 100 100 100 100 100 100 100 100 100 100 100 100 100 100 100 51 15 93 100 100 100 100 100 100 27 61 52 36 48 100 12 46 5 5 3 4 5 5 1 5 5 5 9 50 7 5 5 7 22 99 100
100 100 100 100 100 100 100 100 100 100 100 100 100 100 100 99 86 68 61 81 39 47 46 93 35 70 33 35 37 39 100 79 7 6 4 5 5 5 5 5 5 5 18 34 39 68 64 10 8 18 68 42 78 100
100 100 100 100 100 100 100 100 100 100 100 100 100 100 100 89 33 46 51 93 100 71 98 100 100 94 58 19 76 100 79 43 5 4 5 5 5 5 5 5 5 10 23 22 62 77 78 84 99 100 100 100 94 100
100 100 100 100 100 100 100 100 100 100 100 100 100 90 85 100 100 100 100 100 100 100 97 46 18 46 9 33 98 86 69 5 33 5 5 5 5 30 17 59 50 5 8 48 47 76 95 100 100 100 100 100 100 100
100 100 100 100 100 100 100 100 100 100 100 100 100 100 100 100 100 100 100 100 100 100 100 91 42 5 7 46 40 41 52 57 5 5 1 3 5 20 58 54 5 8 55 65 47 90 99 100 100 100 98 80 93 100
100 100 100 100 100 100 100 100 100 100 100 100 100 100 100 100 100 100 98 100 100 98 56 13 5 5 5 27 23 5 22 62 61 14 38 8 5 27 6 18 56 65 76 91 90 77 71 76 53 45 61 32 84 93
100 100 100 100 100 100 100 100 100 100 100 100 100 100 100 100 100 76 56 57 48 44 10 5 25 35 10 6 6 5 5 49 41 10 42 47 34 6 40 21 58 84 97 100 100 100 98 81 88 81 72 79 61 82
100 100 100 100 100 100 100 100 100 100 100 100 100 100 100 100 95 65 51 18 10 8 36 27 6 5 12 8 29 29 6 54 64 61 73 96 93 89 86 62 72 90 96 100 100 100 100 96 97 93 89 73 69 72
100 100 100 100 100 100 100 100 100 100 99 94 100 100 100 98 87 45 35 70 95 47 5 5 5 5 5 5 5 38 35 42 71 91 97 100 100 99 96 97 96 98 94 94 88 87 86 99 90 73 66 73 75 82

GFSWCAN_prec_cloud_063.txt.gz
Cloud_Cover
100 100 100 100 100 100 100 100 100 100 100 100 100 100 100 100 100 100 100 100 100 100 49 40 7 5 5 5 3 4 4 5 5 5 6 5 5 5 21 5 5 5 5 5 51 98 73 5 5 21 55 92 81 100
100 100 100 100 100 100 100 100 100 100 100 100 100 100 100 100 100 100 100 100 100 100 62 51 17 5 5 5 3 4 4 3 5 9 5 5 5 5 5 5 5 5 5 12 5 8 5 5 5 28 68 89 92 92
23 100 82 100 100 100 100 100 100 100 100 100 100 100 100 100 100 100 100 100 100 100 59 21 12 5 5 5 5 3 5 5 5 3 3 2 1 3 4 5 5 2 0 5 4 5 5 3 4 73 100 100 85 87
29 96 100 100 100 100 100 100 100 100 100 100 100 100 100 100 100 100 100 100 100 96 29 25 5 5 5 5 5 5 5 5 5 9 5 4 2 0 1 1 0 0 0 0 4 4 4 5 6 66 53 93 100 100
91 100 100 100 100 100 100 100 100 100 100 100 100 100 100 100 100 100 100 100 100 88 37 71 5 5 5 3 5 3 4 13 91 38 40 6 5 0 0 4 0 0 0 0 0 0 1 5 5 5 70 93 100 100
100 100 100 100 100 100 100 100 100 100 100 100 100 100 100 100 100 100 100 100 100 100 22 68 38 5 5 5 5 5 5 48 74 25 81 19 5 5 2 1 0 4 2 0 2 5 4 5 4 5 5 5 6 51
100 100 100 100 100 100 100 100 100 100 100 100 100 100 100 100 100 100 100 100 100 98 80 62 97 21 5 5 6 93 5 28 100 100 100 85 16 85 5 5 5 4 0 1 4 0 2 5 5 5 5 4 0 0
100 92 100 100 100 100 100 100 100 100 100 100 100 100 100 82 98 100 100 100 100 85 91 100 100 84 21 75 41 100 16 5 88 100 100 83 41 27 28 5 5 5 4 2 2 4 5 5 5 5 4 5 3 5
100 100 100 100 100 100 100 100 100 100 100 100 100 100 100 100 100 100 100 100 93 100 100 100 100 87 11 73 75 98 56 7 54 100 100 97 13 65 70 6 25 5 5 10 5 6 5 2 4 6 5 30 6 56
100 100 100 100 100 100 100 100 100 100 100 100 100 100 100 100 100 100 100 100 78 36 5 50 35 45 23 100 100 89 82 44 25 100 100 29 95 87 21 55 5 5 5 5 65 5 5 5 7 5 5 1 0 5
100 100 100 100 100 100 100 100 100 100 100 100 100 100 100 98 100 100 100 69 82 99 15 61 19 39 52 87 100 100 100 99 100 99 79 84 89 69 100 41 5 5 2 0 15 5 5 2 5 1 0 0 3 4
100 100 100 100 100 100 100 100 100 100 100 100 100 100 100 100 100 100 100 100 100 100 79 64 72 85 100 100 100 100 84 99 81 82 100 100 92 100 71 24 5 5 2 4 5 7 0 1 1 1 3 5 5 5
100 100 100 100 100 100 100 100 100 100 100 100 100 100 52 43 100 100 100 100 100 100 100 38 86 100 100 100 100 100 100 99 78 99 100 100 84 85 52 11 5 5 5 11 7 9 0 0 0 5 5 5 5 5
100 100 100 100 100 100 100 100 100 100 100 100 100 100 100 100 100 100 100 74 99 100 90 75 68 100 100 100 100 100 100 55 94 80 100 98 52 34 6 5 5 5 5 5 28 5 4 5 5 5 5 5 5 5
100 100 100 100 100 100 100 100 100 100 100 100 99 100 100 100 100 100 100 98 96 99 91 100 93 100 100 100 100 100 100 100 99 64 85 64 5 5 5 2 5 5 9 19 5 3 5 5 5 5 2 4 3 1
100 100 100 100 100 100 100 100 94 100 100 100 100 100 100 100 100 100 100 55 99 97 100 100 82 72 100 100 100 100 100 100 80 7 5 6 5 0 4 5 1 4 5 23 5 0 1 5 5 3 3 5 5 5
100 100 100 100 100 100 100 100 100 100 100 97 100 100 100 100 100 100 100 100 98 100 100 100 88 100 100 100 100 100 100 39 28 22 9 4 2 5 5 4 0 3 4 5 5 5 5 5 5 5 5 1 4 4
100 100 100 100 100 100 100 100 98 99 100 100 100 100 100 100 100 100 100 100 100 100 100 89 92 82 91 100 100 100 59 66 32 10 0 1 5 4 0 0 5 5 5 5 5 5 5 5 5 5 5 5 5 5
100 100 100 100 100 100 100 100 100 100 100 100 100 100 100 100 100 100 100 100 100 100 100 100 100 92 100 100 99 84 72 19 5 4 5 5 0 0 1 5 5 5 5 5 5 5 5 5 5 5 5 5 5 5
100 100 100 100 100 100 100 100 100 100 100 100 100 100 100 100 100 100 100 100 100 100 100 100 100 100 86 100 93 23 11 5 46 56 5 5 5 4 5 5 5 5 5 5 5 5 5 5 5 5 5 5 5 5
100 100 100 100 100 100 100 100 100 100 100 100 100 100 100 100 100 100 100 100 100 100 100 100 97 44 24 86 99 23 5 5 20 6 5 5 5 5 5 5 5 5 19 5 5 5 3 5 5 5 5 5 5 5
100 100 100 100 100 100 100 100 100 100 100 100 100 100 100 100 100 100 100 100 100 100 100 100 62 5 14 24 66 44 8 6 17 5 5 5 5 5 5 5 5 5 5 5 5 5 5 5 5 5 5 5 5 5
100 100 100 100 100 100 100 100 100 100 100 100 100 100 100 100 100 100 100 100 100 100 70 7 5 7 5 5 5 5 11 19 6 5 5 5 5 5 5 5 5 5 5 3 5 5 5 3 5 5 5 5 5 5
100 100 100 100 100 100 100 100 100 100 100 100 100 100 100 100 100 100 100 99 95 98 5 12 8 6 17 7 5 5 5 11 8 5 5 5 5 5 5 4 5 5 5 4 5 5 25 5 5 5 5 32 61 71
100 100 100 100 100 100 100 100 100 100 100 100 100 100 100 100 100 98 98 100 80 6 5 71 62 21 5 5 5 5 5 5 5 5 5 5 5 5 5 5 5 5 22 50 5 52 49 26 10 51 40 66 82 100
100 100 100 100 100 100 100 100 100 100 100 100 100 100 100 100 100 100 100 100 50 15 72 96 12 28 9 5 5 5 5 6 5 5 5 5 5 5 5 5 5 5 68 44 36 65 36 55 65 73 95 76 91 82
100 100 100 100 100 100 100 100 100 100 100 100 100 100 100 100 100 100 70 45 90 98 59 5 38 20 6 7 53 6 5 24 5 5 5 5 5 12 5 5 44 17 72 74 81 89 92 100 100 95 100 79 81 99
100 100 100 100 100 100 100 100 100 100 100 100 100 100 100 100 100 100 100 100 97 83 41 80 99 18 21 76 36 5 6 58 38 14 25 15 74 81 42 16 45 5 5 38 57 95 95 100 100 98 100 100 95 31
100 100 100 100 100 100 100 100 100 100 100 100 100 100 100 100 100 98 92 82 73 100 100 99 60 46 13 51 65 74 78 60 3 1 4 5 5 5 17 5 5 22 59 75 36 96 100 100 100 100 96 96 63 20
100 100 100 100 100 100 100 100 100 100 100 100 100 99 90 90 100 100 92 100 100 88 77 59 63 20 32 14 10 5 41 85 63 12 33 5 5 31 8 41 62 82 68 91 99 83 76 82 58 66 41 18 15 43
100 100 100 100 100 100 100 100 100 100 100 100 100 97 91 99 100 100 100 100 100 100 100 94 60 79 11 22 5 5 5 28 73 21 71 65 65 61 53 66 97 81 98 100 99 87 83 80 90 89 76 75 58 83
100 100 100 100 100 100 100 100 100 96 92 94 98 100 100 100 100 100 100 100 100 100 100 73 23 21 37 39 54 58 8 55 57 51 82 87 80 93 99 100 92 96 86 82 81 84 84 96 100 91 86 77 78 75
100 100 100 100 100 100 100 100 100 100 100 100 100 100 100 100 100 100 100 100 100 100 78 62 12 14 5 5 5 23 31 42 71 82 89 97 98 100 99 82 88 87 87 88 89 97 97 100 98 91 85 83 78 69

GFSWCAN_prec_cloud_069.txt.gz
Cloud_Cover
100 100 100 100 100 81 100 100 100 100 100 100 100 100 100 100 100 100 100 100 100 74 22 93 100 100 41 6 5 6 5 10 5 5 5 5 5 5 4 4 2 5 6 5 5 5 4 0 4 4 0 5 5 5
100 100 100 100 100 100 100 80 99 100 100 100 100 100 100 100 100 100 100 100 100 31 12 75 48 66 9 5 5 0 1 3 5 5 5 4 5 5 5 5 0 3 2 4 5 4 0 0 0 3 1 5 1 2
100 100 100 100 100 100 100 100 100 100 100 100 100 100 100 100 100 100 100 100 100 16 56 80 89 52 75 5 5 5 1 0 0 5 5 5 1 2 5 4 2 3 4 2 1 0 0 0 1 5 5 5 5 5
100 100 100 89 100 100 100 100 100 100 100 100 100 100 100 100 100 100 100 100 100 80 64 92 99 70 65 5 5 5 5 1 5 4 5 5 5 4 5 4 4 1 0 2 3 0 0 0 5 8 15 8 5 5
100 82 32 100 100 100 100 98 100 100 100 100 100 100 100 100 100 100 100 100 100 97 100 100 100 98 42 5 5 5 17 9 10 5 5 13 5 5 5 4 5 1 0 4 5 1 0 2 5 5 56 11 9 52
100 54 100 100 100 100 98 100 100 100 100 100 100 100 100 100 100 100 100 100 100 100 100 100 100 98 46 16 33 5 5 5 9 57 5 6 5 5 5 6 5 5 4 5 5 5 5 5 5 6 54 85 48 99
83 53 93 100 100 100 100 100 100 100 100 100 100 100 100 100 100 100 100 100 100 100 100 100 100 100 83 67 96 93 5 18 86 51 5 28 8 5 5 5 5 5 5 26 5 5 5 5 5 18 62 97 66 99
22 96 100 100 100 100 100 100 100 100 100 100 100 100 100 100 100 100 100 100 100 100 100 100 100 100 95 100 100 100 100 6 7 10 5 46 37 5 5 5 5 5 5 5 5 6 5 5 7 86 25 80 94 100
7 31 100 100 100 100 100 100 100 100 100 100 100 100 100 100 100 100 100 100 100 100 100 100 100 100 100 100 100 100 92 5 5 5 5 5 5 35 5 5 5 5 5 5 5 8 88 5 5 33 67 85 98 48
6 68 91 100 100 100 100 100 100 100 100 100 100 100 100 87 100 100 100 100 100 100 100 100 100 100 100 100 89 100 100 88 30 23 97 10 5 59 5 5 7 7 27 43 63 57 62 5 6 16 76 92 78 15
5 43 98 100 100 100 100 100 100 100 100 100 100 100 99 100 100 100 100 100 100 100 100 100 100 100 100 100 92 100 100 100 66 68 6 22 30 28 12 95 54 64 100 100 100 100 62 5 17 100 91 47 53 25
5 47 92 100 100 100 100 100 100 100 100 100 100 100 100 100 100 100 63 100 100 100 96 100 100 100 100 100 100 100 100 100 96 42 73 60 45 35 100 100 100 75 93 100 37 98 28 69 39 31 91 100 16 10
5 5 98 100 100 100 100 100 100 100 100 100 100 100 100 95 100 100 100 95 100 100 100 86 100 100 100 100 100 86 92 94 91 97 53 8 5 58 74 52 56 45 25 20 10 7 5 13 64 40 56 48 5 5
6 50 97 100 100 100 100 100 100 100 100 100 84 97 80 100 100 100 100 100 100 100 100 100 100 100 99 100 99 48 82 80 93 97 30 73 56 17 76 27 42 10 5 5 5 5 35 40 5 5 70 5 5 5
5 69 100 100 100 100 100 100 100 100 100 98 100 88 100 100 100 100 100 100 98 100 97 86 70 57 94 100 100 93 82 100 19 9 60 93 82 27 17 5 19 17 41 10 5 5 6 5 9 8 5 5 5 5
69 100 100 100 100 100 100 100 100 100 100 88 100 96 100 100 100 100 100 100 98 94 76 80 100 100 100 100 100 100 100 48 63 26 36 60 98 87 16 21 11 5 5 5 4 5 2 4 5 39 5 5 5 5
41 100 100 100 100 100 100 100 100 100 100 100 100 100 100 100 100 99 84 98 100 100 100 100 100 100 100 100 100 100 60 82 20 70 36 100 100 5 22 28 8 5 5 5 5 4 3 2 5 5 5 5 5 5
27 100 100 100 100 100 100 100 100 100 100 100 100 100 100 100 100 100 100 100 100 100 95 64 99 100 100 100 100 100 96 69 97 52 13 100 89 41 6 59 5 5 3 5 5 5 5 5 5 5 5 5 5 5
12 100 100 100 100 100 100 100 100 100 100 100 100 100 100 100 83 88 92 100 100 100 72 90 100 100 100 100 100 100 100 100 32 5 86 98 93 76 11 5 5 5 5 5 5 2 5 5 5 5 5 6 7 5
95 100 100 100 100 100 100 100 100 100 100 100 100 100 100 100 83 100 100 100 100 100 100 85 73 100 100 100 100 92 100 17 5 70 99 100 49 24 5 5 5 5 7 5 5 2 5 5 5 5 5 27 7 5
100 100 100 100 100 100 100 100 100 100 100 100 100 100 100 100 100 100 100 100 100 100 100 99 100 100 100 100 80 61 5 26 63 99 100 34 8 5 5 5 49 5 5 4 5 5 5 5 5 5 5 6 6 5
100 100 100 100 100 100 100 100 100 100 100 100 100 100 100 100 100 100 100 100 100 100 100 100 100 100 100 100 98 16 7 60 97 83 71 14 5 5 5 5 5 5 5 21 14 5 9 5 6 7 5 5 5 5
100 100 100 100 100 100 100 100 100 100 100 100 100 100 100 100 100 100 100 100 100 100 100 100 100 100 100 100 100 59 74 41 6 74 69 11 26 5 5 5 28 5 5 5 46 63 74 8 5 5 5 6 26 35
100 100 100 100 100 100 100 100 100 100 100 100 100 100 100 100 100 100 100 100 100 100 100 100 100 100 100 100 67 39 12 22 29 61 9 36 8 5 2 5 5 25 44 55 77 73 58 5 5 5 19 77 57 73
100 100 100 100 100 100 100 100 100 100 100 100 100 100 100 100 100 100 100 100 100 100 100 100 100 100 67 37 34 60 44 20 30 5 5 6 7 29 5 32 5 19 80 69 56 74 38 7 40 71 69 72 84 100
100 100 100 100 100 100 100 100 100 100 100 100 100 100 100 100 100 100 100 100 100 100 100 100 76 30 52 100 89 45 41 48 5 5 6 11 5 8 52 96 93 23 72 96 100 98 92 77 85 79 92 80 88 85
100 100 100 100 100 100 100 100 100 100 100 100 100 100 100 100 100 100 100 100 100 100 100 100 58 92 100 78 52 93 66 51 5 17 45 71 78 70 76 61 37 12 95 90 97 100 100 100 100 100 100 74 67 79
100 100 100 100 100 100 100 100 100 100 100 100 100 100 100 100 100 100 100 100 100 100 100 100 100 100 100 100 99 22 60 73 55 49 45 45 66 66 29 55 63 99 99 93 100 100 100 98 100 100 99 100 91 22
100 100 100 100 100 100 100 100 100 100 100 100 100 100 100 100 100 100 100 100 100 100 100 100 100 100 100 98 77 91 58 6 3 1 0 5 5 5 9 54 57 57 75 94 71 92 99 100 99 96 92 48 5 47
100 100 100 100 100 100 100 100 100 100 100 100 100 100 100 100 100 100 100 100 100 100 100 100 100 99 69 5 5 8 43 81 7 5 5 5 5 7 55 62 68 70 95 100 94 69 51 45 54 56 27 6 13 85
100 100 100 100 100 100 100 100 100 100 100 100 100 100 100 100 100 100 100 100 100 100 100 84 57 72 28 21 5 5 5 28 62 52 37 52 58 70 63 68 83 97 100 98 97 100 100 98 96 98 87 84 72 87
100 100 100 100 100 100 100 100 100 100 100 100 100 100 100 100 100 100 100 100 100 100 92 100 48 50 35 36 22 53 8 7 61 31 23 80 89 60 65 80 96 100 95 88 100 100 100 100 100 100 100 94 92 93
100 100 100 100 100 100 100 100 100 100 100 100 100 100 100 100 100 100 100 100 100 100 100 98 53 34 13 10 5 54 44 36 73 78 98 92 100 93 96 86 71 99 99 100 94 99 100 100 100 100 100 100 96 93

GFSWCAN_prec_cloud_072.txt.gz
Cloud_Cover
38 85 100 100 100 99 100 100 87 92 100 100 100 100 100 100 100 98 100 45 56 10 5 84 98 60 5 5 5 5 5 8 5 5 4 5 5 5 4 3 5 5 6 5 5 5 5 5 4 3 1 4 0 0
100 96 100 100 89 100 100 100 15 100 100 100 100 91 99 100 100 100 100 70 88 33 10 78 86 96 5 5 5 5 2 3 5 3 3 2 5 5 5 5 0 3 2 4 5 4 4 5 5 5 5 5 25 1
100 94 100 99 99 100 100 100 88 100 100 100 100 100 100 100 100 100 100 71 74 88 100 98 76 14 40 5 5 21 0 0 1 5 4 5 2 5 5 4 3 2 5 3 3 5 5 43 6 7 10 17 5 58
100 88 100 71 25 100 100 100 84 94 100 100 95 100 100 100 100 100 100 84 9 81 100 95 79 26 5 5 36 8 40 9 5 3 5 5 5 5 5 3 4 4 5 0 5 5 5 97 10 98 86 62 6 87
97 78 100 80 70 100 100 100 91 100 100 100 100 100 100 100 100 100 100 98 92 99 100 94 79 82 46 5 5 5 37 38 11 5 5 5 5 4 6 5 5 4 5 48 5 57 100 74 14 100 65 84 11 98
68 95 100 6 73 100 100 100 68 98 100 100 100 100 100 100 100 100 100 100 95 100 100 92 80 87 100 70 5 46 39 5 5 5 5 5 5 5 5 6 5 5 52 100 100 100 93 68 68 75 63 99 96 95
68 53 5 5 36 95 100 99 98 85 100 100 100 100 100 100 100 100 100 100 98 85 100 100 100 96 100 76 34 100 100 21 4 5 5 30 35 5 58 11 40 64 98 83 53 20 59 89 99 90 80 72 89 77
100 100 12 12 89 94 100 98 99 100 100 100 100 100 100 100 100 100 100 100 100 100 100 84 87 55 100 100 96 78 23 37 50 21 69 100 34 5 35 100 93 96 19 10 34 74 88 85 78 95 100 68 82 8
63 27 5 5 40 100 100 100 100 100 100 100 99 100 100 100 100 100 100 100 100 100 100 100 100 100 100 100 74 95 48 32 83 62 72 33 11 5 5 13 49 6 5 5 50 87 75 86 90 100 100 97 62 26
26 8 5 5 12 100 100 100 100 100 100 83 100 100 100 100 99 100 100 100 100 100 100 100 100 100 100 100 100 90 60 96 100 19 98 12 7 27 35 57 5 5 14 7 20 93 70 100 100 100 100 38 68 5
95 11 5 5 7 100 100 100 100 100 88 100 100 100 100 100 100 100 100 100 100 100 100 100 100 100 100 100 100 100 91 79 44 14 25 44 87 46 5 5 5 40 12 26 73 94 73 74 82 100 93 12 9 4
96 39 5 5 5 100 100 100 100 62 85 90 100 100 100 100 100 100 100 95 100 100 100 100 100 37 89 100 100 100 99 62 45 17 67 95 95 71 19 5 5 22 7 74 54 94 56 94 79 100 73 6 44 5
100 17 5 5 14 98 100 100 100 99 100 99 100 100 100 88 100 100 100 100 100 100 100 100 100 61 91 100 100 100 99 54 41 90 47 9 27 26 84 5 5 73 52 75 54 96 90 75 96 99 13 5 5 5
100 31 5 57 5 100 100 100 100 100 100 99 100 100 38 33 95 100 100 100 100 100 100 100 100 100 100 100 100 94 83 100 100 92 26 25 59 98 71 99 10 28 41 71 60 71 96 73 99 70 5 5 5 5
100 45 5 7 31 97 100 100 100 100 100 100 96 98 100 100 100 100 100 100 100 100 100 100 100 100 100 100 61 89 97 98 60 41 94 100 100 59 87 70 6 30 49 41 63 94 52 100 39 5 5 5 5 5
100 92 67 16 19 100 100 100 100 100 100 100 100 98 87 100 100 100 100 100 100 100 100 98 97 79 91 78 87 100 96 32 100 99 100 100 100 70 68 5 16 5 6 35 53 22 17 98 43 5 5 5 5 5
100 100 11 5 13 100 100 100 100 100 100 77 100 100 100 100 100 100 100 100 72 97 94 92 82 72 56 72 80 67 62 72 100 82 100 100 100 98 19 52 34 5 5 7 5 5 5 6 18 5 7 1 5 5
100 28 4 30 100 100 100 100 100 100 88 100 100 100 100 100 100 100 100 100 100 100 100 95 86 86 100 88 62 25 74 54 20 15 54 100 100 76 65 68 6 7 32 6 5 5 5 5 5 5 5 5 5 5
98 9 87 100 100 100 100 100 100 100 100 100 100 100 100 100 100 100 100 100 100 97 89 100 100 100 100 95 77 100 100 69 34 21 92 54 75 81 70 35 5 72 37 5 5 5 5 5 5 5 5 7 58 6
95 90 100 100 100 100 100 100 100 100 100 100 100 100 100 100 100 100 100 100 100 100 100 100 100 91 96 100 100 100 99 22 52 88 80 94 33 45 27 12 57 12 6 5 5 4 6 6 5 5 15 68 84 90
100 100 100 100 100 100 100 100 100 100 100 100 100 100 100 100 100 100 100 100 100 100 100 100 100 100 100 100 100 100 84 99 100 100 98 23 39 5 8 34 36 6 2 4 5 5 5 5 5 5 64 50 5 5
100 100 100 100 100 100 100 100 100 100 100 100 100 100 100 100 100 100 100 100 100 100 100 100 100 100 100 100 100 100 34 98 94 13 27 21 6 5 5 5 5 5 12 28 24 18 28 5 7 5 8 18 5 5
100 100 100 100 100 100 100 100 100 100 100 100 100 100 100 100 100 100 100 100 100 100 100 100 100 100 100 100 100 94 26 81 74 89 12 32 6 5 29 23 31 5 7 6 75 88 77 8 6 24 5 9 22 5
100 100 100 100 100 100 100 100 100 100 100 100 100 100 100 100 100 100 100 100 100 100 100 100 100 100 100 100 100 94 76 100 100 66 6 5 5 4 3 5 7 30 65 79 76 72 56 5 58 16 6 58 63 69
100 100 100 100 100 100 100 100 100 100 100 100 100 100 100 100 100 100 100 100 100 100 100 100 100 100 100 100 98 14 78 100 100 5 12 23 7 5 25 44 5 94 73 80 83 94 68 59 54 54 59 89 100 100
100 100 100 98 100 100 100 100 100 100 100 100 100 100 100 100 100 100 100 100 100 100 100 100 100 100 100 100 100 14 95 100 13 5 6 46 5 7 29 74 91 16 77 99 100 98 87 68 79 76 91 84 97 98
100 100 48 49 100 100 100 100 100 100 100 100 100 100 100 100 100 100 100 100 100 100 100 100 100 100 100 100 53 74 100 70 5 23 53 69 74 60 22 18 10 22 78 93 98 100 100 100 98 97 100 99 67 78
96 9 5 90 100 100 100 100 100 100 100 100 100 100 100 100 100 100 100 100 100 100 100 100 100 100 100 92 41 100 90 91 95 78 70 41 64 62 33 57 28 95 92 94 96 93 86 100 100 100 100 100 59 6
35 98 95 100 100 100 100 100 100 100 100 100 100 100 100 100 100 100 100 100 100 100 100 100 100 100 100 100 100 61 6 5 5 5 1 5 5 5 44 53 56 64 88 96 79 97 100 99 96 95 92 25 5 6
98 100 78 100 100 100 100 100 100 100 100 100 100 100 100 100 100 100 100 100 100 100 100 100 100 100 100 100 98 20 62 57 6 5 5 5 5 6 52 62 72 82 100 100 99 52 56 49 48 59 30 16 14 79
88 100 100 100 100 100 100 100 100 100 100 100 100 100 100 100 100 100 100 100 100 100 100 100 100 100 100 100 95 36 44 57 58 26 34 34 55 62 62 69 83 100 100 100 100 97 89 65 68 84 69 77 71 95
100 100 100 100 100 100 100 100 100 100 100 100 100 100 100 100 100 100 100 100 100 100 100 100 100 100 100 100 100 100 99 32 58 38 63 80 70 58 65 74 98 100 100 100 100 96 99 100 100 95 99 88 87 94
100 100 100 100 100 100 100 100 100 100 100 100 100 100 100 100 100 100 100 100 100 100 100 100 100 100 100 100 100 100 56 10 16 61 96 72 85 82 92 98 90 100 100 100 82 100 100 100 100 99 94 89 91 96

GFSWCAN_prec_cloud_075.txt.gz
Cloud_Cover
5 5 86 74 73 88 54 66 15 100 100 100 100 100 100 83 100 87 11 5 20 24 100 100 99 94 5 5 5 5 5 12 5 4 5 5 5 5 5 4 5 5 6 27 11 5 5 5 5 5 5 1 5 5
1 11 100 75 47 88 18 2 5 97 99 100 100 100 96 96 98 35 92 53 40 22 55 81 82 97 45 5 5 5 4 5 5 3 0 5 5 5 5 9 23 6 76 89 86 5 5 5 5 5 5 5 19 58
3 73 100 98 100 51 4 4 5 84 100 100 100 100 100 45 76 63 8 31 5 91 16 100 85 93 56 28 32 25 4 5 1 1 5 5 5 5 5 5 12 99 22 37 5 5 5 5 6 7 69 91 92 34
5 92 94 48 93 18 4 4 5 84 100 100 100 100 100 80 69 72 90 52 25 39 68 76 54 76 5 18 67 18 5 3 1 0 5 26 14 5 5 13 5 27 15 5 5 6 9 33 55 56 74 41 100 82
5 100 76 16 5 71 6 3 5 96 100 100 99 100 96 98 77 100 76 72 81 29 28 78 92 87 54 9 5 5 5 5 5 8 47 52 5 40 30 37 5 5 5 19 51 17 56 79 53 100 97 100 100 100
5 100 41 5 5 11 4 9 5 21 100 100 100 100 100 94 100 100 87 68 100 90 52 66 50 68 100 64 58 52 22 5 5 58 86 60 5 5 26 10 5 5 5 40 87 100 77 100 90 100 100 100 100 96
7 100 96 5 5 9 84 18 4 5 98 100 100 100 100 71 100 100 78 34 91 76 90 86 55 50 88 99 64 100 53 54 56 57 84 97 44 7 6 8 5 11 10 38 98 100 100 100 100 100 100 100 100 78
10 92 65 5 4 74 91 19 28 5 47 100 100 100 46 100 78 95 100 97 71 100 100 100 96 93 55 26 61 71 76 84 100 74 6 7 74 6 7 22 19 45 5 83 81 100 100 100 100 100 100 100 88 100
56 28 26 5 4 80 99 99 75 87 100 100 100 100 100 100 100 100 100 100 100 98 100 100 100 100 100 81 12 13 10 5 15 77 94 5 5 16 56 5 5 5 5 89 100 99 99 78 63 96 90 98 98 65
99 6 20 2 5 100 100 100 100 100 100 100 100 100 100 100 100 96 100 100 100 100 100 100 100 100 100 100 100 96 100 74 96 78 82 6 6 9 64 10 5 34 73 100 100 63 97 51 69 100 91 67 99 56
32 10 5 4 5 39 100 99 100 100 100 94 100 100 100 100 100 100 72 100 100 100 100 100 100 97 100 100 100 100 100 96 84 5 16 36 13 14 68 24 5 8 94 92 100 35 68 52 59 80 31 35 15 7
87 44 34 6 5 7 100 100 100 100 100 76 14 100 100 100 100 92 96 99 100 100 100 100 100 95 100 95 61 100 73 61 95 16 74 81 5 51 88 16 5 19 82 91 94 15 31 51 12 17 7 6 5 5
51 99 68 5 5 6 100 100 100 100 100 69 35 94 100 100 100 100 100 100 100 100 100 100 100 100 100 97 61 23 19 99 37 84 37 59 31 94 92 45 5 5 76 85 81 33 29 52 37 5 5 5 5 5
20 38 32 32 5 4 92 100 100 100 97 100 100 95 100 100 100 100 100 100 100 100 100 100 100 100 100 100 100 67 92 90 89 80 40 74 84 99 83 24 56 94 72 19 99 16 51 14 20 5 5 5 5 5
6 55 34 17 11 4 44 100 100 100 100 100 88 31 95 100 100 100 100 100 100 100 100 100 100 100 100 100 100 87 88 100 66 38 21 46 31 65 36 80 100 81 7 47 48 11 44 5 5 5 5 4 5 5
8 71 66 13 13 4 21 100 100 100 100 100 60 44 100 100 100 100 100 100 100 100 100 100 100 100 100 99 97 67 48 26 25 60 52 57 79 34 87 89 44 5 5 11 6 5 7 5 5 6 5 5 5 5
89 100 64 70 5 5 34 100 100 100 100 93 13 62 100 100 100 100 100 100 100 100 100 100 100 100 100 100 100 95 44 54 99 99 91 59 98 100 91 17 5 5 5 33 5 5 4 5 5 5 5 5 5 5
100 100 58 93 65 88 100 100 100 100 83 53 42 100 100 100 100 100 100 100 100 100 100 100 100 100 100 92 95 100 92 100 82 100 60 100 100 100 87 6 5 5 35 14 5 5 5 5 5 5 10 5 7 6
100 100 50 99 86 100 100 100 100 100 15 78 100 100 100 100 100 100 100 100 100 100 100 100 100 100 99 78 95 93 87 100 100 100 100 100 100 100 14 5 5 5 5 5 5 5 6 5 5 7 21 51 90 74
100 100 100 100 94 100 100 100 81 80 87 99 100 100 100 100 100 100 100 100 100 100 100 100 100 100 99 100 100 97 100 100 100 100 100 100 100 97 5 5 5 5 5 6 12 3 15 5 5 25 65 50 36 59
100 100 100 100 100 100 100 85 71 91 79 100 100 100 100 100 100 100 100 100 100 100 100 100 100 100 100 100 100 100 100 100 100 100 100 100 100 62 35 56 32 6 4 4 5 5 5 19 5 55 42 60 14 7
100 100 100 100 100 100 100 100 98 62 10 100 100 100 100 100 100 100 100 100 100 100 100 100 100 100 100 100 100 100 100 100 100 100 100 100 95 5 6 5 5 5 36 35 26 43 48 6 15 5 5 15 22 5
100 100 100 100 100 100 100 99 90 96 92 100 100 100 100 100 100 100 100 100 100 100 100 100 100 100 100 100 100 100 100 100 100 100 100 96 22 13 43 15 34 15 37 60 88 90 77 31 24 31 5 6 5 5
100 100 100 100 100 100 100 100 91 100 99 100 100 100 100 100 100 100 100 100 100 100 100 100 100 100 100 100 100 100 100 100 100 100 100 28 5 18 14 5 8 58 77 74 73 71 63 5 56 16 13 73 68 92
100 100 100 100 100 100 100 100 98 98 98 100 100 100 100 100 100 100 100 100 100 100 100 100 100 100 100 100 100 100 100 100 100 100 80 21 8 29 50 48 35 58 68 97 95 89 75 58 58 63 67 84 100 98
100 100 100 100 100 100 90 98 36 6 100 100 100 100 100 100 100 100 100 100 100 100 100 100 100 100 100 100 100 100 100 100 100 100 23 13 5 5 16 8 28 28 85 87 99 95 91 65 74 86 88 94 88 86
100 100 100 100 100 100 98 99 48 79 100 100 100 100 100 100 100 100 100 100 100 100 100 100 100 100 100 100 100 100 100 100 100 90 13 50 69 42 8 29 13 5 57 93 98 100 100 92 100 97 100 59 57 67
100 100 100 100 100 99 99 100 59 100 100 100 100 100 100 100 100 100 100 100 100 100 100 100 100 100 100 100 100 100 100 100 100 44 12 8 58 71 57 63 75 82 89 89 100 99 91 100 98 100 98 74 12 24
100 100 100 100 100 100 100 55 60 100 100 100 100 100 100 100 100 100 100 100 100 100 100 100 100 100 100 100 100 100 100 100 86 8 27 5 5 5 38 57 74 85 94 84 71 87 98 98 100 80 57 25 11 22
99 100 100 100 100 80 70 63 99 100 100 100 100 100 100 100 100 100 100 100 100 100 100 100 100 100 100 100 100 100 100 100 67 61 5 5 5 6 54 69 80 97 100 98 99 63 71 60 54 54 28 5 47 58
100 100 100 100 99 96 100 100 100 100 100 100 100 100 100 100 100 100 100 100 100 100 100 100 100 100 100 100 100 100 100 87 68 27 31 5 17 52 67 67 73 97 100 100 100 67 71 43 53 70 53 50 70 80
89 90 99 59 100 100 100 100 100 100 100 100 100 100 100 100 100 100 100 100 100 100 100 100 100 100 100 100 100 100 100 91 31 37 6 61 56 54 58 76 98 100 100 100 98 82 91 94 89 98 100 98 79 84
100 100 100 100 100 100 100 100 100 100 100 100 100 100 100 100 100 100 100 100 100 100 100 100 100 100 100 100 100 100 100 97 40 5 12 42 38 75 87 85 100 100 100 100 89 100 100 100 100 100 100 98 79 70

GFSWCAN_prec_cloud_078.txt.gz
Cloud_Cover
94 14 6 100 100 34 3 5 5 5 93 100 50 100 15 54 5 5 4 5 1 5 52 26 5 13 5 5 4 5 5 5 2 1 1 5 5 5 5 5 5 5 4 5 5 5 5 5 5 5 5 5 20 5
94 6 19 100 85 7 28 7 9 7 100 100 100 57 94 50 3 5 4 5 5 3 6 14 68 5 5 5 4 3 0 0 0 0 0 2 1 5 5 5 5 5 0 2 8 51 5 5 12 38 6 5 14 5
100 94 31 100 86 4 0 8 8 65 96 100 100 100 34 5 5 5 2 5 5 5 6 9 7 35 5 5 4 0 5 5 5 2 5 5 20 50 10 5 5 19 12 5 6 9 86 84 43 27 100 72 39 34
58 95 81 87 26 9 0 4 3 93 100 100 100 100 80 5 5 5 5 5 5 5 5 12 63 18 5 5 5 4 5 9 35 50 8 9 5 5 5 5 5 5 5 7 54 27 100 100 78 67 84 85 64 8
100 100 100 5 15 1 3 2 2 33 100 100 100 100 97 50 5 5 5 5 5 2 4 14 98 100 27 5 5 5 5 7 23 13 21 32 30 5 5 5 4 4 5 5 5 41 98 60 41 97 59 72 61 5
100 100 100 98 3 0 1 4 0 24 93 100 100 100 100 97 7 69 44 57 7 5 5 5 5 6 96 45 6 5 30 5 5 52 5 5 5 8 8 5 5 5 5 5 5 79 100 77 10 73 98 63 9 13
99 96 100 100 100 3 2 0 0 5 49 100 100 100 100 100 89 66 59 62 66 28 5 39 22 14 32 34 6 9 31 6 5 18 6 5 10 54 22 5 6 16 5 9 54 100 100 78 84 99 97 22 12 5
48 100 100 100 100 100 41 2 4 5 5 100 100 100 100 100 100 100 93 100 86 70 53 62 90 11 6 44 41 6 5 5 19 60 6 5 51 96 97 68 28 45 15 5 21 100 100 55 100 48 48 5 9 5
75 91 100 100 100 100 94 14 1 1 5 78 100 100 100 100 100 100 100 100 94 52 62 64 59 12 18 99 32 18 21 98 100 53 5 12 69 50 62 98 98 47 18 5 7 79 42 24 67 9 5 8 7 8
63 84 100 100 100 100 100 100 95 5 5 100 100 89 100 100 100 100 100 100 100 100 100 78 6 5 5 36 51 91 61 31 5 5 5 5 61 98 100 100 69 11 33 11 9 39 46 26 31 11 5 5 5 12
100 74 98 56 46 100 100 100 97 5 65 71 6 49 46 74 94 100 100 100 100 100 100 100 100 83 71 17 100 60 11 6 5 14 11 21 5 26 61 64 58 45 53 28 16 6 87 44 49 5 5 5 5 2
14 33 94 54 70 99 100 100 100 63 5 35 5 5 5 10 96 98 100 100 100 100 100 100 100 100 100 50 97 85 71 52 41 77 77 35 5 5 13 18 63 21 58 63 5 6 42 56 6 5 5 4 5 0
41 11 100 75 100 100 99 100 100 100 55 76 38 3 45 72 49 100 100 100 93 91 100 100 100 100 100 100 100 99 97 84 25 51 8 39 14 10 83 66 63 78 59 6 5 6 100 17 5 5 5 0 4 0
100 89 77 96 100 73 100 100 100 100 100 56 97 16 4 64 100 100 100 100 100 99 100 100 100 100 100 100 100 100 61 100 86 75 46 62 47 80 97 96 54 92 5 5 5 5 34 5 5 5 4 0 1 0
99 100 5 11 86 22 99 100 100 100 100 96 37 9 5 5 98 100 100 100 100 100 100 100 100 100 98 100 100 100 92 100 79 78 100 100 100 92 100 100 100 98 6 5 5 5 6 5 5 5 2 0 0 0
44 100 30 5 7 69 93 100 100 100 100 88 32 15 5 5 72 100 100 100 100 100 100 100 100 100 100 100 100 100 100 99 87 100 83 100 100 100 100 100 100 76 6 5 5 9 5 5 5 5 0 0 5 5
100 94 8 5 5 39 100 100 100 100 100 100 94 5 4 8 94 100 100 100 100 100 100 100 100 100 100 100 100 100 100 99 100 100 86 100 100 100 100 100 100 61 5 5 5 8 20 5 5 5 4 5 5 5
100 100 96 11 76 100 100 100 100 100 100 100 62 6 5 4 97 100 100 100 95 100 100 100 100 100 100 100 100 100 99 100 100 100 99 96 100 100 100 100 100 26 5 5 5 40 8 5 4 2 5 5 5 5
100 99 19 7 97 100 100 100 100 100 100 100 100 100 6 5 64 100 100 100 100 100 100 100 79 100 100 100 100 100 82 99 100 100 100 100 100 100 100 100 100 7 5 5 5 5 5 5 4 5 5 18 60 20
100 100 93 86 98 100 100 100 83 100 100 100 100 100 18 5 86 82 100 100 100 99 100 100 100 100 100 100 100 96 96 98 100 100 100 100 100 100 100 100 100 9 5 5 5 5 5 4 5 5 8 65 15 5
100 100 100 100 100 100 100 100 88 52 42 100 100 100 90 28 16 100 100 100 100 66 100 100 100 100 100 100 99 100 100 100 100 100 100 100 100 100 100 100 100 8 5 5 5 5 5 5 5 5 5 5 30 46
100 100 100 100 100 100 100 100 80 63 16 85 100 100 61 5 12 90 100 99 55 100 100 100 100 100 100 100 100 100 100 100 100 100 100 100 100 100 100 100 100 37 5 5 5 5 5 5 5 63 5 5 20 5
100 100 100 100 100 100 100 98 98 79 90 95 98 6 5 5 9 53 100 70 55 100 100 100 100 100 100 100 100 100 100 100 100 100 100 100 100 100 100 100 100 30 5 5 39 11 5 37 7 9 5 6 5 13
100 100 100 100 100 100 100 100 100 100 100 100 68 57 60 5 55 11 100 38 100 100 100 100 100 100 100 100 100 100 100 100 100 100 100 100 100 100 100 100 100 10 5 5 5 5 5 5 50 6 5 53 60 96
100 100 100 100 100 100 100 100 98 100 97 81 81 70 55 78 9 17 100 100 100 100 100 100 100 100 100 100 100 100 100 100 100 100 100 100 100 100 100 100 39 5 5 34 15 5 24 13 6 38 58 86 100 99
100 100 92 99 100 100 100 100 100 58 92 76 100 68 97 90 86 60 100 100 100 100 100 100 100 100 100 100 100 100 100 100 100 100 100 100 100 100 100 100 15 10 55 63 19 5 25 5 56 60 65 70 81 81
100 100 100 98 100 100 99 73 81 100 100 100 60 99 99 72 26 99 100 100 100 100 100 100 100 100 100 100 100 100 100 100 100 100 100 100 100 100 100 100 23 28 100 80 62 24 9 52 82 77 84 27 5 61
100 100 98 99 94 40 30 50 56 99 100 87 100 100 23 8 52 100 100 100 100 100 100 100 100 100 100 100 100 100 100 100 100 100 100 100 100 100 100 98 66 93 100 95 60 62 70 79 90 78 75 56 42 44
100 100 98 98 90 37 8 79 75 72 99 58 7 96 97 93 100 100 100 100 100 100 100 100 100 100 100 100 100 100 100 100 100 100 100 100 100 100 99 97 99 92 100 67 84 87 62 76 66 95 33 51 5 62
52 38 57 42 33 24 17 69 81 100 100 100 100 100 100 100 100 100 100 100 100 100 100 100 100 100 100 100 100 100 100 100 100 100 100 97 100 100 99 97 87 97 90 71 5 16 77 42 37 30 10 5 36 69
20 17 5 26 46 44 73 100 100 100 100 100 100 100 100 100 100 100 100 100 100 100 100 100 100 100 100 100 100 100 100 100 100 100 100 100 100 99 100 60 70 91 87 69 47 5 25 34 16 45 19 39 34 67
88 99 48 84 100 100 100 99 100 100 100 100 97 68 91 100 100 100 100 100 100 100 100 100 100 100 100 100 100 100 100 100 100 100 100 100 98 100 90 77 99 84 80 77 69 55 71 71 66 68 56 59 60 58
100 99 100 94 96 100 100 100 100 100 82 54 8 90 100 100 100 100 100 100 100 100 100 100 100 100 100 100 100 100 100 100 100 100 100 100 100 100 90 91 91 82 88 85 77 80 89 98 86 94 87 90 71 61

GFSWCAN_prec_cloud_081.txt.gz
Cloud_Cover
76 92 98 5 32 96 5 29 62 100 85 87 6 5 4 0 0 0 0 0 0 0 0 3 2 0 0 2 6 2 3 3 4 5 4 3 1 0 1 0 3 4 5 5 5 5 5 5 5 5 5 5 5 5
96 98 10 76 8 86 0 33 28 100 100 100 46 5 0 0 5 1 0 0 0 0 2 0 1 5 0 0 0 2 1 0 5 5 17 5 5 5 5 5 5 5 5 4 5 5 5 5 13 17 63 49 7 5
99 29 68 47 67 5 0 0 48 100 100 100 100 82 32 2 0 0 1 0 0 0 4 5 5 5 4 1 0 2 0 4 5 5 5 3 0 0 0 2 1 0 3 5 5 6 8 5 6 100 93 15 24 5
100 89 100 86 47 5 0 5 4 94 100 100 100 100 94 97 10 3 4 2 3 2 4 4 5 5 5 2 5 5 5 5 5 5 5 5 5 5 5 5 5 7 5 5 6 6 69 15 15 83 78 20 12 5
100 96 100 98 100 21 10 3 0 14 98 100 100 100 100 100 100 83 5 5 5 5 5 5 5 5 5 5 5 5 5 5 5 5 5 8 16 16 15 52 60 65 55 24 48 11 5 5 5 27 18 5 8 5
100 100 49 100 100 100 99 17 0 3 31 100 100 100 100 100 100 100 100 53 6 83 29 6 5 5 5 5 5 5 5 5 5 5 77 92 52 56 92 94 51 12 27 5 33 44 27 60 8 5 5 77 5 5
100 95 100 100 100 100 80 47 36 3 0 77 100 100 100 100 100 100 100 100 75 64 99 100 99 81 37 17 22 26 7 5 14 8 37 97 23 98 93 91 24 5 5 27 68 39 62 62 49 5 14 8 5 5
100 95 100 87 100 100 100 100 100 100 2 6 28 93 100 100 100 100 100 100 100 97 60 90 74 53 18 30 34 53 46 51 83 5 6 70 61 92 66 38 81 33 40 41 51 68 75 71 40 5 5 5 5 5
100 51 72 100 100 100 100 100 57 100 100 7 5 7 69 100 100 100 100 100 100 100 98 100 95 79 100 20 18 49 89 42 82 11 72 85 42 71 25 85 47 19 5 33 71 56 70 45 32 5 5 5 5 5
100 100 89 100 100 100 100 100 100 100 100 100 7 5 6 34 94 100 100 100 100 100 100 100 100 100 84 58 5 44 72 90 100 98 100 96 70 23 35 72 86 87 39 8 25 17 57 14 5 5 5 5 1 5
91 100 100 100 100 100 100 100 100 100 100 100 70 5 0 3 18 20 86 100 100 100 100 100 100 100 100 100 96 90 76 97 94 50 54 80 88 72 67 46 97 100 100 79 37 5 7 5 14 5 5 5 2 4
81 83 100 72 100 79 99 100 99 100 100 100 85 51 4 0 0 37 93 86 100 100 100 100 100 100 100 100 100 100 95 96 98 81 55 97 100 98 59 96 100 100 100 100 62 5 5 5 30 5 5 5 5 0
56 98 100 100 96 96 100 100 100 100 100 100 100 96 25 95 5 1 60 100 85 69 94 87 81 100 100 100 98 100 100 100 100 100 100 81 100 100 100 100 100 98 100 100 77 5 5 5 49 5 5 5 0 1
100 91 100 99 82 86 97 100 100 100 99 100 100 100 100 100 100 78 2 5 89 100 19 97 84 5 85 72 38 72 44 40 100 100 70 99 100 100 100 100 88 99 100 100 100 20 5 5 9 5 5 5 0 0
100 100 100 100 25 94 100 100 100 100 99 87 100 100 100 100 100 100 97 5 5 5 32 83 98 92 87 33 22 16 38 88 100 100 96 88 100 100 100 100 98 100 100 100 100 58 5 5 2 1 4 5 0 0
100 100 100 81 14 45 100 100 100 100 100 97 80 48 100 100 100 100 100 88 5 5 5 97 100 100 100 100 93 81 28 100 100 100 100 100 100 100 100 100 100 100 100 100 100 100 7 5 0 0 2 5 0 5
100 100 100 99 9 24 100 100 100 100 99 100 100 87 100 100 100 100 100 100 85 43 5 5 5 43 53 100 100 100 100 100 100 100 100 100 97 100 100 100 100 100 100 100 100 100 20 5 3 4 5 5 5 5
100 100 100 100 99 100 100 100 100 100 100 100 100 100 100 100 98 100 100 93 68 10 70 64 30 5 54 100 100 100 100 100 100 100 100 100 99 100 100 100 100 100 100 100 100 100 100 16 5 1 5 5 5 5
100 100 100 100 100 100 100 100 100 100 100 100 100 75 100 100 100 100 100 86 38 24 5 6 30 5 100 100 100 100 100 100 100 100 100 100 100 100 100 100 97 100 100 100 100 100 100 41 5 4 5 5 5 5
100 100 100 100 100 100 100 100 100 100 99 100 100 100 100 100 100 100 100 100 6 52 44 5 4 64 100 100 100 100 100 100 100 100 100 100 100 100 100 100 100 100 100 100 100 100 100 77 5 5 5 5 5 5
100 100 100 100 100 100 98 100 100 84 82 100 100 100 100 100 100 100 100 100 60 87 11 0 69 100 100 100 100 100 100 100 100 100 100 100 100 100 100 100 100 100 100 100 100 100 100 68 7 5 5 5 30 5
100 100 100 100 100 100 100 96 99 97 38 97 100 100 72 98 100 100 100 90 99 100 90 3 13 86 100 100 100 100 100 96 100 100 100 100 100 100 100 100 100 100 100 100 88 68 100 38 7 5 5 18 5 5
100 100 100 100 100 100 100 82 95 79 100 100 100 100 100 100 100 100 100 93 100 100 99 10 16 100 100 100 100 100 100 100 100 100 100 100 100 100 100 100 100 100 100 99 70 21 100 54 5 5 5 10 21 5
100 100 100 100 100 100 100 100 100 100 100 98 100 100 100 100 96 80 54 98 100 100 99 11 5 81 100 100 100 100 100 100 100 100 100 100 100 100 100 100 100 100 100 100 76 21 75 32 5 5 5 5 13 78
100 100 100 100 100 100 100 100 97 95 100 89 100 100 100 100 84 44 5 94 100 100 72 5 4 29 100 100 100 100 100 100 100 100 100 100 100 100 100 100 100 100 100 100 53 27 17 5 5 12 6 5 65 75
100 100 85 83 72 54 98 100 100 90 87 100 100 100 100 100 50 31 61 100 100 99 17 2 7 100 100 100 100 100 100 100 100 100 100 100 100 100 100 100 100 100 100 100 56 76 21 12 8 24 5 12 57 29
100 100 100 89 94 100 100 100 97 90 95 100 100 100 100 88 15 47 100 81 18 5 37 64 21 100 100 100 100 100 100 100 100 100 100 100 100 100 100 100 100 100 100 97 34 56 97 34 46 5 5 5 5 10
100 76 38 85 100 84 35 76 79 75 100 100 100 100 45 6 6 40 5 5 11 73 72 38 99 100 100 100 100 100 100 100 100 100 100 100 100 100 100 100 100 100 100 46 14 65 92 31 14 5 5 5 5 5
86 100 100 100 100 100 100 100 100 100 100 99 59 23 5 5 5 5 5 52 97 88 100 100 100 100 100 100 100 100 100 100 100 100 100 100 100 100 100 100 100 100 100 100 73 73 62 40 10 12 5 5 5 5
95 100 100 100 100 100 100 99 73 20 34 78 39 6 2 5 8 34 50 78 100 96 100 100 100 100 100 100 100 100 100 100 100 100 100 100 100 100 100 100 100 100 100 95 54 60 94 81 44 5 10 5 5 15
100 100 100 100 100 99 57 55 55 28 5 5 5 5 4 5 17 43 95 44 100 100 100 100 100 100 100 100 100 100 100 100 100 100 100 100 100 100 100 100 100 100 62 32 79 61 40 15 5 5 5 5 6 58
96 75 82 52 53 89 93 79 68 46 28 5 5 5 5 5 5 71 99 79 100 100 100 100 100 100 100 100 100 100 100 100 100 100 100 100 100 100 100 100 100 89 76 91 74 6 5 5 13 7 6 5 5 5
100 100 91 42 96 97 96 28 43 10 26 5 5 5 5 5 25 95 100 100 100 100 100 100 100 100 100 100 100 100 100 100 100 100 100 100 100 100 100 99 100 100 66 12 6 20 5 44 24 34 42 14 16 5

GFSWCAN_prec_cloud_084.txt.gz
Cloud_Cover
71 100 88 100 100 38 3 0 3 100 100 53 6 5 0 0 0 0 0 0 0 0 0 0 0 0 0 0 2 0 2 0 1 1 0 0 0 0 0 0 0 0 0 0 1 2 2 4 0 0 0 0 4 4
38 100 100 100 100 95 2 0 1 9 100 30 88 17 5 5 5 0 0 0 0 0 0 0 0 0 0 0 0 0 2 3 0 1 2 4 4 2 5 5 5 5 5 5 5 5 5 5 5 5 5 21 5 5
97 100 100 26 97 100 100 3 4 0 2 100 22 93 23 14 6 5 2 0 0 5 0 0 3 5 5 4 1 1 5 5 5 5 5 5 5 5 5 5 5 5 5 5 5 5 5 5 5 5 66 5 6 5
87 100 100 100 38 100 100 96 6 0 1 4 100 91 51 86 37 74 16 5 5 5 5 5 5 5 5 5 5 5 5 35 47 38 12 12 5 5 5 5 12 5 5 5 5 5 5 5 27 7 5 5 5 5
56 100 100 79 97 16 100 100 47 62 40 75 4 48 100 54 14 36 86 84 73 62 12 5 6 42 63 44 8 6 43 87 74 14 5 5 12 5 5 5 5 5 33 33 7 6 7 8 5 33 6 5 5 5
100 85 100 100 100 29 100 100 100 100 100 100 47 5 9 100 99 7 19 26 99 100 100 100 72 55 91 100 97 81 98 100 100 93 82 8 5 5 5 5 5 6 14 22 55 45 55 39 47 32 8 5 5 5
99 81 100 100 100 80 83 77 100 100 92 72 97 6 2 76 100 94 20 5 25 86 98 100 100 86 73 82 81 91 97 99 100 73 98 100 48 10 10 54 88 33 6 55 97 8 5 7 5 5 5 5 5 2
100 73 100 100 100 100 16 100 100 100 100 100 100 48 5 5 23 100 100 66 53 8 13 100 100 74 86 83 75 70 81 92 85 100 91 92 27 13 42 65 84 99 100 100 98 79 90 8 4 5 5 5 5 0
100 81 100 99 100 30 67 96 82 100 100 100 100 100 100 5 5 14 89 100 80 34 100 100 100 100 22 22 83 81 75 74 24 65 91 87 94 15 28 84 78 92 85 100 100 100 100 96 5 1 5 5 5 0
100 100 100 50 100 87 99 100 74 90 100 100 100 18 100 100 6 2 5 97 100 100 100 100 100 100 17 6 10 27 42 77 83 63 76 91 34 98 7 8 64 100 100 100 100 100 100 100 94 5 5 5 5 0
100 100 100 79 77 74 82 90 100 43 100 100 100 100 65 97 92 18 0 0 3 85 64 99 66 45 76 100 100 100 100 100 100 89 96 100 71 100 91 94 12 94 100 100 100 100 100 100 100 92 14 17 35 5
99 100 100 81 70 71 100 100 100 97 100 68 100 100 88 97 100 100 19 61 91 89 47 6 5 61 71 58 100 100 100 49 81 100 100 100 49 100 100 76 59 62 99 99 100 100 100 100 100 100 100 16 59 5
100 100 100 100 90 82 100 100 100 100 100 22 76 100 100 48 100 100 100 100 96 100 100 99 62 30 14 6 10 53 21 88 72 15 100 100 37 99 100 96 81 94 100 100 45 98 100 100 100 100 100 100 37 5
100 100 100 100 85 21 93 100 100 100 100 100 99 100 100 100 62 100 100 100 100 100 100 100 13 5 5 5 5 5 17 48 98 100 100 100 100 40 65 76 100 100 100 100 100 100 100 100 100 100 100 100 70 5
100 100 100 100 100 100 55 100 100 100 100 100 97 100 87 100 99 100 83 100 100 100 100 100 94 11 5 5 5 51 60 85 99 100 96 81 13 7 12 91 98 81 99 100 98 100 100 100 100 100 100 100 92 8
100 100 100 100 100 100 100 100 100 100 100 99 100 100 99 35 100 97 98 11 99 100 100 100 100 5 5 5 9 29 50 100 100 97 100 55 78 100 100 100 98 100 100 100 100 100 100 100 100 100 100 100 100 31
100 100 100 100 100 100 100 100 100 100 100 100 100 100 99 5 59 95 14 69 33 100 95 78 75 70 5 20 5 63 85 99 100 100 100 100 100 100 100 100 100 100 100 100 100 100 100 100 100 100 100 100 100 31
100 100 100 100 100 100 100 100 100 100 100 100 100 100 100 97 7 57 21 5 20 36 98 100 89 17 5 5 5 84 81 100 100 100 100 100 100 100 100 100 100 95 100 100 100 100 100 100 100 100 100 100 100 14
100 100 100 100 100 100 100 100 100 100 100 100 100 100 100 100 81 7 9 26 29 60 83 100 100 100 25 8 60 100 59 85 92 100 100 100 100 100 100 100 100 100 100 100 100 100 100 100 100 100 100 100 100 75
100 100 100 100 100 100 100 100 100 100 100 100 100 100 100 100 100 93 15 18 9 16 100 100 100 80 100 68 100 89 65 78 74 97 100 100 100 100 100 100 100 100 100 100 100 100 100 100 100 100 100 100 100 91
100 100 100 100 100 100 100 100 100 100 67 100 100 100 100 100 100 100 100 93 12 12 96 100 100 99 70 100 96 100 100 100 91 100 100 90 100 100 100 100 100 100 100 100 100 100 100 100 100 100 100 100 100 18
100 100 100 100 100 100 100 90 66 68 93 91 100 100 100 100 100 100 100 95 69 100 100 100 93 100 100 93 100 100 100 100 100 90 100 98 100 100 100 100 100 100 100 100 100 100 100 100 100 100 100 100 100 76
100 100 100 100 100 100 100 87 80 84 96 100 100 100 100 100 100 100 100 100 100 100 100 100 96 81 71 100 100 100 100 100 100 100 99 100 100 100 100 100 100 100 100 100 100 100 100 100 100 100 100 100 100 63
100 100 100 100 100 100 100 94 100 100 100 98 100 100 100 100 100 100 100 100 100 100 100 100 100 90 13 10 100 100 100 100 100 100 100 100 98 100 100 100 100 100 100 100 100 100 100 100 100 100 100 100 100 92
100 100 100 100 100 100 100 100 98 93 89 100 100 100 100 100 100 100 100 100 100 100 100 100 88 5 5 89 100 100 100 100 100 100 100 100 98 82 100 100 100 100 100 100 100 100 100 100 100 100 100 100 100 92
100 100 100 100 99 100 100 96 98 99 85 89 100 100 100 100 100 72 99 100 100 100 97 54 36 5 27 100 100 100 100 100 99 100 100 100 99 100 100 100 100 100 100 100 100 100 100 100 100 100 100 100 100 66
100 100 100 99 100 92 23 59 40 44 8 76 99 76 98 98 99 100 100 100 99 89 52 18 48 20 5 15 93 100 100 100 73 99 100 98 100 100 100 100 100 100 100 100 100 100 100 100 100 100 100 100 100 17
100 100 100 100 100 75 7 6 75 8 28 96 99 98 98 27 42 72 38 99 100 38 4 5 5 5 5 13 99 100 99 100 100 100 86 81 100 100 100 100 100 100 100 100 100 100 100 100 100 100 100 100 97 42
100 100 99 93 66 34 5 19 15 37 83 100 100 100 54 5 13 5 15 63 93 42 28 44 66 47 100 98 100 100 100 82 100 100 100 100 100 100 100 100 100 100 100 100 100 100 100 100 100 100 100 98 100 58
100 80 69 100 100 88 99 100 100 100 100 100 97 16 5 15 80 100 78 82 71 48 8 5 5 22 97 90 85 100 100 98 100 100 100 100 100 100 100 100 100 100 100 100 100 100 100 100 100 100 100 100 66 67
97 55 99 94 74 100 100 100 100 100 100 74 51 52 95 100 61 70 69 63 61 52 8 78 85 90 89 91 100 100 100 100 100 100 100 100 100 100 100 100 100 100 100 100 100 100 100 100 100 100 100 66 45 80
100 100 100 100 100 100 100 100 100 100 68 60 24 65 6 8 5 11 77 36 82 76 28 30 88 84 99 94 100 100 100 100 100 100 100 100 100 100 100 100 100 100 100 100 100 100 100 100 100 100 97 68 61 55
100 100 100 100 100 100 100 100 100 81 81 77 42 25 22 7 5 12 66 49 12 6 64 23 42 100 100 100 100 100 100 100 100 100 100 100 100 100 100 100 100 100 100 100 100 100 100 100 100 100 63 58 55 53

GFSWCAN_prec_cloud_087.txt.gz
Cloud_Cover
100 100 100 100 79 100 88 100 97 30 53 2 5 2 5 2 0 5 5 5 4 4 3 0 0 0 0 0 0 0 0 0 0 0 0 0 0 0 0 0 0 1 2 4 4 2 4 0 0 0 0 0 0 0
19 100 100 100 36 100 100 100 100 100 100 0 0 1 1 1 5 4 2 5 11 5 5 5 5 5 5 4 5 5 5 5 5 5 5 5 5 5 5 5 5 1 0 5 5 5 4 4 5 5 4 4 5 5
90 89 92 100 70 95 84 100 100 100 100 4 0 0 4 0 0 4 5 5 5 32 50 44 18 33 30 46 51 36 5 5 5 5 5 5 5 5 5 5 5 5 5 5 5 5 5 5 5 5 5 5 5 5
100 100 100 100 92 100 100 16 100 100 100 100 100 2 0 0 1 0 0 3 5 5 5 18 59 30 7 50 96 89 71 50 48 24 5 5 5 5 5 5 5 5 5 5 5 5 5 5 5 5 5 5 5 5
100 74 99 100 100 26 76 66 100 100 100 100 100 85 3 0 0 0 0 0 5 6 4 5 6 44 97 29 33 72 82 34 7 28 66 30 5 5 5 5 19 52 76 72 92 6 5 29 11 5 5 1 0 0
100 100 100 79 100 88 34 99 89 95 100 100 100 100 100 35 5 0 5 3 0 6 100 100 40 5 5 5 5 39 60 82 61 5 14 51 59 35 22 10 46 62 65 100 100 100 99 99 95 37 39 9 5 5
100 100 100 99 52 97 38 86 42 92 42 100 100 100 100 100 94 2 0 8 57 30 5 47 100 100 52 7 5 5 5 6 56 61 20 9 43 63 48 52 42 30 34 40 100 100 100 100 100 54 47 65 81 28
100 100 100 100 84 92 24 56 98 20 46 87 100 100 100 100 100 39 0 0 5 95 53 72 23 9 39 72 42 8 33 6 6 52 70 50 30 12 18 5 5 5 5 39 56 86 99 100 100 100 100 100 100 68
91 100 100 100 100 78 23 100 100 86 72 84 100 93 100 100 100 100 62 1 0 1 34 82 7 5 5 4 5 63 25 45 24 57 75 100 28 83 77 5 52 8 5 20 29 19 37 38 100 100 100 100 100 100
100 100 100 100 100 56 95 82 71 85 18 98 52 94 57 100 100 100 100 28 0 0 0 5 12 19 6 6 5 5 69 52 98 100 100 100 100 8 100 16 100 100 100 91 6 46 73 94 94 59 56 100 100 100
77 99 100 100 98 10 92 94 100 100 98 100 42 48 100 58 87 100 100 100 100 59 18 5 32 41 77 96 100 91 52 25 82 100 100 100 100 82 15 70 41 98 66 72 9 19 54 68 79 71 86 99 100 100
100 87 100 100 88 15 39 100 88 100 100 68 57 30 91 41 6 85 100 100 100 100 52 54 100 83 31 51 87 91 100 100 100 100 100 100 100 100 19 5 5 12 6 36 18 23 94 100 94 64 100 100 100 100
100 100 99 100 100 100 99 64 95 100 100 98 54 91 86 70 61 56 100 100 100 100 100 90 83 100 100 94 5 5 8 52 5 63 93 100 100 100 100 19 5 70 100 99 26 65 99 100 94 98 91 100 100 100
100 100 100 100 100 100 100 100 100 100 100 100 94 93 100 100 22 97 82 93 95 99 100 100 100 100 100 99 56 5 5 5 11 95 4 4 17 99 100 100 100 100 100 100 100 99 100 100 100 100 100 99 100 100
100 100 100 100 100 100 100 100 100 100 100 100 100 98 100 100 100 39 52 51 93 98 93 100 100 100 96 77 14 5 11 13 5 1 4 30 100 89 61 96 100 100 100 100 100 100 100 100 100 100 100 100 100 100
100 100 100 100 100 100 100 100 100 100 100 100 90 100 100 100 100 55 56 100 100 100 76 67 100 100 99 34 13 14 5 21 6 5 5 5 75 100 100 98 100 100 100 100 100 100 100 100 100 100 100 100 100 100
100 100 100 100 100 100 100 100 100 100 100 100 100 100 100 100 97 61 100 100 100 100 100 96 80 98 100 72 50 35 38 7 10 17 5 5 5 6 53 100 100 100 100 100 100 100 100 100 100 100 100 100 100 100
100 100 100 100 100 100 100 100 100 100 100 100 100 100 100 100 100 100 100 97 100 100 100 100 68 97 100 59 5 23 65 94 100 96 75 30 11 96 100 100 83 94 100 100 100 100 100 100 100 100 100 100 100 100
100 100 100 100 100 100 100 100 100 100 100 100 100 100 100 100 100 94 27 68 100 100 100 100 100 100 100 94 5 9 94 100 75 50 86 88 84 81 96 100 100 100 100 100 100 100 100 100 100 100 100 100 100 100
100 100 100 100 100 100 100 100 100 100 100 100 100 100 100 100 100 100 88 58 99 100 100 100 100 99 10 13 7 86 60 98 99 97 98 41 99 100 99 100 100 100 100 100 100 100 100 100 100 100 100 100 100 100
100 100 100 100 100 100 100 100 100 100 100 100 100 100 100 100 100 100 100 100 100 100 100 100 100 100 5 5 5 34 76 89 91 97 100 100 100 100 100 100 100 100 100 82 84 100 100 100 100 100 100 100 100 100
100 100 100 100 100 100 100 100 100 100 100 100 100 100 100 100 100 100 100 100 100 100 100 100 100 100 35 27 6 84 100 27 7 98 100 100 100 100 100 100 97 100 100 41 51 100 100 100 100 100 100 100 100 100
100 100 100 100 100 100 100 100 100 100 100 100 97 100 100 100 100 100 86 100 100 100 100 100 100 100 100 100 90 52 10 5 33 100 99 100 100 100 100 100 100 100 99 96 43 100 100 100 100 100 100 100 100 100
100 100 100 100 100 100 100 100 100 100 100 100 100 100 100 100 100 100 96 100 100 100 100 100 100 100 100 100 100 98 9 5 94 100 97 98 100 100 99 100 100 100 100 45 91 100 100 100 100 100 100 100 100 100
100 100 100 100 100 100 100 100 100 100 100 100 100 100 100 100 100 100 100 100 100 100 100 100 100 100 100 100 77 100 96 82 100 100 100 100 100 92 88 64 90 100 55 67 100 100 100 100 100 100 100 100 100 100
100 100 100 100 100 100 100 100 100 100 100 100 100 100 100 100 100 32 42 100 100 100 95 99 100 100 100 100 100 100 100 92 77 100 100 96 21 48 100 100 79 82 19 99 100 100 100 100 100 100 100 100 100 100
100 100 100 100 100 100 100 100 100 100 100 100 100 100 100 100 100 90 97 87 100 100 69 100 100 99 54 90 98 100 98 44 96 89 100 100 72 91 96 72 76 99 72 100 100 100 100 100 100 100 100 100 100 100
100 100 100 100 100 100 100 100 100 100 100 100 100 100 100 100 100 100 97 21 92 35 28 32 7 10 7 32 30 8 54 50 83 100 100 100 22 80 99 93 98 96 100 100 100 100 100 100 100 100 100 100 100 100
100 100 100 100 100 100 100 100 100 100 100 100 100 97 79 59 93 100 35 10 56 5 5 5 22 66 66 63 32 18 100 87 69 89 20 99 98 98 100 100 100 100 100 100 100 100 100 100 100 100 100 100 100 100
100 100 100 100 100 100 100 100 100 100 100 100 100 73 38 45 63 73 60 74 5 5 5 5 5 5 17 6 54 92 42 5 8 20 75 64 100 100 100 100 100 100 100 100 100 100 100 100 100 100 100 100 100 100
100 100 100 100 100 100 100 100 100 100 99 100 86 23 51 53 6 68 20 8 5 49 49 56 46 5 5 5 5 10 18 5 19 75 96 100 100 100 100 97 100 100 100 100 100 100 100 100 100 100 100 100 100 100
100 100 100 100 100 100 100 100 100 100 100 70 10 95 8 5 5 5 51 47 40 56 5 4 5 5 5 5 5 5 54 70 90 83 100 100 100 100 100 100 100 100 100 100 100 100 100 100 100 100 100 100 100 100
100 100 100 100 100 100 100 100 100 100 92 98 52 51 27 7 17 94 87 34 12 2 4 5 5 5 5 5 5 21 82 85 73 100 100 90 100 96 100 100 100 100 100 100 100 100 100 100 100 100 100 100 100 100

GFSWCAN_prec_cloud_090.txt.gz
Cloud_Cover
89 80 98 100 97 93 21 50 41 19 46 6 5 25 2 0 0 5 3 0 0 0 4 5 5 5 5 5 5 3 2 3 4 4 2 0 0 0 0 0 0 0 1 3 1 2 0 2 0 0 0 0 0 0
100 100 100 100 100 100 90 14 93 8 98 34 86 29 100 12 0 0 0 1 2 0 0 0 2 5 5 2 4 0 1 0 1 0 0 0 0 0 0 0 0 0 0 0 0 0 0 3 1 5 4 0 0 0
100 100 100 100 100 84 100 47 27 100 95 74 85 100 84 100 9 0 0 0 0 0 0 1 2 0 1 4 5 5 5 2 1 5 2 2 2 1 5 5 2 2 5 7 2 0 0 1 0 0 0 0 0 0
100 100 93 100 100 99 100 88 40 78 90 99 23 38 94 63 76 46 0 0 0 0 2 1 28 75 7 5 2 2 1 0 2 5 5 5 2 5 5 5 5 5 5 37 93 100 69 19 92 66 13 5 5 5
100 100 100 100 100 99 94 100 74 29 74 100 97 90 24 6 30 99 73 1 0 1 5 5 4 5 5 5 5 5 2 5 5 5 5 5 5 5 5 5 5 5 5 5 7 81 68 7 62 100 100 100 95 88
100 100 100 100 100 100 57 100 100 65 86 86 100 100 100 90 100 92 100 99 8 0 5 5 5 5 5 5 5 5 5 5 5 20 56 14 50 93 68 16 5 5 5 4 5 5 6 6 46 56 27 99 100 100
100 100 100 100 100 100 92 100 100 100 14 53 100 49 42 18 99 39 39 95 100 53 49 4 6 5 5 5 8 60 68 87 46 60 17 26 5 8 65 100 100 61 5 5 5 5 5 73 100 96 56 100 100 96
100 100 100 100 100 100 95 100 99 100 100 55 99 73 10 31 5 69 98 100 100 97 74 52 16 4 5 4 0 6 22 90 100 100 97 100 100 13 71 88 5 20 97 100 96 71 70 62 43 67 72 61 98 96
100 100 100 100 100 100 100 78 85 82 87 69 15 28 100 32 14 84 57 100 100 53 46 66 100 72 0 0 4 5 60 92 100 100 100 100 100 100 100 100 100 99 82 49 52 23 49 90 92 71 86 100 100 100
100 100 100 100 100 100 81 100 17 100 67 52 48 19 6 96 10 6 85 100 100 87 90 72 59 100 96 24 4 5 24 9 54 94 98 100 100 87 92 5 5 59 97 100 91 30 55 100 100 100 100 100 100 100
100 100 100 100 100 100 88 37 100 100 74 37 76 55 41 5 90 7 16 71 89 100 18 77 58 100 100 100 79 7 9 37 5 5 5 5 11 20 19 6 14 51 72 95 99 100 100 100 100 100 100 100 100 100
100 100 100 100 100 100 100 66 100 100 36 22 72 79 100 38 29 8 12 97 68 84 85 22 56 5 64 50 22 100 85 89 90 24 24 41 4 2 2 0 0 3 91 100 100 100 100 100 100 100 100 100 100 100
100 100 100 100 100 100 100 100 100 96 98 83 96 70 100 94 56 24 5 97 42 95 100 89 45 19 7 76 100 29 100 100 100 96 84 79 5 4 0 0 1 72 100 100 100 100 100 100 100 100 100 100 100 100
100 100 100 100 100 100 100 100 100 100 100 86 48 99 89 100 100 76 86 71 100 90 55 72 63 59 41 5 80 99 7 48 99 97 69 41 75 43 6 1 0 2 5 54 99 100 100 100 100 100 100 100 100 100
100 100 100 100 100 100 100 100 100 100 100 100 99 100 100 100 100 100 89 30 70 100 61 94 100 100 92 20 78 10 95 13 23 48 60 52 100 12 30 51 4 0 4 5 5 5 51 96 100 100 100 100 100 100
100 100 100 100 100 100 100 100 100 100 100 95 70 86 100 100 100 100 75 55 91 100 66 21 100 100 100 100 100 14 66 100 77 34 14 27 51 49 59 14 30 12 20 61 9 31 45 76 64 78 100 100 100 100
100 100 100 100 100 100 100 100 100 100 100 99 92 97 100 100 100 100 26 65 55 99 91 38 100 100 100 100 72 98 97 100 100 22 5 55 95 62 36 95 81 100 98 91 74 85 83 96 94 78 44 62 68 100
100 100 100 100 100 100 100 100 100 100 100 100 98 100 100 100 100 100 89 66 100 100 100 43 78 100 100 100 95 6 11 100 100 100 100 78 99 52 82 100 37 96 100 100 72 63 37 54 92 72 40 80 80 100
100 100 100 100 100 100 100 100 100 100 100 100 100 100 100 100 100 100 100 100 100 100 100 6 51 100 100 100 100 65 30 100 100 100 92 83 58 100 89 42 84 99 96 100 100 97 87 82 66 21 37 90 100 97
100 100 100 100 100 100 100 100 100 100 100 100 100 100 100 100 100 100 100 100 100 100 91 98 100 100 100 100 100 99 86 100 100 100 23 87 100 94 64 100 100 100 100 100 100 89 68 100 100 32 73 100 93 100
100 100 100 100 100 100 100 100 100 100 100 100 92 100 100 100 100 100 100 100 100 100 100 100 100 100 36 70 87 100 29 100 100 100 100 100 77 100 100 68 20 68 34 69 100 99 78 91 100 89 90 100 97 100
100 100 100 100 100 100 100 100 100 100 99 82 100 96 100 100 100 100 100 100 100 100 100 100 100 100 54 55 84 83 82 100 100 100 95 46 82 100 100 100 100 100 100 84 100 99 100 100 100 54 100 93 100 99
100 100 100 100 100 100 100 100 100 100 100 99 99 100 100 100 100 100 100 100 100 100 100 100 100 100 94 100 59 81 79 100 100 100 96 52 81 100 100 100 70 18 5 10 96 100 76 100 96 62 100 89 100 100
100 100 100 100 100 100 100 100 100 100 100 100 100 100 100 100 100 100 100 100 100 100 100 100 100 100 100 100 99 84 98 100 100 100 100 100 97 97 100 92 15 6 100 99 100 99 100 100 27 87 100 99 100 100
100 100 100 100 100 100 100 100 100 100 100 100 99 100 100 100 100 95 95 100 100 100 100 100 100 55 18 81 100 100 96 68 100 100 100 100 100 55 63 41 8 5 5 7 91 100 66 7 24 100 99 100 100 100
100 100 100 100 99 100 100 100 100 100 100 100 100 100 100 100 100 100 100 100 100 100 100 100 100 100 100 100 89 100 100 100 100 94 35 60 61 18 45 5 25 45 23 97 100 58 39 35 100 100 99 100 100 100
100 100 100 96 97 100 100 100 100 100 100 100 100 100 100 100 100 100 100 100 100 100 100 100 100 100 100 100 94 100 100 100 100 100 100 100 73 39 53 5 5 14 100 96 44 6 88 100 100 81 100 100 100 100
100 100 56 96 86 99 100 100 100 100 100 100 100 100 100 99 95 100 100 100 100 100 100 100 100 100 100 100 100 100 100 100 100 100 100 99 99 68 5 5 5 97 100 99 99 78 100 100 100 100 100 100 100 100
100 97 52 79 100 94 99 100 100 100 100 100 100 100 100 100 100 100 100 92 100 100 100 100 100 100 100 100 76 100 100 100 44 5 5 5 12 18 53 18 64 99 100 100 93 100 100 100 100 100 100 100 100 100
97 97 76 26 48 97 100 100 100 100 100 100 100 100 100 100 100 98 50 32 66 46 8 48 100 100 94 92 42 83 74 22 5 4 5 5 5 5 6 26 56 82 100 84 100 100 100 100 100 100 100 100 100 100
84 100 83 85 100 100 100 100 100 100 100 97 97 99 98 100 62 92 90 78 26 5 5 22 38 13 59 90 33 13 6 19 5 5 43 9 5 5 5 90 36 56 88 99 100 100 100 100 100 100 100 100 100 100
100 100 85 67 30 82 80 100 100 100 100 100 100 100 92 67 38 26 86 67 76 99 49 5 5 5 5 4 5 5 5 5 5 5 5 9 78 72 14 55 94 100 100 100 100 100 100 100 100 100 100 100 100 100
100 91 94 100 100 100 100 100 100 100 100 100 99 100 100 77 88 92 91 34 5 3 0 0 2 5 5 5 5 5 5 8 5 22 24 64 95 68 67 100 100 100 100 99 99 100 100 100 100 100 100 100 100 100

GFSWCAN_prec_cloud_096.txt.gz
Cloud_Cover
100 100 100 100 100 100 100 100 100 52 89 99 14 7 5 33 72 42 3 2 0 0 0 0 5 3 0 0 0 0 0 0 0 1 0 1 5 0 0 0 0 0 1 3 4 2 1 0 0 2 5 5 5 5
100 100 100 100 100 100 100 100 100 100 100 100 88 26 8 16 87 100 69 15 2 0 0 0 0 2 5 4 4 1 4 0 0 0 0 0 0 0 0 0 0 0 0 0 0 0 0 0 0 0 0 0 0 0
100 100 100 100 100 100 100 100 100 100 100 100 100 58 20 5 5 55 97 85 98 17 0 0 0 0 0 0 0 3 5 5 5 5 5 5 5 5 9 7 8 6 5 4 5 5 5 5 5 5 3 0 0 0
100 100 100 100 100 100 100 100 100 100 100 100 100 100 68 47 7 27 69 88 85 30 90 6 0 0 0 0 0 0 0 0 4 5 5 5 5 5 5 5 55 99 57 84 41 99 55 5 12 8 11 70 77 55
100 100 100 100 100 100 100 100 100 100 100 100 96 100 100 100 100 8 12 60 21 58 86 88 63 3 0 0 0 0 0 0 0 5 14 21 5 15 5 5 68 100 32 53 36 12 9 12 4 58 95 70 77 100
100 100 100 100 100 70 78 100 100 99 100 100 100 100 100 100 98 74 5 5 12 70 95 82 100 94 41 3 0 0 2 5 5 5 5 5 5 4 0 4 5 3 5 5 5 43 5 5 1 0 3 84 100 100
100 100 100 100 100 100 100 100 100 95 100 100 100 100 100 100 100 78 5 5 5 5 5 7 23 81 46 96 45 3 2 5 5 5 8 5 5 6 6 8 19 2 8 5 5 5 2 5 0 0 0 1 65 100
99 100 100 100 100 100 100 99 97 100 100 100 100 100 100 100 100 95 5 5 5 5 4 5 5 10 9 7 26 7 5 4 5 5 5 5 5 7 38 5 17 15 23 25 26 8 5 5 3 0 0 6 99 100
100 100 100 100 100 100 100 100 100 100 92 100 100 100 100 100 100 100 96 70 5 5 20 7 5 5 6 9 5 7 37 7 7 5 5 4 8 51 1 5 51 100 100 27 39 97 36 99 5 2 0 4 32 79
100 91 100 100 100 100 100 100 100 100 77 100 89 100 100 100 100 100 100 100 100 19 78 87 9 5 5 86 18 5 24 58 6 43 5 48 9 1 5 76 100 77 100 100 32 4 3 6 11 50 6 1 0 5
100 100 100 100 100 100 100 100 100 100 100 77 82 100 100 100 100 100 100 100 100 100 40 17 6 8 5 26 36 69 99 40 50 44 29 92 14 5 8 100 100 100 100 100 53 47 93 6 5 0 1 5 6 44
100 100 100 100 100 100 100 100 100 100 100 100 88 84 97 100 100 100 100 100 100 100 72 7 13 89 14 27 7 41 46 89 64 55 98 99 20 18 84 100 83 93 100 100 98 100 98 5 1 1 0 3 4 5
100 100 100 100 100 100 100 100 100 100 100 100 100 100 91 96 100 100 100 100 100 100 100 100 94 6 46 6 6 13 34 97 43 100 100 100 91 30 80 98 100 81 100 100 82 16 2 5 98 24 7 70 5 2
8 94 100 100 100 100 100 100 100 100 100 100 100 100 100 60 100 100 100 100 100 100 100 100 100 100 100 30 5 12 40 100 94 100 100 100 100 100 100 100 100 100 80 100 100 14 13 99 100 100 100 28 8 100
68 76 100 100 99 100 100 100 100 100 100 100 100 100 100 100 93 100 100 100 100 100 100 100 100 100 100 100 30 7 81 94 100 47 100 90 100 100 100 100 100 100 96 100 100 100 46 38 90 100 100 97 100 41
6 100 58 78 100 100 100 100 100 100 100 100 94 93 100 100 100 100 100 100 100 100 100 100 100 100 100 100 100 98 99 98 5 44 100 39 15 59 92 100 100 100 100 96 100 98 100 76 56 100 76 99 100 100
94 100 93 62 100 100 100 100 100 100 100 100 97 25 100 100 100 100 100 100 100 100 100 100 100 100 56 61 100 100 100 17 5 5 5 95 100 100 100 100 100 100 100 100 100 71 80 80 76 100 93 100 100 100
25 5 8 98 100 100 100 100 100 100 100 100 100 92 88 84 100 100 100 100 100 100 100 100 100 100 100 100 100 100 98 89 10 7 58 100 100 100 100 100 100 100 100 100 100 100 100 47 100 100 90 100 100 100
6 72 23 42 91 100 100 100 100 100 84 99 100 100 100 100 100 100 100 100 100 100 100 100 100 100 100 100 100 100 100 100 82 51 99 100 100 100 100 100 100 100 100 100 100 100 100 100 100 100 100 100 96 100
8 10 28 48 100 100 100 100 100 100 100 92 100 100 100 100 100 100 100 100 100 100 100 92 100 100 100 100 100 100 100 98 99 100 100 100 100 100 100 100 100 100 100 100 100 100 98 100 100 100 100 100 100 100
5 5 5 77 100 100 100 100 100 97 98 93 83 100 100 100 100 100 100 100 100 99 71 100 100 100 100 100 100 100 100 100 100 100 100 100 100 100 100 100 100 100 100 100 100 100 100 100 100 100 100 100 100 100
10 71 83 100 100 100 100 100 100 83 98 100 100 100 100 88 94 100 100 100 100 100 59 100 100 100 100 100 100 100 99 97 93 100 100 100 100 100 97 100 100 95 100 100 100 100 100 100 100 100 100 100 100 96
100 100 100 100 100 100 100 100 100 100 94 100 94 100 94 88 86 100 100 43 8 53 100 100 100 100 100 100 100 100 100 100 100 94 82 100 100 100 100 100 100 70 98 100 100 100 100 100 100 100 100 100 100 52
100 100 100 100 100 100 100 99 100 100 100 98 75 79 72 97 98 100 85 17 63 100 100 100 100 100 100 100 100 100 100 100 100 100 100 100 100 100 100 100 100 100 100 100 100 100 100 100 100 100 100 99 29 48
100 100 100 100 99 100 82 83 87 91 73 79 100 98 84 94 100 100 76 57 100 100 100 100 100 97 90 100 100 100 100 100 100 100 100 100 100 100 100 100 100 100 100 100 100 100 100 100 100 100 12 11 5 71
100 81 100 9 60 80 95 85 86 65 94 97 78 94 96 100 100 57 12 100 100 100 100 100 96 38 90 100 100 100 100 100 100 100 100 100 100 100 100 100 100 100 100 100 100 100 91 83 100 79 5 5 45 96
94 95 80 47 35 21 50 38 6 9 76 55 89 87 98 100 70 6 10 98 100 100 96 99 100 70 51 66 100 100 100 100 100 100 100 100 100 100 100 100 100 100 100 100 100 89 29 68 89 8 10 49 99 100
39 92 100 87 88 54 33 76 50 69 5 15 47 89 92 14 3 5 33 100 100 98 100 100 100 100 66 34 30 44 58 95 100 100 100 100 100 100 100 100 100 100 100 100 81 96 89 80 5 7 40 95 100 97
94 95 76 87 100 74 67 26 5 5 5 5 5 11 5 5 5 6 100 99 96 100 100 100 100 100 91 79 76 61 43 42 66 100 100 100 100 100 100 100 100 100 100 98 82 49 96 94 5 19 74 51 97 99
91 99 100 100 99 55 6 5 5 11 9 78 72 8 17 5 5 8 57 100 87 99 100 100 100 100 100 100 71 73 70 42 89 100 100 100 100 85 58 85 100 100 100 100 100 100 93 25 45 98 94 100 100 96
15 92 73 45 6 21 5 55 76 5 51 57 89 14 6 71 43 64 33 91 100 100 69 88 100 100 100 100 100 97 94 96 100 100 100 100 96 45 77 100 100 100 100 100 81 67 42 61 21 67 76 100 96 99
93 81 48 91 57 29 84 62 49 16 43 100 100 60 6 5 8 16 96 50 83 100 100 100 100 100 100 100 91 77 100 100 100 100 100 100 100 100 100 100 100 100 59 48 16 12 34 79 80 51 95 92 74 78
89 94 89 64 56 84 54 20 74 52 57 97 100 100 68 7 24 96 100 66 30 98 14 92 100 100 87 94 100 100 100 100 100 100 100 100 100 96 44 67 56 14 15 8 57 97 86 66 82 31 82 55 59 88

GFSWCAN_prec_cloud_099.txt.gz
Cloud_Cover
100 100 100 87 34 57 100 100 100 100 100 100 100 67 100 18 32 73 5 33 5 2 0 0 3 0 0 0 0 0 0 3 1 0 0 4 5 5 8 7 15 18 46 42 20 18 16 16 15 5 5 4 3 2
100 100 100 100 100 83 12 22 100 100 100 100 72 100 79 97 5 90 76 12 5 20 0 0 0 1 0 0 0 0 0 0 0 4 5 5 5 5 5 5 27 8 7 17 45 100 56 46 23 33 16 56 100 100
100 100 100 100 100 100 100 82 13 67 100 100 92 100 98 76 59 61 92 30 16 5 5 4 5 4 0 0 0 0 0 0 0 0 0 2 5 5 5 5 6 5 3 5 5 5 5 5 5 3 0 0 0 0
100 100 100 100 100 100 100 100 100 100 100 11 100 100 100 100 92 91 100 98 81 24 5 50 6 5 5 4 1 0 0 0 0 0 0 0 1 0 2 1 1 2 5 5 0 0 0 0 4 5 3 0 0 0
100 100 100 100 100 100 100 100 100 100 100 100 100 100 100 100 100 100 100 100 100 100 57 5 6 49 6 5 5 5 2 3 4 2 10 4 5 3 0 13 22 4 3 4 5 5 5 1 1 4 2 0 0 0
100 100 100 100 100 100 100 100 100 100 100 100 100 100 80 100 100 100 100 100 100 100 73 52 7 5 11 38 28 33 5 5 2 5 5 5 5 4 4 4 0 0 3 5 21 100 88 99 5 5 4 0 0 0
100 100 100 100 100 100 100 100 100 100 100 100 100 100 100 100 100 99 98 100 100 100 100 48 5 5 5 5 5 5 5 5 5 8 20 5 5 7 9 16 0 8 78 30 16 33 6 16 20 50 5 1 0 0
100 100 100 100 100 100 100 100 100 100 100 100 100 100 100 100 74 85 100 98 100 100 100 100 60 78 59 5 5 5 15 5 94 92 100 79 28 12 91 31 6 64 15 43 60 14 8 6 98 9 3 95 1 1
100 100 100 100 100 100 100 100 100 100 100 100 100 100 100 100 100 98 65 100 98 100 100 100 100 100 100 51 5 5 5 31 5 94 61 95 100 92 90 100 100 100 66 99 33 49 78 69 91 5 5 100 8 16
100 100 100 100 100 100 100 100 100 100 100 100 100 100 100 100 100 72 96 7 80 100 100 100 100 100 100 100 68 7 6 15 52 86 68 100 100 57 100 100 78 100 100 100 100 63 100 94 38 23 6 78 5 1
100 100 100 100 100 100 100 100 100 100 100 100 100 100 100 100 100 100 100 100 86 100 100 100 100 100 100 100 66 21 20 40 82 94 45 100 39 88 86 100 90 50 100 100 100 98 100 100 49 44 57 13 5 5
100 100 98 100 100 100 100 100 100 100 100 100 100 100 100 100 100 100 100 100 100 100 100 99 71 74 100 100 77 98 92 52 100 100 91 100 8 62 5 12 57 100 100 100 100 100 100 100 100 100 62 42 36 5
66 100 100 100 100 100 100 100 100 100 100 100 100 100 100 100 100 100 100 100 100 100 100 100 62 48 89 67 100 24 98 100 100 100 100 58 6 58 67 37 65 16 95 100 100 100 100 100 78 100 88 29 93 68
66 92 50 99 100 100 100 100 100 100 100 100 100 100 100 60 99 100 100 100 100 100 100 100 100 68 36 66 98 100 100 100 100 100 100 100 95 96 86 100 100 100 100 100 100 100 100 100 100 100 100 100 100 100
34 5 5 5 5 39 100 100 100 100 100 100 100 98 100 100 79 100 100 100 100 100 100 100 100 100 34 55 98 100 100 100 100 100 100 100 100 16 10 89 100 100 100 100 100 100 100 100 100 100 100 100 100 100
0 15 39 87 19 100 100 100 100 100 100 100 100 94 12 18 97 100 100 100 100 100 100 100 100 100 97 43 69 100 100 100 100 91 95 100 100 100 98 97 100 100 96 33 53 100 100 100 100 100 100 100 100 100
8 96 4 74 36 27 91 100 100 100 100 100 97 54 6 19 91 56 99 100 100 100 100 100 100 100 100 100 67 87 100 100 94 100 100 97 100 100 100 100 100 100 96 100 100 100 100 100 100 100 100 100 100 100
97 26 2 50 20 87 100 100 100 100 100 98 100 80 30 5 23 100 100 100 100 100 100 100 100 99 100 100 100 100 100 100 100 65 29 19 74 100 100 100 100 100 100 100 100 100 100 100 100 100 100 100 100 100
16 0 0 48 99 98 100 100 100 100 100 96 69 80 21 82 100 100 100 100 100 100 100 100 100 100 100 100 100 100 100 100 94 23 95 82 66 72 100 100 100 100 100 100 100 100 100 100 100 100 89 100 100 100
5 5 1 7 100 100 100 100 100 100 100 99 100 95 31 26 85 100 100 100 100 100 100 100 61 100 100 100 100 100 100 100 82 57 97 100 100 100 100 100 100 100 100 100 100 100 100 100 100 100 100 100 100 100
5 5 5 51 100 100 100 100 91 98 100 100 100 100 100 66 52 100 100 100 100 100 80 13 79 100 100 100 100 100 100 100 100 100 100 100 100 100 100 100 100 100 100 100 100 100 100 100 100 100 100 100 100 100
8 94 86 91 100 100 100 100 100 97 99 87 100 100 99 71 68 99 100 100 100 71 59 88 99 100 100 100 100 100 100 100 100 100 100 100 99 100 100 100 100 100 100 100 100 100 100 100 100 100 100 100 100 100
95 100 100 100 100 100 44 100 100 100 86 94 96 100 84 82 51 76 100 79 25 92 100 100 100 100 100 100 100 88 81 100 100 100 100 100 100 100 100 100 100 100 100 100 100 100 100 100 100 100 100 100 100 100
99 100 100 100 100 92 77 100 100 79 99 100 100 82 57 83 98 100 95 21 4 63 88 100 100 100 100 100 54 99 100 100 58 100 100 100 100 100 100 100 100 100 100 100 100 100 100 100 100 100 100 100 100 100
100 100 100 100 100 86 87 97 100 99 67 86 86 80 100 100 100 100 50 5 1 0 50 100 100 100 100 39 22 94 100 100 86 94 100 100 100 100 100 100 100 100 100 100 100 100 100 100 100 100 100 100 100 100
100 91 97 54 49 45 44 89 94 70 94 98 79 80 90 100 100 57 11 2 0 0 52 100 100 87 8 45 80 100 100 71 16 78 100 100 100 100 100 100 100 100 100 100 100 100 100 100 100 100 100 100 100 100
100 73 70 76 67 90 83 49 59 37 96 74 85 99 100 100 95 6 7 66 6 5 18 41 62 97 100 100 100 100 100 100 98 61 96 100 100 100 100 100 100 100 100 100 100 100 100 100 100 100 100 100 100 94
99 100 43 50 68 68 67 90 85 82 5 5 43 95 85 14 5 5 27 98 98 93 98 98 100 100 100 100 100 100 100 100 98 100 100 99 100 100 100 100 100 100 100 100 100 100 100 100 100 100 100 98 80 100
75 81 29 76 70 60 82 28 5 5 5 12 5 5 5 5 5 5 5 8 60 8 5 12 99 100 100 100 100 100 100 100 100 100 100 100 70 80 99 97 71 100 100 100 100 100 99 99 94 100 100 94 84 95
80 49 75 56 77 74 6 5 5 51 100 80 31 12 5 3 5 30 5 7 41 100 15 56 99 100 100 100 100 100 100 100 100 100 100 90 100 100 69 37 100 100 100 100 100 100 100 100 100 100 99 77 65 46
6 53 83 69 53 18 5 62 82 98 85 69 65 23 0 2 4 5 5 5 3 39 5 5 18 100 100 100 100 100 100 100 100 100 100 100 100 96 66 100 100 100 100 100 100 96 100 100 100 100 60 59 97 12
88 96 67 96 57 23 82 92 72 72 38 85 4 75 8 5 33 0 0 4 5 2 21 90 28 19 46 13 65 97 100 100 100 100 100 100 100 93 100 99 100 100 96 61 100 100 100 100 100 73 74 100 46 5
84 81 99 90 83 96 92 27 66 77 85 97 28 1 1 6 5 0 34 66 100 45 3 41 100 100 100 90 100 100 100 100 100 100 100 100 99 97 81 87 100 100 100 100 100 100 100 100 79 68 96 34 14 72

GFSWCAN_prec_cloud_102.txt.gz
Cloud_Cover
100 100 100 100 100 100 100 100 100 100 98 6 96 72 100 64 86 14 50 5 6 0 0 1 5 1 2 4 3 2 0 0 0 0 2 5 20 20 10 5 1 1 2 0 4 4 2 1 0 0 0 0 0 0
100 100 100 100 100 100 100 100 100 100 100 100 97 82 100 100 100 100 100 90 40 95 32 5 5 5 5 4 0 0 0 0 0 4 0 0 0 0 0 0 0 2 0 0 0 0 4 5 5 5 5 5 3 0
100 100 100 100 100 100 100 100 50 96 100 100 100 100 89 100 100 100 100 100 100 100 12 95 5 5 38 74 35 6 2 0 0 4 1 0 0 3 0 0 0 4 4 5 3 5 9 5 19 16 12 0 2 0
100 100 100 100 100 100 100 100 94 100 100 100 100 100 100 100 100 100 100 100 100 100 96 85 25 6 5 5 8 5 5 5 3 0 0 0 0 0 3 0 1 2 3 5 5 5 5 5 5 100 30 3 5 2
100 100 100 100 100 100 100 100 100 96 100 100 100 100 100 100 100 100 100 100 100 100 100 100 41 5 5 5 5 5 5 5 5 5 5 5 4 4 5 5 5 5 5 5 12 20 5 5 14 61 10 5 12 5
100 100 100 100 100 100 100 100 100 100 100 96 100 98 100 100 100 100 100 100 100 100 100 100 100 100 24 23 5 6 5 5 5 32 15 5 55 28 5 5 5 5 0 6 5 5 5 5 8 5 20 5 5 5
100 100 100 100 100 100 100 100 100 100 100 100 100 98 87 100 100 100 100 100 100 100 100 100 100 100 100 100 53 100 9 5 5 5 5 16 50 84 5 6 52 13 5 5 5 5 5 6 100 100 100 22 5 5
100 100 100 100 100 100 100 100 100 100 100 100 100 100 100 91 100 100 100 100 100 100 100 100 100 100 100 100 100 30 92 5 5 5 5 5 5 54 44 6 100 100 94 99 94 32 20 68 100 94 100 98 7 18
100 100 100 100 100 100 100 100 100 100 100 100 100 100 100 100 84 83 78 100 100 100 100 100 100 100 100 100 100 95 7 22 5 29 8 12 85 92 84 58 100 100 100 100 100 100 100 100 100 100 100 100 100 100
100 100 100 100 100 100 100 100 100 100 100 100 100 100 100 100 100 71 83 83 100 100 100 100 100 100 100 100 100 100 100 99 72 32 20 80 20 20 100 100 100 99 100 100 100 100 100 100 100 100 100 100 100 100
100 100 100 100 100 100 100 100 100 100 100 100 100 100 100 100 100 82 98 91 73 100 100 100 100 100 100 100 100 100 100 100 100 97 42 56 100 100 100 100 100 100 100 100 100 100 100 100 100 100 100 100 100 100
100 100 100 100 100 100 100 100 100 100 100 100 100 100 100 100 93 62 68 100 100 89 100 100 100 100 100 100 98 99 74 100 100 100 100 100 8 57 100 100 100 100 100 88 98 100 100 100 100 100 98 99 100 100
10 84 100 100 100 100 100 100 100 100 100 100 100 100 100 98 82 97 100 93 100 100 99 28 45 99 100 100 100 100 100 100 46 99 100 96 2 0 68 100 100 100 100 87 100 100 100 100 100 100 100 100 100 100
4 1 57 5 5 5 62 100 100 100 100 100 100 100 100 100 100 100 98 100 83 100 78 91 71 16 16 95 100 100 100 100 100 100 100 96 34 100 96 99 44 99 96 58 100 85 100 100 100 100 100 100 100 100
2 0 0 2 0 5 51 100 99 100 100 100 100 100 77 78 86 29 40 96 100 99 100 92 55 98 63 60 69 100 92 100 100 100 100 98 100 8 32 30 100 87 15 93 25 74 100 100 100 100 100 100 100 100
35 74 80 73 9 32 8 100 99 100 100 100 100 100 76 18 12 15 78 100 100 100 100 100 100 93 99 87 54 17 87 100 100 100 100 100 94 38 77 50 98 100 100 60 77 45 61 100 100 100 100 100 100 100
2 19 0 4 53 71 28 100 100 100 100 100 86 78 8 5 5 5 97 100 100 100 100 100 100 99 100 68 11 88 98 100 100 79 100 99 100 100 100 100 100 100 100 99 99 84 63 100 100 100 100 100 100 100
93 4 1 0 10 84 98 100 100 100 100 99 100 27 89 6 5 5 68 100 100 100 100 100 100 100 94 10 100 100 100 100 100 100 100 100 94 100 100 100 100 100 100 100 100 100 100 100 100 100 100 100 100 100
4 1 4 1 4 57 100 100 100 100 95 81 100 98 46 8 11 11 8 100 100 100 100 100 100 52 4 10 100 100 100 100 100 100 100 96 32 27 96 100 100 100 100 100 100 100 100 100 100 100 100 100 100 100
5 4 3 67 14 93 100 100 100 77 73 20 81 69 99 68 75 100 100 100 100 99 100 100 66 5 16 100 100 100 100 99 61 97 100 100 100 94 64 100 100 100 100 100 100 100 100 100 100 100 100 100 100 100
37 5 5 26 100 100 100 100 100 100 86 99 82 99 90 87 86 100 100 100 100 100 69 10 6 98 100 100 100 100 98 100 100 100 100 100 100 100 84 97 100 100 100 100 100 100 100 100 100 100 100 100 100 100
54 95 92 86 100 100 100 100 100 95 100 100 100 100 97 67 64 74 99 100 100 35 5 12 74 100 100 100 100 100 100 99 100 100 100 100 100 100 100 100 100 100 100 100 100 100 100 100 100 100 100 100 100 100
100 100 100 100 100 100 63 94 100 100 96 72 80 99 88 83 36 84 100 70 6 0 78 100 95 100 40 62 100 100 100 100 100 98 100 100 100 100 100 100 100 100 100 100 100 100 100 100 100 100 100 100 100 100
100 100 100 100 100 88 100 100 100 99 100 100 85 62 40 73 93 100 70 38 9 10 62 16 61 13 15 53 72 100 100 100 35 36 99 99 93 100 100 100 100 100 100 100 100 100 100 100 100 100 100 100 100 100
100 99 100 78 93 100 99 95 99 100 88 67 72 52 62 88 100 99 25 5 0 0 0 5 5 4 4 8 75 64 100 100 96 92 100 100 100 100 100 100 100 100 100 100 100 100 100 100 100 100 100 100 100 100
100 60 77 24 62 98 69 63 90 62 73 82 68 50 99 100 100 56 5 1 0 23 100 100 100 100 76 70 11 4 88 100 98 100 100 100 100 100 100 100 100 100 100 100 100 100 100 100 100 100 100 100 100 99
100 21 98 79 46 99 95 40 49 48 97 91 86 96 100 100 57 4 3 5 20 100 100 100 95 76 88 60 99 73 13 66 48 100 100 100 100 100 100 100 100 100 100 100 100 100 100 100 100 100 100 100 100 95
91 99 64 100 99 58 64 42 44 86 6 5 50 97 100 68 3 5 2 26 75 75 77 100 100 100 100 100 99 97 100 100 82 88 100 100 100 100 94 96 100 100 100 100 100 100 100 100 100 100 100 100 100 100
63 21 22 76 85 100 100 99 14 5 5 100 100 100 52 5 5 5 6 63 5 5 0 4 67 78 16 28 94 98 100 100 100 100 100 100 100 100 83 97 100 100 100 100 94 85 100 100 100 100 100 97 87 100
16 48 98 99 100 76 19 85 57 97 66 92 100 95 37 3 5 55 69 11 1 0 0 0 0 0 0 5 5 46 80 98 100 100 100 100 100 99 100 100 100 100 100 98 99 100 100 100 100 100 100 100 100 99
36 42 48 99 16 5 10 86 100 96 76 58 84 81 7 2 5 5 2 0 0 0 0 0 0 23 0 3 96 100 82 100 100 100 100 100 100 100 100 100 100 100 82 99 100 100 100 100 100 96 100 100 100 93
100 100 98 100 100 100 98 91 100 100 100 53 5 43 22 5 4 0 0 3 0 0 0 0 0 0 2 0 1 5 9 100 100 38 100 100 100 100 100 100 100 100 88 100 100 100 100 100 100 96 100 100 92 59
100 100 100 100 96 83 75 100 99 100 100 96 56 6 4 3 4 0 5 2 0 0 0 0 0 0 5 5 2 0 0 0 36 100 100 97 100 100 100 100 100 100 100 100 100 100 100 100 100 100 100 100 93 100

GFSWCAN_prec_cloud_105.txt.gz
Cloud_Cover
100 100 100 100 92 100 100 100 99 31 99 80 78 15 100 90 100 100 95 22 19 100 9 96 14 5 4 4 6 5 5 5 5 1 0 0 0 0 0 0 0 0 0 0 0 0 2 0 2 5 2 0 0 0
100 100 100 100 100 100 100 100 98 100 95 17 64 100 100 76 54 100 100 100 95 100 100 100 100 63 22 5 5 5 5 5 5 4 5 5 1 0 0 0 0 1 0 1 0 0 0 0 0 0 0 0 0 0
100 100 100 100 100 100 100 100 100 99 81 29 78 91 23 76 92 92 100 100 100 100 100 100 100 100 100 76 6 5 7 5 5 19 0 0 0 1 5 5 5 5 5 5 6 5 5 6 69 46 69 42 1 0
100 100 100 100 100 100 100 100 100 100 97 9 13 99 100 53 6 71 98 100 100 100 100 100 100 100 100 100 100 58 68 39 5 5 14 26 4 0 5 4 5 6 55 6 5 5 14 63 41 100 100 100 100 34
100 100 100 100 100 100 100 100 100 100 100 96 77 98 14 95 50 26 17 95 53 28 98 100 100 100 100 100 100 100 100 100 49 4 5 7 11 9 31 13 64 85 100 100 100 100 100 97 100 100 100 100 100 100
100 100 100 100 100 100 100 100 100 100 100 100 100 100 100 100 100 100 46 18 95 100 55 73 29 91 100 100 100 100 100 100 100 96 20 5 5 66 19 5 10 65 100 12 77 100 100 100 100 100 100 100 100 73
100 100 100 100 100 100 100 100 100 100 100 100 100 100 100 100 100 100 100 100 8 29 96 100 93 91 11 50 89 100 100 100 100 100 87 42 91 20 29 5 8 24 4 6 7 4 22 41 77 100 100 100 100 100
100 100 100 100 100 100 100 100 100 100 100 100 100 100 100 100 100 100 100 100 100 100 96 100 100 100 66 39 5 11 100 100 100 100 100 100 100 58 21 5 5 37 59 7 8 96 87 73 66 100 100 100 100 100
100 100 100 100 100 100 100 100 100 100 100 100 100 100 100 100 100 100 100 100 100 100 100 100 100 97 100 100 83 80 27 99 100 100 100 100 100 100 87 10 4 89 100 100 73 7 4 4 21 62 100 100 100 100
100 100 100 100 100 100 100 100 100 97 100 100 100 100 100 100 100 100 100 100 100 100 100 100 100 100 100 82 99 99 99 50 94 75 100 100 100 100 100 100 100 70 100 100 100 99 99 76 49 6 5 99 100 100
100 96 100 100 100 100 100 100 100 100 100 100 100 100 76 94 97 100 100 100 100 100 100 100 100 100 73 8 38 27 45 44 77 28 100 100 100 100 100 99 98 100 98 51 50 34 36 25 97 100 53 59 86 100
100 100 100 100 100 100 100 100 100 100 100 100 100 100 100 90 92 96 100 100 100 100 100 100 100 100 100 100 36 5 11 43 73 5 74 99 100 100 100 96 70 99 100 100 98 59 100 100 100 100 99 83 32 74
100 100 100 100 100 100 100 100 100 100 100 100 100 100 100 100 100 100 100 90 53 87 100 100 100 100 100 100 100 20 67 75 6 50 31 100 5 18 34 92 100 100 100 100 100 100 87 100 100 92 89 100 96 73
67 90 100 100 100 100 100 56 89 100 100 100 100 100 100 100 100 100 100 100 100 95 87 100 100 93 99 100 100 100 16 8 58 87 29 6 5 3 4 82 27 100 100 100 100 100 100 100 94 100 63 100 100 100
95 12 99 83 100 100 99 100 64 100 100 100 100 72 87 99 100 100 100 100 100 100 100 100 100 100 99 100 100 42 24 84 66 35 24 88 98 89 82 38 19 89 100 100 100 100 100 100 100 100 100 100 100 100
2 9 4 2 7 14 3 10 73 100 100 100 100 97 97 42 30 18 6 11 24 70 91 100 100 98 100 100 45 17 54 66 100 100 100 88 90 96 100 100 96 78 66 100 100 100 100 100 100 100 100 100 100 100
5 100 23 21 0 0 1 71 100 100 100 100 74 65 5 5 5 5 0 2 20 100 100 100 100 100 100 100 16 5 5 100 100 100 100 100 100 100 100 100 88 25 55 71 100 100 100 100 100 100 100 100 100 100
94 6 24 7 8 84 77 90 100 100 100 31 97 5 75 5 9 12 5 58 39 19 19 97 100 100 100 88 5 6 100 100 45 100 100 100 100 100 100 51 73 97 100 100 100 100 100 100 100 100 100 100 100 100
7 5 33 20 36 46 100 100 100 100 62 38 53 42 99 96 24 22 17 86 100 90 100 100 100 94 17 1 7 97 100 60 16 79 37 86 100 100 100 58 88 93 100 100 100 100 100 100 100 100 100 100 100 100
5 40 16 89 61 93 100 100 100 100 37 6 6 7 19 5 2 5 5 40 92 100 100 100 57 1 0 4 4 3 6 82 32 5 5 68 100 100 100 99 90 100 84 99 100 100 100 100 100 100 100 100 100 100
12 31 100 100 100 100 100 100 100 85 60 43 22 92 38 91 68 84 95 50 100 100 96 23 2 5 5 26 5 0 0 34 98 78 5 11 100 100 100 100 97 100 100 100 100 100 100 100 100 100 100 100 100 100
74 95 100 100 100 100 100 97 100 100 100 78 92 100 95 98 100 98 100 100 100 21 62 2 4 76 42 49 24 14 85 90 12 9 7 13 61 100 100 100 100 96 100 100 100 100 100 100 100 100 100 100 100 100
100 100 100 100 100 100 44 86 94 52 81 65 98 100 99 86 61 88 100 81 23 2 72 16 6 40 60 5 4 3 19 29 59 93 16 83 100 100 100 100 100 100 100 100 100 100 100 100 100 100 100 100 100 100
100 100 100 100 100 85 48 100 92 81 76 97 90 56 5 6 87 100 93 5 1 0 0 0 0 0 85 99 99 50 12 64 5 6 94 91 44 100 100 80 100 100 100 100 100 100 100 100 100 100 100 100 100 100
100 100 100 100 100 100 68 23 70 100 100 25 25 72 36 90 100 100 23 0 0 0 0 0 0 4 97 78 75 6 5 73 25 5 4 45 5 6 56 93 100 100 100 99 75 100 100 100 100 100 100 100 100 100
98 100 96 92 59 37 5 13 41 59 48 68 99 85 42 99 100 66 1 0 0 0 0 10 74 35 30 99 34 5 7 100 94 48 14 8 5 79 100 34 98 100 100 97 100 100 100 100 100 100 100 100 100 100
90 94 97 6 5 16 39 28 12 91 96 100 33 77 100 100 96 4 0 0 0 20 80 94 76 98 100 96 64 86 100 100 100 81 96 100 93 88 53 21 100 100 100 100 100 100 100 100 100 100 100 100 100 100
18 21 96 46 81 39 68 97 100 100 100 100 100 100 100 100 45 0 1 0 10 72 100 58 5 92 80 7 84 100 100 99 92 100 100 100 100 100 89 48 100 100 100 100 100 100 100 100 100 100 100 100 100 100
26 10 79 67 17 73 18 24 76 75 59 100 100 100 95 5 0 0 0 56 100 93 5 0 0 0 1 0 49 27 99 99 53 34 90 99 100 100 100 100 100 100 100 100 100 100 100 100 99 100 100 100 100 100
10 5 58 15 40 36 5 19 6 91 100 100 100 96 38 4 0 0 0 0 0 1 0 0 0 0 0 0 0 0 20 2 0 36 4 54 100 100 96 100 100 100 100 100 100 100 100 97 100 100 100 100 99 100
96 100 100 98 60 5 5 5 20 99 86 71 44 15 1 0 0 0 0 0 0 0 0 0 0 0 0 0 0 0 0 0 0 0 52 98 100 100 100 100 100 100 100 100 100 100 100 100 100 100 100 100 100 100
100 100 100 100 40 66 43 26 5 10 5 9 5 11 5 5 5 0 0 0 0 0 0 0 0 0 0 0 0 0 0 0 0 0 4 6 80 100 100 100 100 100 100 100 100 100 100 100 100 100 100 100 100 100
79 87 81 44 78 35 18 100 68 55 26 32 9 5 5 8 5 1 3 1 0 0 0 0 0 0 0 0 0 0 0 0 0 0 0 1 82 100 100 100 100 100 100 100 100 100 100 100 100 100 100 100 100 100

GFSWCAN_prec_cloud_111.txt.gz
Cloud_Cover
100 100 100 100 100 100 100 100 100 100 100 100 100 100 100 95 43 52 5 5 54 3 0 2 2 5 5 5 97 59 63 20 22 7 5 5 16 5 5 4 5 19 44 77 82 63 29 20 22 25 19 5 11 100
100 100 100 100 100 100 100 100 100 100 100 100 100 100 100 100 87 51 7 5 40 100 51 5 0 5 4 5 17 5 34 100 100 76 97 72 8 21 8 15 25 90 28 5 54 77 6 5 18 5 5 5 14 59
100 100 95 100 100 100 100 100 100 100 100 100 100 100 100 100 100 100 96 70 100 100 100 99 5 81 4 4 32 5 5 31 8 5 4 29 67 100 15 5 5 100 80 76 13 6 9 19 18 100 97 60 16 26
100 100 79 100 100 100 100 100 100 100 100 100 100 100 100 100 100 100 100 100 100 100 100 100 100 100 71 95 26 24 36 5 5 5 3 5 3 100 100 43 52 38 87 100 100 100 96 88 22 5 7 100 100 100
100 100 28 34 100 100 100 100 100 100 100 100 100 100 100 100 100 100 100 100 100 100 100 100 100 100 100 100 100 100 90 92 72 21 5 5 57 45 83 4 5 60 20 36 79 71 100 100 100 100 100 75 84 85
100 100 83 63 99 100 100 100 100 100 100 100 100 100 100 100 100 100 100 100 100 89 100 100 100 100 98 100 100 100 100 100 100 100 100 42 5 5 53 11 5 20 5 0 5 5 5 5 9 45 74 100 100 100
100 100 100 100 75 53 44 100 100 100 100 100 100 100 100 100 100 100 100 100 100 100 100 100 100 100 100 77 96 100 36 100 100 100 100 100 100 42 100 100 100 40 25 89 5 5 1 0 5 4 6 29 60 83
100 100 100 100 100 100 83 98 100 100 100 100 100 100 100 100 100 100 100 100 100 100 100 100 100 100 100 100 100 60 84 100 100 100 100 100 100 100 100 64 98 100 100 100 99 18 5 4 5 11 5 5 22 44
100 100 100 100 97 100 87 98 100 100 100 100 100 100 100 100 100 100 100 100 100 100 100 100 100 100 100 100 100 100 100 100 100 100 100 100 100 100 100 100 100 90 98 100 100 100 95 54 5 5 7 6 5 15
100 100 100 100 100 100 100 62 89 100 100 100 100 100 100 100 100 100 100 100 100 100 100 100 100 100 100 100 100 100 100 100 100 100 100 100 100 100 100 100 100 100 100 100 100 100 90 95 10 5 0 5 24 5
100 100 100 100 100 100 100 100 100 98 100 95 100 100 100 100 100 100 100 100 100 100 100 100 100 100 100 100 100 100 100 100 100 100 100 100 100 100 100 100 100 100 100 99 99 97 28 5 5 4 0 0 2 2
100 100 100 100 100 100 100 100 100 96 100 95 95 100 100 100 100 100 100 100 100 100 100 100 94 32 72 100 100 88 53 80 81 100 100 100 100 100 100 100 100 100 100 100 50 32 6 5 5 5 5 5 5 5
100 100 100 100 100 100 94 99 100 98 100 88 78 99 100 100 100 100 100 100 100 98 99 99 100 81 52 51 5 17 86 72 24 78 100 100 100 100 100 100 85 5 1 1 4 4 5 5 4 5 5 28 81 9
100 100 100 100 100 100 100 100 100 100 94 100 100 98 100 100 100 100 100 100 100 100 100 97 99 53 73 32 23 98 5 6 74 86 98 100 100 100 100 66 97 92 21 10 5 5 8 25 100 100 100 100 100 100
100 100 100 100 100 100 100 100 98 100 100 86 100 100 100 100 88 100 92 74 54 99 100 100 99 75 34 84 81 87 70 87 40 100 100 100 63 31 57 35 61 79 16 48 68 89 100 73 64 100 100 100 100 100
100 100 100 100 100 100 100 100 100 100 100 98 99 100 100 98 100 100 58 66 26 5 20 76 83 65 76 73 95 96 56 48 88 33 18 90 92 100 100 76 18 79 80 81 100 98 100 43 39 54 100 100 100 100
100 100 100 100 100 100 100 100 100 100 99 100 100 100 85 40 20 99 100 48 5 5 59 100 100 100 88 98 99 97 96 16 6 4 3 78 99 100 68 5 0 0 5 100 55 93 100 100 92 60 90 100 98 100
99 100 100 100 100 100 100 100 100 100 94 98 100 68 79 80 7 5 5 5 7 12 28 86 97 84 90 67 54 10 5 15 20 5 1 0 0 0 22 6 5 2 0 5 71 98 100 100 100 92 87 100 100 100
11 5 41 100 100 100 99 98 98 94 78 71 77 26 5 7 7 5 4 5 5 5 46 100 100 52 5 4 3 1 6 5 68 85 21 1 0 3 0 0 0 0 0 8 89 56 78 86 5 5 57 86 79 100
5 5 5 16 82 100 100 100 100 97 92 50 58 68 6 5 14 6 2 4 7 96 100 100 51 9 6 2 4 0 42 77 34 15 1 0 3 1 0 2 0 0 0 0 0 4 49 1 21 90 61 54 69 79
5 5 5 6 85 100 100 86 100 100 97 72 77 26 5 72 38 68 63 15 74 100 100 100 74 10 3 0 0 0 0 0 0 5 5 4 0 0 0 0 5 5 0 0 0 4 91 95 100 98 89 63 98 100
79 39 63 100 100 100 100 100 99 77 99 99 88 79 98 63 41 40 14 73 98 50 5 5 4 5 5 6 18 6 1 0 2 1 5 5 3 0 0 0 0 2 5 4 5 5 3 59 5 5 56 100 100 100
78 100 100 100 100 100 87 64 100 100 97 84 84 100 88 87 33 36 48 7 6 2 0 0 0 0 5 2 6 0 0 4 5 8 17 1 0 0 2 5 5 5 4 0 5 5 5 5 31 66 91 99 100 100
100 100 100 100 100 99 74 95 88 86 89 84 76 8 5 5 14 92 30 0 0 1 0 0 1 3 2 5 5 5 3 3 9 9 4 1 15 13 81 96 68 8 4 4 37 18 5 5 5 6 100 100 100 100
100 100 100 91 96 95 100 98 99 100 99 44 24 32 24 53 88 91 34 0 0 0 0 0 13 36 7 1 0 2 4 5 5 5 0 39 100 51 67 100 100 100 86 15 66 96 100 99 100 87 41 34 100 100
100 75 77 20 28 55 40 60 95 65 57 62 82 21 79 44 95 97 4 0 0 0 0 1 74 86 11 6 98 31 72 100 76 100 55 100 100 48 41 55 20 48 100 76 99 94 78 90 95 71 61 74 100 100
100 64 20 5 5 23 61 49 5 53 100 90 7 5 81 96 70 2 0 0 0 0 3 23 98 98 44 59 45 6 88 100 100 100 80 3 10 47 68 20 5 36 100 100 100 100 98 100 100 90 92 100 100 100
52 6 20 32 96 48 26 97 43 7 2 3 46 92 17 5 0 0 1 1 0 0 1 5 61 100 100 100 26 2 13 100 100 100 20 5 45 100 100 100 53 43 100 100 100 100 100 99 100 100 90 100 100 100
93 25 55 16 92 100 65 21 2 2 0 3 5 2 0 0 0 0 0 0 0 0 0 1 34 100 100 52 74 72 26 5 5 25 70 3 0 32 100 34 0 82 100 100 100 100 100 100 100 100 100 100 100 100
32 100 99 90 76 13 0 40 5 1 19 26 13 5 3 0 0 0 0 0 3 2 0 1 3 78 77 5 0 3 30 9 0 2 2 0 0 0 0 0 9 43 5 73 100 100 100 100 100 99 100 100 100 100
5 6 5 5 6 48 41 23 6 16 6 0 1 25 6 0 0 0 0 0 0 2 0 0 0 1 3 0 0 1 0 0 0 0 0 0 0 0 0 0 0 0 1 6 100 100 100 100 100 100 100 100 100 100
83 76 10 5 4 0 3 5 5 5 2 5 5 5 5 15 52 0 6 96 66 5 0 0 0 0 0 0 2 2 0 0 0 0 0 0 0 0 0 0 0 0 4 10 96 100 100 100 100 100 100 100 100 100
68 75 56 34 21 54 85 100 32 51 10 17 52 100 100 100 68 42 100 100 94 5 0 1 0 0 0 0 0 0 0 0 0 0 0 0 0 0 0 0 0 4 5 5 11 11 95 100 100 100 100 100 100 100

GFSWCAN_prec_cloud_117.txt.gz
Cloud_Cover
100 100 100 100 100 85 57 100 84 100 100 98 98 98 71 100 100 93 100 98 100 100 100 94 59 97 69 100 100 100 18 41 32 27 16 5 9 4 3 4 5 4 30 51 54 45 22 5 5 5 7 11 12 100
100 100 100 100 100 100 52 17 96 76 100 100 100 100 100 100 100 100 97 100 100 100 83 82 100 100 100 66 99 100 100 99 86 7 19 50 10 17 31 28 5 99 83 10 28 10 43 5 6 5 35 99 96 54
100 100 100 100 99 100 100 100 96 6 82 100 100 100 100 100 100 100 100 76 98 100 100 100 100 100 100 100 100 100 100 100 100 100 94 25 100 100 100 93 100 100 100 82 100 100 58 16 92 100 38 100 100 10
100 100 100 100 97 81 100 100 98 40 75 79 100 100 100 100 100 100 100 100 100 100 100 100 100 100 100 100 100 98 100 100 100 100 100 100 98 100 100 100 100 92 97 100 100 100 100 100 100 100 100 100 100 100
100 100 100 100 100 70 74 100 100 100 100 99 100 100 100 100 100 100 100 100 100 100 100 100 100 100 100 100 91 11 99 100 100 100 100 100 100 100 100 100 82 5 100 100 100 100 100 100 100 100 100 100 100 100
100 100 100 100 100 99 54 66 100 100 100 100 100 100 100 100 100 100 100 100 100 100 100 100 100 100 100 100 100 100 100 100 100 100 100 100 100 100 100 100 100 90 93 64 100 100 100 100 100 100 100 100 100 100
100 100 100 100 100 100 100 100 100 79 100 100 89 100 100 100 100 100 100 100 100 100 100 100 100 100 100 100 100 100 100 100 100 100 100 100 100 100 100 100 100 100 100 100 100 98 100 100 100 100 100 100 100 100
100 100 100 100 100 100 100 100 100 100 98 100 100 100 100 100 99 100 98 89 25 70 98 100 100 100 100 100 100 100 100 100 100 100 100 100 100 100 100 100 100 100 100 100 100 100 100 100 100 100 100 100 100 100
100 100 100 100 100 100 100 100 100 100 100 100 98 100 99 99 100 100 100 100 89 82 83 98 100 100 100 100 100 100 100 100 100 100 100 100 100 100 100 100 100 100 100 100 100 100 92 24 100 100 100 100 100 100
100 100 100 100 100 100 100 100 100 100 100 100 97 97 100 90 99 100 100 100 100 100 98 100 100 100 100 100 100 100 100 100 100 100 100 100 100 100 100 100 100 100 92 5 5 84 100 65 58 93 100 100 96 98
100 100 100 100 100 100 100 100 100 100 100 100 100 88 100 100 98 77 55 97 100 100 100 100 100 100 99 100 90 61 63 90 100 100 100 100 100 100 100 100 100 23 16 64 22 15 27 67 100 100 97 76 38 82
100 100 100 100 100 100 100 100 100 75 99 80 97 100 100 100 95 94 94 100 100 91 69 100 100 100 100 100 100 100 60 79 91 69 100 100 100 100 100 100 5 62 100 100 100 100 100 100 100 100 100 100 84 7
100 100 100 100 100 100 100 100 100 98 58 29 65 100 100 100 100 100 100 100 100 100 100 100 97 24 59 100 100 99 94 84 10 91 92 100 100 94 39 5 22 89 100 100 100 100 100 100 85 46 35 14 6 5
100 100 100 100 100 100 100 100 100 100 94 54 83 96 75 100 100 100 100 100 100 100 87 75 59 14 8 7 100 100 72 61 100 100 100 99 6 5 66 68 5 6 93 100 100 100 100 34 9 34 9 0 0 1
100 100 100 100 100 100 100 100 100 88 46 56 81 72 37 73 100 100 100 100 98 96 98 89 36 45 30 41 98 74 94 100 99 100 100 11 5 56 5 5 5 4 0 4 28 60 67 16 5 0 0 0 0 0
100 100 100 100 100 100 100 90 95 86 100 78 94 77 84 91 100 100 100 100 99 95 96 62 35 27 64 89 98 99 99 100 100 100 24 5 5 8 4 3 3 1 0 5 1 2 5 5 2 0 0 0 0 0
100 100 100 100 100 100 100 100 100 99 77 93 99 99 100 100 100 100 100 100 100 100 100 99 84 100 69 84 84 100 100 100 100 76 24 5 13 6 51 24 5 5 7 5 34 5 5 1 0 0 0 0 0 0
100 100 100 100 100 100 100 100 100 69 84 100 100 100 100 100 100 100 100 100 100 100 100 98 75 95 96 99 100 100 100 100 83 39 36 92 100 100 90 59 74 100 57 4 1 0 0 0 0 0 0 0 0 0
100 100 100 100 100 100 100 100 100 100 100 98 99 100 100 100 100 100 100 100 100 100 100 96 56 63 100 100 100 100 98 93 83 65 49 43 54 76 87 35 5 1 0 0 0 0 0 0 0 0 2 0 2 1
100 100 100 100 100 100 100 96 100 100 99 88 86 91 61 49 35 100 100 100 100 100 100 88 6 5 5 1 2 0 0 0 0 0 0 0 0 0 2 0 0 0 2 4 4 5 5 3 0 0 5 5 1 3
96 100 100 100 100 58 60 77 97 100 94 76 97 74 49 84 97 100 100 91 98 99 79 7 3 0 0 0 0 0 0 0 0 0 0 1 0 5 5 5 5 5 5 5 5 5 5 5 1 0 5 5 4 4
100 100 100 100 100 100 87 99 99 81 63 31 87 65 93 96 88 100 92 68 72 4 4 0 0 0 0 0 0 0 0 0 0 0 2 5 5 5 5 5 5 5 5 5 5 5 5 5 3 5 5 14 24 5
40 81 100 98 100 97 33 79 100 100 93 67 94 93 73 88 42 11 39 15 4 0 0 0 0 0 0 0 0 0 0 0 2 5 5 5 5 5 5 5 5 78 58 5 12 98 82 5 5 5 5 55 60 21
100 100 100 100 94 59 85 100 100 98 100 99 99 99 71 68 62 81 5 4 0 0 0 0 0 0 0 0 4 2 0 0 0 0 4 5 5 5 5 5 5 7 62 95 41 97 46 5 5 5 5 50 80 49
100 100 100 100 76 76 100 93 93 100 97 95 98 46 17 48 5 97 38 0 0 0 0 0 0 0 0 0 0 0 0 0 3 97 21 5 84 94 11 5 14 89 66 100 100 93 6 43 77 37 19 95 98 87
100 100 100 23 88 82 6 97 100 65 74 92 60 13 89 48 96 88 5 0 0 0 0 0 0 0 0 0 0 0 0 0 0 1 0 1 94 94 46 5 4 64 100 100 100 53 97 100 23 5 41 95 26 11
100 100 76 5 5 26 64 52 24 39 89 66 14 71 76 100 72 4 0 0 0 0 0 0 0 0 0 0 0 0 0 0 0 0 0 0 0 2 57 39 5 5 94 100 100 100 100 95 8 98 61 34 100 22
96 99 99 96 92 65 6 88 77 42 5 5 19 48 12 5 0 0 1 0 0 1 2 0 0 0 0 0 0 0 0 0 0 14 4 0 0 0 3 94 100 79 5 12 100 100 98 84 5 87 80 5 100 100
96 100 95 84 100 100 47 5 5 5 61 100 88 3 0 0 0 0 0 0 0 0 0 0 0 0 0 0 0 0 0 0 1 5 5 4 0 0 3 8 100 84 5 1 13 100 23 0 6 10 5 17 80 99
85 90 82 68 49 43 4 5 7 1 2 0 2 1 0 0 0 0 2 5 66 91 21 0 1 5 5 5 5 4 4 5 5 5 5 4 0 0 3 5 79 74 36 0 0 2 5 16 9 15 38 55 58 93
59 24 19 30 4 1 0 41 48 5 4 1 0 0 0 2 22 100 100 100 100 41 20 19 5 10 47 93 100 93 74 25 6 5 5 4 0 0 0 0 12 44 9 3 4 4 3 3 30 5 18 77 84 84
97 27 5 5 36 99 86 10 5 5 1 0 33 100 99 73 8 99 100 100 63 25 14 83 44 8 16 77 69 100 100 100 95 40 48 5 5 4 0 0 1 5 5 5 5 5 5 22 5 7 5 36 19 63
97 59 54 5 5 5 54 76 12 71 100 94 100 100 100 100 61 22 73 95 87 100 39 81 78 73 88 98 99 100 100 91 6 5 5 4 4 2 0 3 5 5 5 5 5 5 5 52 37 34 59 46 39 93

GFSWCAN_prec_cloud_120.txt.gz
Cloud_Cover
100 100 100 100 100 100 100 100 100 100 43 33 41 13 93 99 100 100 99 98 95 80 100 91 10 5 99 100 100 99 61 89 100 100 100 100 94 13 6 5 5 5 44 41 58 72 23 5 9 7 37 14 69 86
100 100 100 100 100 100 98 100 100 98 100 100 54 100 100 96 100 100 100 100 100 100 100 100 100 97 10 98 99 100 100 100 100 100 100 100 100 100 100 91 89 100 88 6 5 8 46 8 100 100 100 100 100 100
100 100 100 100 100 100 100 100 100 100 100 100 68 18 100 100 100 100 92 97 100 100 86 100 100 100 100 96 100 100 100 100 100 100 100 100 100 100 100 100 100 100 100 100 100 96 100 25 20 100 100 100 100 100
100 100 100 100 100 100 100 100 100 100 100 100 100 100 90 16 100 100 100 100 100 100 100 100 100 100 100 100 100 100 100 100 100 100 100 60 96 100 100 100 100 100 100 100 100 100 100 100 59 18 100 100 100 100
100 100 100 100 100 100 100 100 100 100 100 100 100 100 100 100 58 92 100 100 100 100 100 90 100 100 100 100 100 100 84 100 100 100 100 100 100 100 100 100 100 100 100 100 100 100 100 100 100 93 91 100 100 100
100 100 100 100 100 100 100 100 100 100 100 100 100 100 100 100 100 100 100 100 100 100 100 100 100 100 100 100 100 100 100 100 100 100 100 100 100 100 100 100 100 100 100 100 100 100 100 100 100 100 100 100 100 100
100 100 100 100 100 100 100 100 100 100 100 100 99 99 100 100 100 100 98 100 53 100 100 100 100 100 100 100 100 100 100 100 100 100 100 100 100 100 100 100 100 100 100 100 43 18 78 88 100 100 100 100 100 100
100 100 100 100 100 100 100 100 100 100 100 100 100 99 100 100 98 99 98 99 100 100 100 100 100 100 100 88 70 100 100 100 100 100 100 100 100 100 100 100 100 100 88 99 100 100 100 100 100 100 100 100 100 100
100 100 100 100 100 100 100 100 100 100 100 100 100 100 100 100 99 100 100 100 100 57 100 100 96 100 100 100 100 100 100 98 75 86 100 97 100 100 100 100 100 100 100 100 100 96 98 95 100 100 100 100 100 100
100 100 100 100 100 100 100 100 100 100 100 100 100 100 100 100 100 100 100 100 100 100 100 100 100 93 99 100 100 96 99 100 100 100 100 100 100 100 98 45 38 15 99 51 69 100 100 100 100 100 100 100 100 100
100 100 100 100 100 100 100 100 100 100 100 100 100 100 100 100 100 100 100 100 100 100 100 100 100 100 100 100 100 34 28 62 100 100 100 100 100 100 86 5 2 4 5 20 5 5 73 97 99 100 100 100 100 100
100 100 100 100 100 100 100 100 100 100 100 100 100 100 100 100 100 100 100 100 100 100 100 100 100 100 100 100 100 100 100 100 92 79 100 100 100 98 28 8 5 5 5 5 87 100 100 98 54 93 100 100 100 81
100 100 100 100 100 100 100 100 100 100 100 100 100 100 100 96 100 100 100 100 100 100 100 100 84 95 100 100 100 100 100 100 100 98 100 100 100 45 11 5 5 5 18 19 56 100 100 100 87 16 33 39 5 5
100 100 100 100 100 100 100 100 100 100 100 100 100 100 100 100 86 100 100 100 71 100 100 100 100 100 82 100 100 100 100 100 100 100 100 100 84 5 5 10 45 5 5 5 5 8 85 46 45 100 100 100 37 1
100 100 100 100 100 100 100 100 100 100 100 100 100 100 99 100 100 100 100 73 60 88 97 97 100 95 100 99 91 93 100 100 100 100 39 10 4 5 4 5 5 5 5 5 5 32 97 100 83 56 67 24 3 1
100 100 100 100 100 100 100 100 100 100 100 100 99 98 100 100 100 100 100 80 64 96 100 100 100 78 82 100 100 99 96 99 100 99 10 15 0 5 6 35 68 80 69 22 14 14 40 94 61 11 8 5 4 3
100 100 100 100 100 100 100 100 100 100 100 96 100 100 100 100 100 100 100 90 86 98 100 98 86 16 64 93 85 10 82 100 98 54 62 67 91 99 100 99 98 86 49 35 10 22 37 21 17 9 0 0 0 0
100 100 100 100 100 100 100 100 100 100 100 96 100 100 100 100 100 100 100 100 88 93 99 99 74 95 83 82 62 89 8 5 5 18 13 17 78 100 100 77 16 4 1 3 0 2 1 4 5 5 4 1 3 2
100 100 100 100 100 100 100 100 100 100 100 100 100 100 100 100 100 100 100 100 97 93 61 85 56 92 90 91 50 5 5 5 22 19 5 5 5 28 7 5 3 1 0 0 0 4 5 5 5 5 5 5 5 0
100 100 100 100 100 100 100 100 100 100 100 100 100 100 100 100 100 100 100 100 100 96 100 99 42 6 5 5 5 5 2 1 0 0 3 3 3 0 0 0 0 0 0 2 4 5 5 5 5 5 5 5 5 2
100 100 100 100 100 100 100 100 100 100 100 100 100 93 100 100 100 100 100 100 99 80 72 89 65 80 39 5 4 5 5 5 3 0 0 0 0 0 0 0 3 5 5 5 5 5 5 5 5 5 5 5 5 5
100 100 100 100 100 100 100 100 54 82 96 100 100 100 100 100 100 100 100 100 100 99 92 35 17 17 10 5 0 0 0 0 0 0 0 0 5 5 5 0 5 5 5 5 5 5 5 5 5 5 64 61 99 32
100 100 100 100 100 100 94 99 100 100 100 100 100 100 100 100 100 83 83 58 48 96 81 11 5 3 0 0 0 0 0 0 0 0 0 0 0 0 4 4 5 5 5 5 5 36 20 5 5 19 79 47 68 19
100 100 100 96 50 94 90 98 100 88 100 100 100 100 100 87 84 89 40 5 1 0 1 0 0 0 0 0 0 0 0 0 0 0 0 5 5 2 0 5 5 2 3 12 100 99 34 99 55 86 100 100 95 78
100 100 100 100 88 91 100 100 98 100 100 100 98 99 31 32 52 99 87 5 0 0 0 0 0 0 0 0 0 0 0 0 0 0 0 0 0 2 2 0 0 0 3 7 100 100 7 48 95 59 92 100 74 5
100 100 100 31 81 37 34 91 99 67 73 100 92 29 79 75 71 6 5 0 0 0 0 0 0 0 0 0 0 0 0 0 0 0 0 0 0 0 4 2 0 0 0 13 100 91 59 27 100 6 5 84 100 100
100 100 100 7 5 7 64 100 93 47 95 64 13 94 71 73 7 5 1 2 0 0 0 0 0 0 0 0 0 0 0 0 0 0 0 0 0 0 0 2 0 0 0 1 50 100 95 11 24 5 60 100 100 100
100 100 99 99 100 100 100 100 100 47 5 5 5 25 14 5 2 0 1 0 0 0 0 0 0 0 0 0 0 0 0 0 0 7 24 1 0 0 0 0 0 0 0 0 0 6 25 8 5 8 18 88 74 41
99 66 100 100 100 100 100 100 46 5 5 5 5 1 0 0 0 0 0 0 0 0 1 4 0 0 0 0 0 4 4 11 9 5 5 5 4 1 1 2 0 0 0 4 2 5 5 5 8 11 43 89 5 2
84 100 100 100 100 100 100 100 54 12 4 4 1 1 0 0 0 1 0 7 54 47 5 4 2 3 22 98 78 67 93 100 100 100 99 62 6 27 47 6 5 2 2 5 5 4 3 100 8 40 56 34 5 5
100 100 100 100 100 100 100 95 48 16 5 4 4 1 0 0 0 78 100 100 100 17 18 5 5 5 45 94 61 50 29 95 100 100 100 98 70 27 30 6 6 5 5 5 5 5 5 82 91 9 5 5 45 5
100 100 100 95 100 61 5 5 5 5 5 3 0 3 13 71 52 13 100 100 100 73 24 91 94 36 94 98 44 58 100 96 46 100 100 100 100 100 77 56 5 51 56 11 5 5 5 52 52 7 9 5 5 22
98 76 81 30 5 4 24 2 3 40 7 4 3 98 100 100 88 68 99 12 5 5 28 65 100 91 43 55 72 95 98 81 49 5 51 100 84 71 100 77 16 5 5 5 5 5 8 22 31 32 5 21 82 96

GFSWCAN_prec_cloud_123.txt.gz
Cloud_Cover
100 100 100 100 100 100 100 100 100 100 96 87 64 97 100 42 54 97 73 93 97 100 93 85 100 100 98 27 60 29 75 100 100 100 100 100 100 100 100 100 100 100 100 100 81 67 22 5 11 51 78 100 90 62
100 100 100 100 100 100 100 100 100 100 100 89 80 59 80 11 27 96 68 62 94 100 100 100 100 100 100 100 100 89 73 100 92 84 100 100 100 100 100 100 100 100 100 100 100 100 100 100 100 100 94 84 86 100
100 100 100 100 100 100 100 100 100 100 100 100 100 87 25 9 50 94 100 100 100 100 100 88 50 83 100 100 100 100 100 98 100 100 100 100 92 100 100 92 20 100 68 100 100 100 100 100 100 100 100 100 100 100
100 100 100 100 100 100 100 100 100 100 100 100 100 100 100 91 97 67 100 96 100 99 100 100 100 100 100 65 80 73 100 100 100 89 100 97 100 100 100 100 100 100 100 100 100 100 100 100 100 100 100 100 100 100
100 100 100 100 100 100 100 100 100 100 100 100 100 100 100 100 100 100 100 99 70 95 100 100 100 100 100 100 100 90 100 100 100 100 70 95 97 66 100 100 100 38 13 99 100 100 100 100 100 100 100 100 100 100
100 100 100 100 100 100 100 100 100 100 100 100 100 100 100 100 100 100 100 99 100 100 100 100 100 100 100 100 100 100 100 100 100 100 100 100 100 100 100 100 100 100 100 100 100 100 100 100 100 97 100 100 99 79
100 100 100 100 100 100 100 100 100 100 100 100 100 100 100 100 100 100 100 100 100 100 100 100 100 100 100 100 100 100 100 100 100 100 100 100 100 100 100 100 100 99 40 100 88 99 60 100 100 100 100 100 100 100
100 100 100 100 100 100 100 100 100 100 100 100 100 100 100 100 100 100 100 100 100 100 100 100 96 100 77 85 90 99 88 77 100 100 100 100 100 88 97 91 63 48 5 19 66 39 53 80 98 100 94 91 98 92
100 100 100 100 100 100 100 100 100 100 100 100 100 100 99 96 96 98 100 100 100 100 100 100 100 100 92 82 90 100 78 52 46 99 70 99 100 100 100 39 13 58 60 22 6 41 79 96 100 93 93 100 99 49
100 100 100 100 100 100 100 100 100 100 100 100 100 100 98 100 96 70 72 100 100 100 100 100 100 100 100 100 100 100 100 100 100 100 100 100 100 100 100 98 96 76 84 100 100 100 100 99 99 100 62 5 5 5
100 100 100 100 100 100 100 100 100 100 100 100 100 100 95 100 76 76 64 94 93 100 100 100 100 100 100 100 100 100 100 100 100 100 100 100 100 100 100 91 44 62 83 100 100 100 100 100 96 100 100 80 73 58
100 100 100 100 100 100 100 100 100 100 100 100 100 100 100 100 96 60 72 100 100 86 100 100 100 100 100 100 100 100 100 100 100 100 100 100 100 95 100 96 88 88 99 96 100 99 73 98 99 100 98 100 100 100
100 100 100 100 100 100 100 100 100 100 100 100 100 100 100 100 98 94 73 100 92 96 71 93 100 100 100 100 100 100 100 100 100 100 100 100 100 100 100 100 84 100 94 89 42 5 5 7 6 62 88 100 51 20
100 100 100 100 100 100 100 100 100 100 100 100 100 100 100 100 70 88 71 99 47 58 78 98 42 99 98 89 98 99 99 100 100 100 100 100 100 10 5 19 49 64 15 41 32 5 5 5 27 61 56 5 5 4
100 100 100 100 100 100 100 100 100 100 100 100 100 100 91 98 100 80 81 84 92 52 59 98 94 57 79 89 93 89 100 100 100 66 96 86 28 5 5 85 28 5 5 5 5 5 5 5 11 79 100 97 98 16
100 100 100 100 100 100 100 100 100 100 100 100 100 100 100 100 100 100 100 88 81 98 94 100 100 100 100 100 100 100 93 100 100 94 11 5 5 5 21 35 60 5 5 1 0 2 4 16 5 3 2 4 4 3
100 100 100 100 100 100 100 100 100 100 100 100 100 100 100 100 100 99 96 91 98 100 100 100 95 80 86 94 86 100 100 100 64 17 9 8 49 64 30 25 7 5 5 5 5 5 5 1 0 5 5 1 3 5
100 100 100 100 100 100 100 100 100 100 100 100 100 100 100 100 100 100 100 100 100 100 100 100 85 100 100 100 93 82 82 93 98 96 52 5 5 4 2 0 0 4 5 5 5 1 0 4 5 5 5 5 5 5
100 100 100 100 100 100 100 100 100 100 100 100 100 100 100 100 100 100 100 99 96 86 76 96 85 99 100 99 100 52 28 55 65 25 3 0 0 0 5 5 5 5 4 3 2 0 0 0 5 5 5 5 5 5
100 100 100 100 100 100 100 100 100 100 100 100 100 100 100 100 100 100 100 96 88 100 99 97 90 46 6 20 33 9 2 4 1 0 0 0 2 3 4 4 1 0 0 0 3 4 5 5 5 5 5 5 57 11
100 100 100 100 100 100 100 100 100 100 100 100 100 100 100 100 100 100 87 100 99 89 100 97 36 5 5 0 2 5 4 5 5 4 4 0 0 0 2 0 2 2 3 5 5 5 5 5 5 5 5 5 52 91
100 100 100 100 100 100 100 100 100 100 100 100 100 100 100 100 100 100 100 90 100 100 100 64 10 5 5 4 5 5 5 4 3 0 0 0 0 0 0 0 0 4 5 5 5 5 5 5 5 5 11 45 100 85
100 100 100 100 100 100 100 100 100 100 100 100 100 100 100 100 100 100 100 98 100 100 100 100 100 62 9 4 2 0 0 0 0 0 0 0 0 0 0 0 0 5 5 5 4 5 5 5 5 5 5 84 100 73
100 100 100 100 100 100 86 100 100 100 100 100 100 100 100 100 100 100 84 87 100 100 100 100 100 23 2 0 1 0 0 0 0 0 0 0 0 0 0 0 0 0 3 4 4 5 5 5 5 5 18 89 99 96
100 100 91 100 98 99 96 100 100 100 100 100 100 96 86 94 67 99 82 68 90 97 24 0 0 0 0 0 0 0 0 0 0 0 0 0 0 0 0 0 0 0 0 5 5 5 5 5 5 5 5 61 45 23
100 99 69 5 82 39 65 91 100 100 100 100 98 100 82 86 98 32 8 40 52 2 0 0 0 0 0 0 0 0 0 0 0 0 0 0 0 0 0 0 0 0 0 0 5 5 5 5 5 4 5 5 5 5
100 100 85 62 6 7 52 48 54 51 97 65 14 99 92 59 7 5 1 5 1 2 0 0 0 0 0 0 0 0 0 0 0 0 0 1 2 46 32 14 2 0 0 0 2 3 1 1 0 5 5 5 5 50
100 94 37 86 83 61 91 75 31 53 10 10 27 98 100 46 2 0 1 4 0 0 0 0 0 0 0 0 0 0 0 2 4 5 5 5 12 70 100 100 83 5 4 3 5 5 5 5 5 5 5 5 5 30
100 100 100 100 100 100 97 46 46 100 100 100 100 100 40 2 0 0 0 0 4 5 4 0 0 2 0 0 0 0 0 4 11 8 8 5 29 99 96 82 76 95 96 28 6 68 6 5 5 6 6 5 5 25
100 100 100 100 100 100 100 100 100 100 100 87 32 4 3 0 0 0 1 0 0 0 3 5 0 0 0 1 0 0 9 63 100 41 79 16 5 4 10 28 54 100 100 100 94 90 56 73 56 68 56 30 43 5
100 100 100 100 100 100 100 100 100 71 7 5 7 4 0 0 0 0 0 0 5 62 5 5 1 4 4 5 5 5 7 99 100 58 92 94 89 56 35 34 100 100 93 86 100 100 65 75 79 9 5 5 33 5
100 98 100 100 100 100 100 71 5 5 10 62 3 13 5 5 5 0 21 100 100 99 5 0 0 3 17 95 63 94 60 8 9 9 84 97 100 100 100 97 86 100 97 95 91 92 61 23 5 7 5 5 5 5
94 100 100 100 100 100 100 81 10 30 22 33 5 1 4 5 5 6 88 96 23 1 4 16 23 59 100 100 100 96 84 22 29 53 92 100 100 79 20 75 81 82 83 69 70 56 58 59 20 5 5 14 5 6

GFSWCAN_prec_cloud_126.txt.gz
Cloud_Cover
100 100 100 100 100 100 100 100 100 100 43 39 47 18 48 56 8 11 30 5 5 28 82 100 100 87 20 17 38 100 100 24 83 34 45 58 5 20 85 100 97 63 88 100 100 100 100 100 100 100 100 99 89 81
100 100 100 100 100 100 100 100 100 100 90 98 89 9 12 93 56 64 6 32 88 46 68 95 85 100 91 99 92 37 92 100 100 59 16 21 94 91 24 85 100 99 83 100 100 32 92 100 100 100 100 100 100 100
100 100 100 100 100 100 100 100 100 100 100 100 100 100 100 78 34 100 99 67 5 70 83 97 96 100 100 95 80 100 95 95 100 100 98 11 21 8 59 99 94 99 100 100 100 71 100 100 100 100 100 100 100 100
100 100 100 100 100 100 100 100 100 100 100 100 100 100 100 100 100 100 100 98 93 100 93 14 13 5 91 100 100 91 100 95 100 82 95 98 88 9 5 12 5 68 100 100 100 100 100 100 100 100 100 100 100 100
100 100 100 100 100 100 100 100 100 100 100 100 100 100 100 100 100 100 94 100 100 100 100 100 100 100 94 100 100 100 100 100 100 100 100 100 100 100 100 100 100 85 100 100 100 95 71 89 99 100 47 42 99 100
100 100 100 100 100 100 100 100 100 100 100 100 100 100 100 100 100 100 100 100 100 100 100 100 69 93 100 100 100 100 100 77 60 100 100 100 100 100 100 100 100 100 100 100 100 100 100 100 98 70 53 26 6 24
100 100 100 100 100 100 100 100 100 100 100 100 100 100 100 100 100 100 100 100 100 100 100 100 100 100 100 100 100 100 100 99 93 88 89 100 100 99 94 100 100 100 84 100 100 93 100 80 97 100 94 47 25 40
100 100 100 100 100 100 100 100 100 100 100 100 100 100 100 100 100 100 100 100 100 100 100 100 100 100 100 100 100 100 100 100 95 59 56 26 27 98 98 98 88 69 88 99 100 100 100 100 73 90 97 74 87 55
100 100 100 100 100 100 100 100 100 100 100 100 100 100 100 100 100 100 100 100 100 100 100 100 100 100 100 100 100 100 100 100 100 100 100 100 100 100 100 100 100 100 93 87 97 100 100 100 97 82 100 100 74 11
100 100 100 100 100 100 100 100 100 100 100 100 100 100 100 100 100 100 100 100 100 100 100 100 100 100 100 99 100 100 100 100 100 100 100 100 100 100 100 100 100 100 100 100 100 100 100 100 100 100 100 96 92 100
100 100 100 100 100 100 100 100 100 100 100 100 100 100 100 100 100 100 100 100 100 100 100 100 100 100 94 89 79 67 86 77 82 100 100 100 100 100 100 100 100 100 100 100 100 100 100 100 100 100 100 100 100 98
100 100 100 100 100 100 100 100 100 100 100 100 100 100 100 100 100 100 100 70 99 87 100 100 100 100 51 12 52 100 93 72 86 79 100 100 98 76 93 100 100 100 67 71 92 100 100 100 100 99 86 100 100 61
100 100 100 100 100 100 100 100 100 100 100 100 100 100 100 100 100 100 100 100 98 98 100 100 100 29 42 28 31 40 100 90 87 99 100 100 14 11 5 12 55 89 97 56 76 95 100 94 15 54 99 100 100 100
100 100 100 100 100 100 100 100 100 100 100 100 100 100 100 100 100 100 100 100 100 100 100 94 88 16 47 87 55 98 100 100 100 100 85 5 5 5 5 16 28 5 28 9 5 5 5 9 75 100 100 100 73 84
100 100 100 100 100 100 100 100 100 100 100 100 100 100 100 100 100 100 100 100 100 100 100 100 100 92 93 100 100 100 100 100 98 25 5 27 5 8 19 10 50 90 96 71 90 100 100 100 100 100 88 5 2 2
100 100 100 100 100 100 100 100 100 100 100 100 100 100 100 100 100 100 100 100 100 100 100 100 100 100 100 100 100 100 100 100 100 100 93 95 98 99 99 100 100 100 100 100 100 100 100 100 100 92 15 3 0 0
100 100 100 100 100 100 100 100 100 100 100 100 100 100 100 100 100 100 100 100 100 100 100 100 100 100 100 100 100 100 100 98 89 100 100 100 100 93 64 99 82 100 100 100 100 100 86 62 44 5 5 0 0 2
100 100 100 100 100 100 100 100 100 100 100 100 100 100 100 100 100 100 100 100 100 100 100 100 100 100 100 100 99 18 5 82 100 100 100 96 100 64 54 100 95 86 76 71 6 5 5 5 5 3 1 0 3 5
100 100 100 100 100 100 100 100 100 100 100 100 100 100 100 100 100 100 100 100 100 100 100 100 100 100 100 100 62 5 5 5 5 5 48 100 100 100 78 30 6 2 0 0 0 0 0 0 0 0 0 3 5 5
100 100 100 100 100 100 100 100 100 100 100 100 100 100 100 100 100 100 100 100 100 100 100 100 100 100 100 94 17 54 93 54 5 5 48 100 80 3 3 4 0 0 0 0 0 0 0 2 0 0 2 5 5 5
100 100 100 100 100 100 100 100 100 100 100 100 100 100 100 100 100 98 100 100 100 100 100 87 100 100 78 23 27 7 5 6 35 5 4 1 2 5 5 5 5 0 0 3 3 0 0 1 0 0 0 0 3 5
100 100 100 100 100 100 100 100 100 100 100 100 100 100 100 100 100 91 92 100 98 100 100 40 64 49 7 5 5 0 1 1 2 3 2 2 0 0 0 0 0 0 0 2 2 4 0 0 0 0 4 3 5 5
100 100 100 100 100 100 100 100 100 100 100 100 100 100 100 100 100 87 91 83 58 100 23 5 5 5 5 5 5 5 5 0 0 0 0 0 0 0 0 0 0 0 1 0 0 0 0 0 0 3 5 5 5 5
100 100 100 100 100 100 100 100 100 100 100 100 100 100 100 100 100 98 64 21 100 98 68 54 15 11 4 0 0 0 0 0 0 0 0 0 0 0 0 0 0 0 0 0 0 0 0 0 2 5 5 5 5 5
100 100 100 100 100 100 100 100 100 100 100 100 100 100 100 100 94 100 94 29 100 64 67 86 46 75 19 1 0 0 0 0 0 0 0 0 0 0 0 0 0 0 0 4 0 2 5 5 5 5 5 5 5 5
94 100 100 100 100 100 100 100 100 100 100 100 100 100 100 94 96 32 13 67 75 100 100 96 96 68 30 2 0 0 0 0 0 0 0 0 0 0 0 0 0 0 59 98 32 9 5 4 5 5 5 5 5 5
100 76 92 90 99 100 100 100 100 100 100 100 96 100 91 58 23 5 5 22 91 61 12 1 5 1 0 0 0 0 0 0 0 0 0 0 0 4 5 5 0 2 6 85 75 78 86 69 76 60 32 5 5 5
99 71 41 85 70 49 75 74 54 69 75 46 36 99 100 27 2 0 1 0 0 0 0 0 0 0 0 0 0 0 0 0 0 0 0 0 0 2 6 7 91 50 89 90 80 95 100 74 58 94 70 40 5 5
100 100 89 91 89 99 42 31 5 7 38 28 10 5 5 3 5 0 0 0 4 5 0 0 0 0 0 0 2 0 0 1 3 5 5 4 2 1 5 5 5 79 100 100 97 99 100 94 98 77 71 86 52 80
100 100 100 98 91 93 63 97 74 100 76 14 53 48 15 0 1 2 3 1 3 0 0 0 0 3 0 0 0 0 0 3 5 9 17 5 0 0 5 5 26 90 100 100 100 74 97 100 100 92 72 81 100 96
37 100 100 100 100 100 100 100 100 100 100 95 63 8 5 4 0 0 0 0 0 0 0 0 0 0 4 3 5 5 5 80 100 100 98 16 5 5 12 8 59 96 100 100 100 100 100 100 97 97 100 51 47 24
88 30 42 91 23 24 16 28 29 90 11 40 5 18 39 5 5 0 0 0 0 1 0 0 0 0 3 5 7 20 35 96 100 100 98 53 88 5 9 64 94 100 100 100 100 100 100 100 100 86 82 22 5 5
89 96 98 64 13 5 64 59 56 43 14 17 5 5 5 4 0 0 5 10 0 0 0 0 2 10 67 95 100 100 100 97 87 71 66 78 100 96 87 75 100 100 97 100 100 100 98 96 98 84 48 29 11 36

GFSWCAN_prec_cloud_129.txt.gz
Cloud_Cover
100 100 100 100 100 100 100 100 100 100 100 96 26 100 5 70 28 70 6 5 5 40 100 99 94 60 14 5 5 7 46 47 46 74 4 2 5 1 5 2 9 16 5 5 93 100 100 45 50 37 99 99 86 40
100 100 100 100 100 100 100 100 100 100 100 100 100 88 10 38 7 21 29 54 29 93 49 92 94 100 88 60 6 5 5 11 98 93 100 100 32 5 5 2 5 5 5 92 66 21 7 24 50 9 5 17 83 26
100 100 100 100 100 100 100 100 100 100 100 100 100 100 90 100 100 15 94 38 98 100 100 100 100 100 100 100 96 84 100 57 28 46 100 100 100 47 23 37 6 67 19 8 5 22 91 80 99 100 100 100 100 100
100 100 100 100 100 100 100 100 100 100 100 100 100 100 100 100 100 100 94 6 32 94 63 80 25 6 99 15 29 14 99 100 97 100 100 81 100 100 100 100 100 100 100 100 100 93 100 100 100 100 100 100 100 100
100 100 100 100 100 100 100 100 100 100 100 100 100 100 100 100 100 100 100 100 94 69 100 100 100 100 100 100 96 97 32 12 53 65 6 8 28 76 100 100 93 31 69 70 55 90 100 100 100 100 100 100 100 100
100 100 100 100 100 100 100 100 100 100 100 100 100 100 100 100 100 100 100 100 100 99 11 87 100 100 100 100 89 98 46 59 59 62 97 100 97 14 87 68 5 5 5 5 55 38 12 17 8 54 51 74 37 7
100 100 100 100 100 100 100 100 100 100 100 100 100 100 100 100 100 100 100 100 100 100 100 100 100 100 100 100 100 100 100 100 100 44 73 97 91 82 100 100 100 100 100 100 100 100 100 100 100 81 90 93 97 89
100 100 88 100 100 100 100 100 100 100 100 100 100 100 100 100 100 100 100 100 100 100 100 100 100 100 100 100 100 100 100 100 100 100 100 100 100 100 100 100 100 100 100 100 100 100 100 100 100 100 100 100 100 100
100 100 97 100 100 100 100 100 100 100 100 100 100 100 100 100 100 100 100 100 100 100 100 100 100 100 100 100 100 100 100 100 100 100 100 100 100 100 100 95 86 100 100 100 100 100 86 98 100 100 76 100 100 99
100 100 100 89 100 100 100 100 100 100 100 100 100 100 100 100 100 100 100 100 100 100 100 100 100 100 100 100 100 100 100 100 100 100 100 100 100 100 100 83 100 100 99 16 6 22 78 100 100 100 100 100 78 95
100 100 100 79 100 100 100 100 100 100 100 100 100 100 100 100 100 100 100 99 100 100 100 100 100 100 100 100 100 89 92 95 83 100 100 100 100 100 100 50 50 12 7 57 100 100 100 100 99 100 83 95 88 89
100 100 100 100 100 100 100 100 100 100 100 100 100 100 100 100 100 100 100 72 83 95 100 100 100 100 100 100 93 95 96 89 100 94 100 100 100 51 28 19 5 5 41 91 100 86 27 8 27 76 98 100 71 30
100 100 90 42 100 100 100 100 100 100 100 100 100 100 100 100 100 100 100 100 100 100 100 100 100 100 100 100 100 76 100 83 15 100 99 100 100 49 5 5 28 100 100 99 92 99 74 81 100 70 78 99 33 25
30 51 51 84 100 100 100 100 100 100 100 100 100 100 100 100 65 99 100 100 100 100 100 100 100 100 100 100 100 100 84 68 100 100 42 5 5 5 5 5 16 80 100 73 19 79 100 100 100 100 100 100 100 100
77 5 48 100 100 100 100 100 100 100 100 100 100 100 93 59 46 94 100 100 100 100 100 100 100 100 100 100 100 100 99 96 93 48 60 30 5 5 19 99 100 100 100 100 100 100 100 94 93 100 100 100 100 100
86 86 100 100 100 100 100 100 100 100 100 100 100 100 95 97 94 93 100 100 100 100 100 100 100 100 100 100 100 100 100 100 100 100 76 63 38 26 66 100 100 100 100 100 98 100 100 100 100 100 100 100 100 100
100 100 100 100 100 100 100 100 100 100 100 100 100 69 5 5 54 96 100 100 100 100 100 100 100 100 100 100 100 100 100 100 100 100 100 100 100 100 100 100 100 100 90 100 72 83 100 100 100 100 100 100 100 100
100 100 100 100 100 100 100 100 100 100 100 100 99 100 90 81 98 99 100 100 100 100 100 100 100 100 100 100 100 100 100 100 100 100 100 100 100 100 100 100 100 98 100 100 98 89 60 38 5 5 15 4 4 0
100 100 100 100 100 100 100 100 100 100 100 100 100 100 100 100 100 100 100 100 100 100 100 100 100 100 100 100 100 100 100 100 100 100 88 77 100 100 100 100 100 100 100 100 100 50 11 4 3 0 0 0 0 0
100 100 100 100 100 100 100 100 100 100 100 100 100 100 100 100 100 100 100 100 100 100 100 100 100 100 100 100 100 100 100 100 96 89 94 100 100 99 93 94 42 10 5 6 5 5 1 0 0 0 0 0 0 0
100 100 100 100 100 100 100 100 100 100 100 100 100 100 100 100 100 100 100 100 99 100 100 100 100 100 99 91 59 51 78 42 5 5 5 8 10 4 0 2 5 5 5 4 0 0 0 0 0 0 0 0 0 0
100 100 100 100 100 100 100 100 100 100 100 100 100 100 100 100 100 100 100 100 100 100 100 100 100 97 60 94 75 12 5 5 5 5 4 0 0 0 0 3 1 0 0 0 0 0 0 0 0 0 0 0 0 0
100 100 100 100 100 100 100 100 100 100 100 100 100 100 100 100 100 100 100 100 100 100 100 100 100 100 100 76 25 46 46 5 1 0 0 0 0 0 0 0 0 0 0 0 0 0 0 0 2 5 4 5 5 5
100 100 100 100 100 100 100 100 100 100 100 100 100 100 100 100 100 100 100 100 100 100 100 100 100 65 8 6 27 33 56 5 5 0 0 0 0 0 0 0 0 0 0 0 0 0 0 4 5 5 5 5 5 5
100 100 100 100 100 100 100 100 100 100 100 100 100 100 100 100 100 100 100 100 100 100 100 99 48 37 45 56 6 6 5 4 0 0 0 0 0 0 0 0 0 0 0 0 0 0 0 5 5 5 5 40 60 61
100 100 100 100 100 100 100 100 100 100 100 100 100 100 100 100 100 94 100 100 100 96 95 96 83 56 39 12 5 4 0 0 0 0 0 0 0 0 0 0 0 0 0 7 22 6 5 5 5 5 25 69 87 99
100 100 100 100 100 100 100 100 100 100 100 100 100 100 100 99 46 81 100 58 13 97 100 100 100 100 66 10 5 3 0 1 0 0 0 0 0 0 0 0 0 0 0 18 71 14 72 92 62 37 98 87 99 97
100 100 100 100 100 100 100 100 100 100 100 100 100 100 92 78 80 100 100 80 65 51 100 100 91 21 5 5 4 1 0 0 0 0 0 0 0 0 2 5 5 29 40 7 5 5 35 82 97 87 100 96 75 86
83 95 100 100 100 100 100 100 100 100 100 100 98 64 28 12 11 18 72 16 9 14 7 7 5 5 3 0 0 0 0 1 1 5 5 4 0 0 16 45 82 5 5 5 5 5 98 99 100 100 97 100 80 83
100 100 100 100 88 78 97 99 100 100 100 76 41 20 6 5 5 5 4 4 3 2 0 0 0 0 0 0 0 0 0 1 5 5 5 4 8 24 93 77 35 18 71 88 66 67 74 83 79 84 92 98 97 88
100 100 92 58 12 38 99 100 86 15 5 5 4 4 0 4 0 0 0 0 4 5 1 0 0 0 4 3 5 5 2 0 0 12 31 39 73 90 20 64 100 76 100 99 100 100 99 99 96 100 93 83 89 97
100 100 99 75 61 66 14 5 5 5 5 5 5 5 5 5 5 0 0 1 0 0 0 0 0 0 0 0 0 4 5 5 5 5 52 95 80 100 100 92 97 97 100 100 69 100 97 89 100 99 91 87 96 99
98 100 94 100 98 93 53 5 5 5 10 5 5 5 5 2 2 0 3 2 3 0 0 0 0 0 0 2 5 30 72 20 65 97 70 60 92 92 100 100 100 100 90 93 98 99 95 90 92 100 100 100 100 100

GFSWCAN_prec_cloud_132.txt.gz
Cloud_Cover
100 100 100 99 96 100 100 100 100 100 100 100 100 100 100 100 12 37 53 5 5 1 17 75 37 5 12 5 37 5 11 40 68 86 30 9 2 3 3 2 0 5 5 5 47 100 86 79 76 61 73 100 68 17
100 100 100 100 98 100 100 100 100 100 100 100 100 100 100 100 100 6 18 71 39 5 5 5 5 6 56 85 87 5 14 5 5 22 48 85 99 90 5 0 0 3 4 5 7 91 40 18 99 100 45 19 47 70
100 100 100 100 100 100 100 100 100 100 100 100 100 100 100 100 100 48 60 92 13 99 5 43 8 53 5 23 95 73 36 18 98 99 99 75 84 50 6 31 30 79 92 85 94 95 100 100 100 100 100 100 100 100
100 100 100 100 100 100 100 100 100 100 100 100 100 100 100 100 100 100 100 100 100 100 16 5 17 18 5 3 1 13 4 6 9 4 4 2 4 5 38 96 72 5 5 4 5 5 5 5 5 5 10 41 53 59
100 100 100 100 100 100 100 100 100 100 100 100 100 100 100 100 100 100 100 100 100 100 85 28 5 16 8 5 11 65 43 3 1 0 0 5 5 9 72 92 5 7 5 5 5 5 5 5 5 6 9 40 71 86
100 100 100 100 100 100 100 100 100 100 100 100 100 100 100 100 100 100 100 100 100 100 100 100 46 31 7 8 100 100 100 100 97 98 97 98 33 20 96 100 89 4 10 7 16 17 84 100 100 100 100 100 100 100
100 100 100 100 100 100 100 100 100 100 100 100 100 100 100 100 100 100 100 100 100 100 100 100 100 100 99 24 100 100 96 97 100 100 100 100 91 70 100 100 100 79 66 100 100 100 100 100 100 88 22 5 11 54
100 100 100 100 100 100 100 100 100 100 100 100 100 100 100 100 100 100 100 100 100 100 100 100 100 100 100 100 100 100 100 99 96 100 100 100 100 100 100 100 100 100 100 100 100 100 100 100 39 12 5 5 5 5
100 100 100 100 100 100 100 100 100 100 100 100 100 100 100 100 100 100 100 100 100 100 100 100 100 100 100 100 100 100 100 100 100 100 100 100 100 100 100 100 100 100 100 100 100 100 100 48 5 5 5 5 5 7
100 100 100 100 100 100 93 100 100 100 100 100 100 100 100 100 100 100 100 100 100 100 100 100 100 100 100 100 100 100 100 100 100 100 100 100 100 100 100 100 100 100 100 100 87 59 75 9 10 56 91 73 15 64
100 100 100 100 100 100 100 100 100 100 100 100 100 100 100 100 100 100 100 100 71 85 92 100 100 100 100 100 100 100 98 100 100 100 92 99 100 100 89 21 10 47 24 5 6 14 9 32 57 19 48 72 59 83
100 100 100 100 100 100 100 100 100 100 100 100 100 100 100 100 100 100 100 100 100 94 92 100 100 100 100 100 100 98 79 84 82 74 100 100 100 100 30 5 24 25 6 5 5 5 10 22 76 87 93 88 96 100
100 100 100 100 100 100 100 100 100 100 100 100 100 100 100 100 100 95 80 100 100 100 100 100 100 100 100 100 100 100 98 89 12 100 97 98 25 5 5 11 89 93 96 95 88 100 100 94 99 100 100 100 100 100
100 100 100 100 100 100 100 100 100 100 100 100 100 100 100 100 46 23 61 92 99 96 100 100 100 100 100 100 100 100 99 65 100 100 30 10 7 5 7 34 50 90 100 100 100 100 100 100 100 100 100 100 100 100
88 83 99 96 94 100 22 99 100 100 100 100 100 100 99 13 18 32 29 92 70 70 100 100 100 100 100 100 100 100 100 99 100 100 100 100 98 85 34 30 88 100 98 98 100 100 100 100 100 100 100 100 100 100
73 100 100 100 100 100 65 100 100 100 100 100 100 100 65 29 94 24 31 98 91 99 97 64 100 100 100 100 100 100 100 100 100 100 100 94 96 92 86 78 64 28 41 97 100 100 100 100 100 100 100 100 100 100
100 100 94 69 98 100 28 100 100 100 100 100 100 97 17 6 15 10 32 78 100 100 96 90 100 100 100 97 100 98 96 95 26 66 54 96 86 95 99 97 86 97 100 100 100 100 100 100 100 100 100 100 100 100
98 100 94 100 99 97 100 100 100 100 100 100 100 67 60 83 100 67 73 77 39 87 100 100 100 100 79 33 23 46 73 78 100 97 92 100 100 100 100 100 100 100 100 100 100 100 100 100 100 100 100 98 97 90
100 100 94 100 100 100 100 100 100 100 100 100 100 99 98 77 48 97 100 100 100 100 100 99 97 64 81 100 100 78 74 86 75 63 82 100 100 100 100 100 100 100 100 100 100 100 100 100 100 75 15 4 1 0
100 100 100 100 100 100 100 100 100 100 100 100 100 100 100 100 100 100 100 100 100 100 100 81 83 100 100 100 99 100 84 79 68 89 98 94 85 100 100 100 100 100 100 100 98 40 5 9 1 0 0 0 0 0
100 100 100 100 100 100 100 100 100 100 100 100 100 100 100 100 100 100 100 100 100 99 94 96 100 100 50 100 100 100 100 74 65 46 26 5 8 26 94 38 6 5 13 6 5 0 0 0 0 0 0 0 0 0
100 100 100 100 100 100 100 100 100 100 100 100 100 100 100 100 100 100 100 100 100 100 100 100 92 38 49 100 100 100 100 96 52 12 5 5 9 5 5 5 5 4 1 0 0 0 0 0 0 0 0 0 0 1
100 100 100 100 100 100 100 100 100 100 100 100 100 100 100 100 100 100 100 100 100 100 100 100 100 100 100 100 100 100 97 47 10 6 5 5 5 5 2 3 0 2 0 0 2 0 0 0 0 0 0 1 2 4
100 100 100 100 100 100 100 100 100 100 100 100 100 100 100 100 100 100 100 100 100 100 100 100 100 100 100 100 100 100 98 45 5 5 5 5 2 0 0 0 0 0 0 0 0 0 0 0 0 0 5 5 5 5
100 100 100 100 100 100 100 100 100 100 100 100 100 100 100 100 100 100 100 100 100 100 100 98 100 100 100 100 100 100 100 100 37 5 9 5 0 0 0 0 0 0 3 0 0 0 0 0 0 5 5 5 58 70
100 100 100 100 100 100 100 100 100 100 100 100 100 100 100 100 86 95 100 100 100 100 100 100 100 99 75 76 88 89 62 32 5 3 4 4 0 0 0 0 0 0 0 0 0 4 0 0 5 5 5 5 79 99
100 100 100 100 100 100 100 100 100 100 100 100 100 100 100 100 100 100 100 100 100 100 100 100 100 100 100 82 22 8 5 5 0 0 0 0 0 1 0 0 0 0 0 5 5 5 4 5 5 5 6 40 63 100
100 100 100 100 100 100 100 100 100 100 100 100 100 100 100 100 100 100 100 100 100 100 96 92 100 100 68 12 5 5 5 4 4 5 5 4 0 0 0 0 0 0 0 0 5 38 98 83 37 15 78 90 97 100
100 100 100 100 100 100 100 100 100 100 100 100 100 100 100 100 100 100 100 100 100 100 100 100 100 78 5 5 5 5 5 5 5 5 5 4 1 3 5 5 5 5 5 5 5 98 100 100 97 100 100 100 100 100
100 100 100 100 100 100 100 100 100 100 100 100 100 100 97 84 91 85 79 53 12 5 5 5 4 5 3 5 4 2 5 5 5 5 5 5 2 4 5 5 5 5 5 9 13 8 84 100 100 98 100 89 98 96
98 100 100 100 100 100 100 100 100 100 84 62 68 55 44 29 30 5 5 5 5 5 5 5 5 5 5 5 5 5 5 4 5 5 5 4 5 4 5 5 5 5 7 72 87 99 81 100 100 97 85 96 93 98
81 100 99 100 93 100 100 100 100 100 99 93 97 65 52 7 5 5 8 18 5 5 2 2 5 2 4 2 5 5 0 4 5 5 85 82 6 5 5 5 17 57 84 99 100 100 100 100 100 92 87 94 96 100
100 100 100 97 99 99 100 98 56 7 20 22 31 24 23 8 4 4 5 3 0 0 0 0 0 2 5 5 5 5 2 5 5 8 18 10 9 19 78 93 95 100 92 96 99 97 100 100 95 85 84 94 100 100

GFSWCAN_prec_cloud_135.txt.gz
Cloud_Cover
100 100 100 100 100 100 100 100 99 100 100 100 100 100 96 100 24 5 5 5 7 5 5 50 97 61 13 5 21 5 2 2 5 5 25 67 71 0 0 0 1 1 5 4 4 5 13 5 5 5 5 5 5 5
100 100 100 100 100 100 100 100 100 100 100 100 100 100 100 100 100 83 86 5 37 5 28 5 10 45 100 96 73 47 5 4 19 5 5 5 50 54 86 1 0 4 5 20 5 2 1 6 4 1 3 0 0 4
100 100 100 100 100 100 100 100 100 100 100 100 100 100 100 100 100 100 100 100 6 55 25 21 25 40 26 97 90 97 30 5 15 6 41 32 46 58 78 91 95 84 35 50 6 2 5 6 5 0 1 1 5 5
100 100 100 100 100 100 100 100 100 100 100 100 100 100 100 100 100 100 100 100 100 100 80 100 61 65 32 5 14 9 15 38 5 54 75 32 5 5 5 5 5 2 4 19 29 11 5 5 2 5 4 4 5 5
100 100 100 100 100 100 100 100 100 100 100 100 100 100 100 100 100 100 100 100 100 100 100 100 100 100 70 5 5 4 1 6 5 18 73 39 3 4 5 5 0 0 0 4 5 3 5 4 16 31 70 96 100 100
100 100 100 100 100 100 100 100 100 100 100 100 100 100 100 100 100 100 100 100 100 100 100 100 100 100 100 100 30 5 72 14 5 14 28 33 5 7 100 100 8 22 35 45 98 99 100 100 100 100 100 100 100 100
100 100 100 100 100 100 100 100 100 100 100 100 100 100 100 100 98 100 100 100 100 100 100 100 100 100 100 100 100 97 72 94 66 93 100 100 100 100 100 100 33 7 8 60 100 100 100 100 100 100 100 84 33 7
100 100 100 100 100 100 100 100 100 100 100 100 100 100 100 100 100 100 100 100 99 86 91 100 100 100 100 100 100 100 88 33 52 47 100 100 100 81 100 100 98 100 100 100 100 100 100 100 100 100 100 82 29 27
100 100 100 100 100 100 100 100 100 100 100 100 100 100 100 100 100 100 100 100 100 91 62 91 100 100 100 100 100 87 60 40 9 68 76 57 99 100 100 100 100 100 100 100 100 100 100 100 79 24 8 10 19 13
100 100 100 100 100 100 100 100 100 100 100 100 100 100 100 100 100 100 100 100 100 100 100 100 100 100 100 100 100 100 100 82 99 100 100 100 100 100 100 100 100 100 100 100 100 100 99 95 17 5 5 6 6 12
78 100 100 100 100 100 100 100 100 100 100 100 100 100 100 100 100 100 100 84 100 100 100 100 100 100 100 100 100 100 100 100 100 100 100 100 100 100 100 100 100 100 100 74 15 5 5 7 10 6 34 17 39 70
10 49 100 100 100 100 100 100 100 100 100 100 100 100 100 100 100 100 96 61 94 95 100 100 100 100 100 100 100 100 100 100 100 100 100 100 100 100 100 100 100 100 35 9 5 6 18 30 88 85 79 42 88 100
22 41 97 100 100 100 100 100 100 100 100 100 100 100 100 100 100 100 86 98 100 100 100 100 100 100 100 100 96 79 96 81 50 100 100 100 100 76 77 48 26 7 5 5 12 26 82 99 100 100 100 100 100 100
93 95 94 100 100 100 100 100 100 100 100 100 100 100 100 100 54 5 8 100 67 99 100 94 100 100 100 100 99 100 50 48 100 100 100 100 100 98 26 21 5 6 5 12 43 92 100 100 100 100 100 100 100 100
82 5 5 36 97 94 100 100 100 100 100 100 100 100 97 100 66 30 22 97 100 100 100 100 100 87 100 100 91 93 87 90 86 66 5 11 16 5 5 33 100 100 100 100 94 75 94 100 100 100 100 100 100 100
98 100 99 100 100 100 100 100 100 100 100 100 100 100 58 40 100 82 79 97 100 100 100 100 100 100 84 36 78 40 56 49 33 8 42 6 5 10 50 88 100 80 96 90 82 51 99 100 100 100 100 100 100 100
100 100 100 100 98 100 100 100 100 100 100 100 100 100 50 9 47 77 12 52 84 100 100 100 100 100 81 70 82 97 90 98 100 87 20 19 12 30 68 55 44 40 5 9 6 80 100 100 100 100 100 100 100 100
99 97 100 100 100 100 100 100 100 100 100 99 85 36 42 5 5 6 15 18 41 82 100 100 100 95 94 93 76 97 97 100 100 66 5 14 20 52 54 6 5 5 5 5 41 97 90 84 99 93 25 53 86 95
100 100 99 100 100 100 100 100 100 100 52 58 38 46 54 22 10 100 44 100 90 100 100 100 100 70 20 56 89 83 84 88 92 94 72 42 28 30 5 5 5 5 11 39 70 83 33 22 18 6 5 7 16 6
100 100 99 96 100 100 100 100 100 98 94 50 97 100 96 93 82 100 100 100 99 100 100 85 91 69 88 100 100 100 90 44 93 100 100 98 63 54 37 9 54 51 89 64 5 4 5 5 5 5 5 5 5 3
100 100 100 100 100 100 100 100 100 95 54 95 100 100 100 100 100 100 100 100 100 100 100 92 100 100 90 100 91 60 91 88 75 98 96 64 49 81 72 81 48 46 33 5 5 2 0 1 0 0 0 0 0 0
100 100 100 100 100 100 100 84 98 98 97 100 100 100 100 100 100 100 100 100 100 100 100 100 100 100 100 94 94 99 99 97 72 47 12 5 5 5 6 31 14 7 5 3 1 1 0 0 0 0 0 0 0 0
100 100 100 100 100 100 100 100 97 97 98 100 100 100 100 100 100 100 100 100 100 100 100 100 100 100 100 100 94 100 87 32 5 5 5 5 5 5 5 5 5 5 2 0 5 4 2 0 0 0 0 0 0 0
100 100 100 100 100 100 100 100 100 100 100 100 100 100 100 100 100 100 100 100 100 100 100 100 100 100 100 100 100 100 100 40 5 5 5 5 5 5 5 5 5 2 0 0 3 2 0 0 0 0 0 0 0 3
100 100 100 100 100 100 100 100 100 100 100 100 100 100 100 100 100 100 100 100 100 100 100 100 100 100 100 100 100 100 91 44 5 4 5 5 5 3 4 4 2 5 5 5 3 2 0 0 3 5 5 5 5 5
100 100 100 100 100 100 100 100 100 100 100 100 100 100 100 100 100 100 100 100 100 100 100 100 100 100 100 100 96 100 74 25 6 5 10 5 5 5 5 3 0 4 4 0 1 5 4 0 2 5 5 4 5 5
100 100 100 100 100 100 100 100 100 100 100 100 100 100 100 100 100 100 100 100 100 100 100 100 100 100 100 100 94 18 5 5 5 5 5 5 5 3 4 2 0 0 0 5 5 4 0 0 0 3 5 5 5 5
100 100 100 100 100 100 100 100 100 100 100 100 100 100 100 100 100 100 100 100 100 100 100 100 99 86 97 80 4 5 5 5 5 5 5 5 5 5 5 2 0 0 0 3 5 5 5 5 5 5 5 10 6 59
100 100 100 100 100 100 100 100 100 100 100 100 100 100 100 100 100 100 100 100 100 100 98 97 59 5 5 5 6 5 5 5 3 5 5 5 5 4 5 5 5 5 5 5 5 3 5 5 5 27 41 80 100 100
100 100 100 100 100 100 100 100 100 100 100 100 100 100 100 100 100 98 86 93 98 99 91 57 85 66 44 5 10 15 40 5 5 5 5 5 5 5 5 5 5 5 5 5 5 9 5 5 61 100 100 100 99 86
100 100 100 100 100 100 100 100 100 100 100 100 100 100 100 100 100 100 100 99 100 99 97 73 87 58 7 5 16 30 5 5 6 5 5 5 5 5 5 5 5 5 5 6 55 85 81 81 93 100 90 76 69 98
91 100 100 100 78 81 39 77 95 68 96 71 81 88 90 28 22 7 8 5 5 9 36 24 5 5 5 5 5 5 0 4 5 5 5 5 5 5 5 5 5 6 64 82 93 100 100 100 95 100 86 81 83 92
88 81 89 90 66 35 8 8 20 61 65 71 25 67 61 24 34 60 83 28 5 5 5 5 5 5 5 5 5 5 2 5 49 5 5 5 5 5 5 5 9 70 88 100 95 85 86 96 90 70 88 98 95 98

GFSWCAN_prec_cloud_138.txt.gz
Cloud_Cover
100 100 100 100 100 100 100 100 100 100 100 100 100 100 94 28 74 75 15 5 4 44 14 2 5 5 15 65 9 5 5 5 5 2 4 28 4 0 0 0 0 0 2 5 3 2 0 0 0 2 4 0 0 4
100 100 100 100 100 100 100 100 100 100 100 100 100 100 100 100 85 70 99 30 5 5 61 34 3 5 5 5 55 46 22 18 6 5 5 5 6 6 4 3 5 4 4 1 0 0 0 0 4 0 0 0 0 0
100 100 100 100 100 100 100 100 100 100 100 100 100 100 100 100 100 92 95 100 60 70 13 91 81 5 5 5 5 10 33 20 100 100 56 21 51 64 65 78 53 5 2 4 4 0 1 0 0 3 5 3 2 4
100 100 100 100 100 100 100 100 100 100 100 100 100 100 100 100 100 100 100 100 100 94 95 48 98 92 62 76 43 43 73 28 31 92 100 100 100 96 5 26 27 5 4 4 5 5 5 5 2 4 3 5 4 2
100 100 100 100 100 100 100 100 100 100 100 100 89 100 100 100 100 100 100 100 100 100 100 100 100 100 100 99 58 30 5 5 2 5 10 27 76 85 77 6 0 0 0 0 0 0 1 0 5 47 82 63 31 51
100 100 100 100 100 100 100 100 100 100 100 100 96 100 100 100 100 100 100 100 100 100 100 100 100 100 100 100 100 100 100 62 15 4 5 5 1 42 32 5 0 5 5 51 97 93 75 35 14 100 100 100 100 100
100 100 100 100 100 100 100 100 100 100 100 100 100 100 100 100 99 100 100 100 100 100 97 76 97 100 100 100 100 100 100 100 100 74 21 29 5 5 28 5 5 2 5 17 64 96 100 99 98 100 100 100 100 100
100 100 100 100 100 100 100 100 100 100 100 100 100 100 100 100 100 100 100 100 100 100 100 100 100 100 100 89 100 100 100 100 100 100 100 28 5 9 100 43 27 84 81 69 71 93 99 98 100 100 100 100 94 96
100 100 100 100 100 100 100 100 100 100 100 100 100 100 100 100 100 100 92 100 100 100 100 100 100 100 100 100 99 67 54 100 100 100 100 100 100 100 91 100 100 83 35 18 11 31 100 98 100 100 100 100 100 90
100 100 100 100 100 100 100 100 100 100 100 100 100 100 100 100 100 100 96 84 99 100 100 100 100 100 100 100 100 100 37 19 41 7 15 73 84 100 100 89 83 96 74 75 100 100 100 100 100 100 100 100 100 100
85 99 100 100 100 100 100 100 100 100 100 100 100 100 100 100 100 100 94 98 49 94 100 100 100 100 100 100 100 100 100 100 68 37 56 71 58 100 100 100 83 100 100 100 100 100 100 100 100 100 100 100 97 62
100 95 28 100 100 100 100 100 100 100 100 100 100 100 100 100 100 100 100 90 96 100 100 100 100 100 100 100 100 100 100 90 100 100 100 100 100 100 100 100 100 100 100 100 100 100 100 100 100 100 100 98 99 74
100 100 21 11 100 100 100 100 100 100 100 100 100 100 100 100 100 100 79 100 95 100 100 100 71 92 100 100 100 100 100 99 100 100 100 100 100 100 100 94 93 96 74 99 100 100 100 100 90 36 10 5 26 86
97 57 5 5 99 100 100 100 100 100 100 100 100 100 100 100 52 5 5 5 81 53 60 16 91 10 54 33 40 88 41 58 100 100 100 100 66 74 82 99 100 100 100 100 100 95 73 45 30 31 38 15 29 38
6 9 34 99 86 91 100 100 100 100 100 100 100 100 100 42 65 72 30 51 72 87 82 80 95 86 88 92 42 63 100 100 98 100 100 92 99 72 79 100 100 72 35 28 69 97 86 69 100 87 69 61 28 10
58 76 92 73 53 99 100 100 100 100 100 100 100 100 91 66 99 100 69 89 92 100 100 100 100 100 99 25 100 89 37 53 64 55 5 49 76 67 36 5 7 16 12 73 99 94 94 86 58 18 16 45 62 33
87 100 100 100 100 100 82 100 100 100 100 100 96 99 89 34 12 49 6 81 100 100 100 97 96 100 96 93 90 28 94 97 6 6 7 5 9 18 8 6 45 32 28 56 82 75 46 7 6 37 11 65 75 100
100 100 100 100 100 100 100 100 100 100 100 33 98 100 100 97 96 100 89 100 100 100 100 100 100 100 97 95 79 100 100 98 67 17 14 66 86 55 50 55 65 75 74 63 100 98 8 5 5 9 5 5 5 5
100 100 100 100 97 100 100 100 100 99 35 32 45 34 71 100 100 100 100 100 100 100 100 100 100 73 68 100 100 100 100 100 100 100 88 17 5 5 5 5 22 43 5 5 5 5 4 5 5 5 5 5 5 4
91 100 94 100 100 100 100 100 100 93 90 28 48 67 24 31 17 41 100 100 100 100 100 100 100 100 100 100 100 100 99 89 25 42 5 5 5 5 5 5 5 5 4 5 5 2 5 5 5 5 5 5 5 5
100 97 100 100 100 100 100 99 100 59 82 66 96 42 48 100 95 74 86 99 100 100 100 65 100 100 100 100 100 100 100 84 100 58 63 13 5 5 5 5 5 5 1 1 0 0 0 4 0 0 4 4 2 0
100 100 100 100 100 100 100 100 96 99 84 92 100 84 57 97 99 98 99 100 100 48 94 98 100 100 100 100 100 100 100 95 60 20 6 5 5 16 92 5 5 5 5 2 1 1 0 0 1 1 5 0 0 2
100 100 100 100 100 100 100 100 100 100 100 100 100 100 100 97 90 94 100 81 99 80 57 44 85 100 100 100 100 100 81 61 96 85 54 11 99 100 95 55 5 5 5 0 5 5 4 5 5 0 1 2 5 3
100 100 100 100 100 100 100 100 100 100 100 100 100 100 92 75 89 100 100 89 70 53 76 85 100 100 100 100 100 100 100 100 44 21 44 63 100 94 24 11 5 2 0 4 4 4 1 0 0 0 0 4 4 4
100 100 100 100 100 100 100 100 100 99 100 94 49 87 99 100 96 100 100 95 99 99 100 100 100 100 100 100 100 100 100 96 93 72 88 100 100 78 5 4 0 0 3 5 5 5 4 3 1 4 5 5 5 5
100 100 100 100 100 100 100 100 100 100 100 100 93 82 68 95 100 98 73 66 27 63 100 100 100 100 100 100 100 100 96 80 99 99 89 72 100 16 5 5 5 4 3 3 5 5 5 5 5 4 5 3 4 5
100 100 100 100 100 100 100 100 100 100 100 100 100 100 100 100 100 100 100 100 100 100 100 100 100 100 100 100 100 99 100 100 95 28 72 100 44 45 28 5 5 0 5 5 5 5 5 5 5 5 5 5 5 5
100 100 100 100 100 100 100 100 100 100 100 100 100 100 100 100 100 100 100 100 100 100 100 100 100 100 100 100 100 100 100 100 100 92 32 8 7 6 5 5 4 0 4 5 5 5 5 5 5 5 5 8 11 9
100 100 100 100 100 100 100 100 100 100 100 100 100 100 100 100 100 100 100 100 100 100 100 100 100 100 100 99 100 100 100 97 19 5 4 5 5 6 5 5 5 5 5 5 4 5 5 5 13 84 99 99 88 88
100 100 100 100 100 100 100 100 100 100 100 100 100 100 100 100 100 100 100 100 100 100 100 94 61 53 100 100 59 6 37 5 5 5 5 5 5 5 5 5 5 5 5 5 5 5 5 28 62 100 62 54 72 88
100 100 100 100 100 100 100 100 100 100 100 100 100 100 100 100 100 100 96 88 95 55 28 88 100 100 100 73 40 65 56 20 6 5 5 19 5 5 5 5 5 5 5 6 26 23 69 85 100 100 99 73 53 92
66 99 100 100 95 100 100 100 100 100 100 100 100 100 100 100 100 100 93 87 100 100 84 66 24 7 42 46 8 6 5 5 5 5 5 5 5 5 6 5 6 6 54 63 51 65 80 100 100 100 88 81 90 82
70 84 92 91 54 89 100 97 100 100 100 97 81 81 78 37 43 13 6 45 6 5 12 24 21 7 5 5 5 15 10 22 66 5 5 5 5 5 5 5 5 45 29 24 70 87 100 100 99 100 93 87 77 66